[[{"header":{"parameterUnit":"m.s-1","parameterCategory":1,"la1":30.6,"la2":29.2853,"lo1":-89.7004,"lo2":-87.6739,"dx":0.0162,"dy":0.0183,"nx":112,"ny":82,"refTime":"2023-01-25T06:00:00:Z","depth":0,"parameterNumber":2,"parameterNumberName":"U-component_of_WINDS"},"data":[0.0,0.0,0.0,0.0,0.0,0.0,0.0,0.0,0.0,0.0,0.0,0.0,0.0,0.0,0.0,0.0,0.0,0.0,0.0,0.0,0.0,0.0,0.0,0.0,0.0,0.0,0.0,0.0,0.0,0.0,0.0,0.0,0.0,0.0,0.0,0.0,0.0,0.0,0.0,0.0,0.0,0.0,0.0,0.0,0.0,0.0,0.0,0.0,0.0,0.0,0.0,0.0,0.0,0.0,0.0,0.0,0.0,0.0,0.0,0.0,0.0,0.0,0.0,0.0,0.0,0.0,0.0,0.0,0.0,0.0,0.0,0.0,0.0,0.0,0.0,0.0,0.0,0.0,0.0,0.0,0.0,0.0,0.0,0.0,0.0,0.0,0.0,0.0,0.0,0.0,1.2403,1.2774,1.372,1.4509,1.4408,1.4936,1.4679,1.3681,0.0,0.0,0.0,0.0,0.0,0.0,0.0,0.0,0.0,0.0,0.0,0.0,0.0,0.0,0.0,0.0,0.0,0.0,0.0,0.0,0.0,0.0,0.0,0.0,0.0,0.0,0.0,0.0,0.0,0.0,0.0,0.0,0.0,0.0,0.0,0.0,0.0,0.0,0.0,0.0,0.0,0.0,0.0,0.0,0.0,0.0,0.0,0.0,0.0,0.0,0.0,0.0,0.0,0.0,0.0,0.0,0.0,0.0,0.0,0.0,0.0,0.0,0.0,0.0,0.0,0.0,0.0,0.0,0.0,0.0,0.0,0.0,0.0,0.0,0.0,0.0,0.0,0.0,0.0,0.0,0.0,0.0,0.0,0.0,0.0,0.0,0.0,0.0,0.0,0.0,0.0,0.0,0.0,0.0,0.0,0.0,0.0,0.0,0.0,0.0,0.0,0.0,0.0,0.0,1.2344,1.3831,1.4668,1.5121,1.5099,1.5146,1.4986,1.4225,0.0,0.0,0.0,0.0,0.0,0.0,0.0,0.0,0.0,0.0,0.0,0.0,0.0,0.0,0.0,0.0,0.0,0.0,0.0,0.0,0.0,0.0,0.0,0.0,0.0,0.0,0.0,0.0,0.0,0.0,0.0,0.0,0.0,0.0,0.0,0.0,0.0,0.0,0.0,0.0,0.0,0.0,0.0,0.0,0.0,0.0,0.0,0.0,0.0,0.0,0.0,0.0,0.0,0.0,0.0,0.0,0.0,0.0,0.0,0.0,0.0,0.0,0.0,0.0,0.0,0.0,0.0,0.0,0.0,0.0,0.0,0.0,0.0,0.0,0.0,0.0,0.0,0.0,0.0,0.0,0.0,0.0,0.0,0.0,0.0,0.0,0.0,0.0,0.0,0.0,0.0,0.0,0.0,0.0,0.0,0.0,0.0,0.0,0.0,0.0,0.0,0.0,0.0,1.2598,1.3485,1.4611,1.5077,1.5259,1.5674,1.5732,1.5308,1.4322,1.0207,0.0,0.0,0.0,0.0,0.0,0.0,0.0,0.0,0.0,0.0,0.0,0.0,0.0,0.0,0.0,0.0,0.0,0.0,0.0,0.0,0.0,0.0,0.0,0.0,0.0,0.0,0.0,0.0,0.0,0.0,0.0,0.0,0.0,0.0,0.0,0.0,0.0,0.0,0.0,0.0,0.0,0.0,0.0,0.0,0.0,0.0,0.0,0.0,0.0,0.0,0.0,0.0,0.0,0.0,0.0,0.0,0.0,0.0,0.0,0.0,0.0,0.0,0.0,0.0,0.0,0.0,0.0,0.0,0.0,0.0,0.0,0.0,0.0,0.0,0.0,0.0,0.0,0.0,0.0,0.0,0.0,0.0,0.0,0.0,0.0,0.0,0.0,0.0,0.0,0.0,0.0,0.0,0.0,0.0,0.0,0.0,0.0,0.0,0.0,0.0,0.0,0.0,1.3709,1.4604,1.5075,1.5278,1.541,1.5841,1.609,1.5597,1.4645,1.2287,0.0,0.0,0.0,0.0,0.0,0.0,0.0,0.0,0.0,0.0,0.0,0.0,0.0,0.0,0.0,0.0,0.0,0.0,0.0,0.0,0.0,0.0,0.0,0.0,0.0,0.0,0.0,0.0,0.0,0.0,0.0,0.0,0.0,0.0,0.0,0.0,0.0,0.0,0.0,0.0,0.0,0.0,0.0,0.0,0.0,0.0,0.0,0.0,0.0,0.0,0.0,0.0,0.0,0.0,0.0,0.0,0.0,0.0,0.0,0.0,0.0,0.0,0.0,0.0,0.0,0.0,0.0,0.0,0.0,0.0,0.0,0.0,0.0,0.0,0.0,0.0,0.0,0.0,0.0,0.0,0.0,0.0,0.0,0.0,0.0,0.0,0.0,0.0,0.0,0.0,0.0,0.0,0.0,0.0,0.0,0.0,0.0,0.0,0.0,0.0,0.0,0.0,1.4309,1.459,1.5056,1.5242,1.5202,1.5228,1.586,1.5906,1.5202,0.6329,0.0,0.0,0.0,0.0,0.0,0.0,0.0,0.0,0.0,0.0,0.0,0.0,0.0,0.0,0.0,0.0,0.0,0.0,0.0,0.0,0.0,0.0,0.0,0.0,0.0,0.0,0.0,0.0,0.0,0.0,0.0,0.0,0.0,0.0,0.0,0.0,0.0,0.0,0.0,0.0,0.0,0.0,0.0,0.0,0.0,0.0,0.0,0.0,0.0,0.0,0.0,0.0,0.0,0.0,0.0,0.0,0.0,0.0,0.0,0.0,0.0,0.0,0.0,0.0,0.0,0.0,0.0,0.0,0.0,0.0,0.0,0.0,0.0,0.0,0.0,0.0,0.0,0.0,0.0,0.0,0.0,0.0,0.0,0.0,0.0,0.0,0.0,0.0,0.0,0.0,0.0,0.0,0.0,0.0,0.0,0.0,0.0,0.0,0.0,0.0,0.0,0.0,1.4014,1.4448,1.509,1.5113,1.5432,1.5822,1.5953,1.5399,1.3588,0.0,0.0,0.0,0.0,0.0,0.0,0.0,0.0,0.0,0.0,0.0,0.0,0.0,0.0,0.0,0.0,0.0,0.0,0.0,0.0,0.0,0.0,0.0,0.0,0.0,0.0,0.0,0.0,0.0,0.0,0.0,0.0,0.0,0.0,0.0,0.0,0.0,0.0,0.0,0.0,0.0,0.0,0.0,0.0,0.0,0.0,0.0,0.0,0.0,0.0,0.0,0.0,0.0,0.0,0.0,0.0,0.0,0.0,0.0,0.0,0.0,0.0,0.0,0.0,0.0,0.0,0.0,0.0,0.0,0.0,0.0,0.0,0.0,0.0,0.0,0.0,0.0,0.0,0.0,0.0,0.0,0.0,0.0,0.0,0.0,0.0,0.0,0.0,0.0,0.0,0.0,0.0,0.0,0.0,0.0,0.0,0.0,0.0,0.0,0.0,0.0,0.0,1.3425,1.3928,1.4523,1.5097,1.5279,1.5391,1.5753,1.5931,1.5209,1.3187,0.0,0.0,0.0,0.0,0.0,0.0,0.0,0.0,0.0,0.0,0.0,0.0,0.0,0.0,0.0,0.0,0.0,0.0,0.0,0.0,0.0,0.0,0.0,0.0,0.0,0.0,0.0,0.0,0.0,0.0,0.0,0.0,0.0,0.0,0.0,0.0,0.0,0.0,0.0,0.0,0.0,0.0,0.0,0.0,0.0,0.0,0.0,0.0,0.0,0.0,0.0,0.0,0.0,0.0,0.0,0.0,0.0,0.0,0.0,0.0,0.0,0.0,0.0,0.0,0.0,0.0,0.0,0.0,0.0,0.0,0.0,0.0,0.0,0.0,0.0,0.0,0.0,0.0,0.0,0.0,0.0,0.0,0.0,0.0,0.0,0.0,0.0,0.0,0.0,0.0,0.0,0.0,0.0,0.0,0.0,0.0,0.0,0.0,0.0,0.0,0.0,0.0,1.3418,1.3847,1.4592,1.5083,1.5276,1.5182,1.5227,1.5768,1.5511,0.0,0.0,0.0,0.0,0.0,0.0,0.0,0.0,0.0,0.0,0.0,0.0,0.0,0.0,0.0,0.0,0.0,0.0,0.0,0.0,0.0,0.0,0.0,0.0,0.0,0.0,0.0,0.0,0.0,0.0,0.0,0.0,0.0,0.0,0.0,0.0,0.0,0.0,0.0,0.0,0.0,0.0,0.0,0.0,0.0,0.0,0.0,0.0,0.0,0.0,0.0,0.0,0.0,0.0,0.0,0.0,0.0,0.0,0.0,0.0,0.0,0.0,0.0,0.0,0.0,0.0,0.0,0.0,0.0,0.0,0.0,0.0,0.0,0.0,0.0,0.0,0.0,0.0,0.0,0.0,0.0,0.0,0.0,0.0,0.0,0.0,0.0,0.0,0.0,0.0,0.0,0.0,0.0,0.0,0.0,0.0,0.0,0.0,0.0,0.0,0.0,0.0,0.0,1.3389,1.3907,1.4592,1.5083,1.5181,1.5459,1.5806,1.5575,1.5132,1.4415,0.0,0.0,0.0,0.0,0.0,0.0,0.0,0.0,0.0,0.0,0.0,0.0,0.0,0.0,0.0,0.0,0.0,0.0,0.0,0.0,0.0,0.0,0.0,0.0,0.0,0.0,0.0,0.0,0.0,0.0,0.0,0.0,0.0,0.0,0.0,0.0,0.0,0.0,0.0,0.0,0.0,0.0,0.0,0.0,0.0,0.0,0.0,0.0,0.0,0.0,0.0,0.0,0.0,0.0,0.0,0.0,0.0,0.0,0.0,0.0,0.0,0.0,0.0,0.0,0.0,0.0,0.0,0.0,0.0,0.0,0.0,0.0,0.0,0.0,0.0,0.0,0.0,0.0,0.0,0.0,0.0,0.0,0.0,0.0,0.0,0.0,0.0,0.0,0.0,0.0,0.0,0.0,0.0,0.0,0.0,0.0,0.0,0.0,0.0,0.0,0.0,0.0,1.3356,1.3968,1.462,1.5174,1.5181,1.5411,1.6004,1.5494,1.4875,1.4023,0.0,0.0,0.0,0.0,0.0,0.0,0.0,0.0,0.0,0.0,0.0,0.0,0.0,0.0,0.0,0.0,0.0,0.0,0.0,0.0,0.0,0.0,0.0,0.0,0.0,0.0,0.0,0.0,0.0,0.0,0.0,0.0,0.0,0.0,0.0,0.0,0.0,0.0,0.0,0.0,0.0,0.0,0.0,0.0,0.0,0.0,0.0,0.0,0.0,0.0,0.0,0.0,0.0,0.0,0.0,0.0,0.0,0.0,0.0,0.0,0.0,0.0,0.0,0.0,0.0,0.0,0.0,0.0,0.0,0.0,0.0,0.0,0.0,0.0,0.0,0.0,0.0,0.0,0.0,0.0,0.0,0.0,0.0,0.0,0.0,0.0,0.0,0.0,0.0,0.0,0.0,0.0,0.0,0.0,0.0,0.0,0.0,0.0,0.0,0.0,0.0,0.0,1.35,1.4041,1.4668,1.5114,1.5248,1.5425,1.6004,1.5485,1.4886,1.3651,0.0,0.0,0.0,0.0,0.0,0.0,0.0,0.0,0.0,0.0,0.0,0.0,0.0,0.0,0.0,0.0,0.0,0.0,0.0,0.0,0.0,0.0,0.0,0.0,0.0,0.0,0.0,0.0,0.0,0.0,0.0,0.0,0.0,0.0,0.0,0.0,0.0,0.0,0.0,0.0,0.0,0.0,0.0,0.0,0.0,0.0,0.0,0.0,0.0,0.0,0.0,0.0,0.0,0.0,0.0,0.0,0.0,0.0,0.0,0.0,1.4587,0.0,0.0,0.0,0.0,0.0,0.0,0.0,0.0,0.0,0.0,0.0,0.0,0.0,0.0,0.0,0.0,0.0,0.0,0.0,0.0,0.0,0.0,0.0,0.0,0.0,0.0,0.0,0.0,0.0,0.0,0.0,0.0,0.0,0.0,0.0,0.0,0.0,0.0,0.0,0.0,0.0,1.4028,1.4565,1.4972,1.5128,1.5147,1.5341,1.5418,1.5772,1.5626,1.4936,1.414,0.0,0.0,0.0,0.0,0.0,0.0,0.0,0.0,0.0,0.0,0.0,0.0,0.0,0.0,0.0,0.0,0.0,0.0,0.0,0.0,0.0,0.0,0.0,0.0,0.0,0.0,0.0,0.0,0.0,0.0,0.0,0.0,0.0,0.0,0.0,0.0,0.0,0.0,0.0,0.0,0.0,0.0,0.0,0.0,0.0,0.0,0.0,0.0,0.0,0.0,0.0,0.0,0.0,0.0,0.0,0.0,0.0,0.0,0.0,0.0,1.4914,0.0,0.0,0.0,0.0,0.0,0.0,0.0,0.0,0.0,0.0,0.0,0.0,0.0,0.0,0.0,0.0,0.0,0.0,0.0,0.0,0.0,0.0,0.0,0.0,0.0,0.0,0.0,0.0,0.0,0.0,0.0,0.0,0.0,0.0,0.0,0.0,0.0,0.0,0.0,0.0,1.4641,1.4882,1.5111,1.5526,1.5547,1.5696,1.5832,1.6175,1.6008,1.5702,1.4953,0.0,0.0,0.0,0.0,0.0,0.0,0.0,0.0,0.0,0.0,0.0,0.0,0.0,0.0,0.0,0.0,0.0,0.0,0.0,0.0,0.0,0.0,0.0,0.0,0.0,0.0,0.0,0.0,0.0,0.0,0.0,0.0,0.0,0.0,0.0,0.0,0.0,0.0,0.0,0.0,0.0,0.0,0.0,0.0,0.0,0.0,0.0,0.0,0.0,0.0,0.0,0.0,0.0,0.0,1.9033,1.8587,1.5957,1.4841,1.4733,1.4543,1.4204,1.3797,0.0,0.0,0.0,0.0,0.0,0.0,0.0,0.0,0.0,0.0,0.0,0.0,0.0,0.0,0.0,0.0,0.0,0.0,0.0,0.0,0.0,0.0,0.0,0.0,0.0,1.4916,1.4801,0.0,0.0,0.0,0.0,0.0,0.0,0.0,0.0,0.0,0.0,0.0,0.0,1.509,1.4929,1.5204,1.6007,1.6216,1.6314,1.6488,1.6627,1.6446,1.6335,1.6292,1.5526,0.0,0.0,0.0,0.0,0.0,0.0,0.0,0.0,0.0,0.0,0.0,0.0,0.0,0.0,0.0,0.0,0.0,0.0,0.0,0.0,0.0,0.0,0.0,0.0,0.0,0.0,0.0,0.0,0.0,0.0,0.0,0.0,2.6333,2.6667,0.0,0.0,0.0,0.0,0.0,0.0,0.0,0.0,0.0,0.0,0.0,0.0,0.0,0.0,2.8751,2.8934,2.8017,2.6044,2.362,2.131,1.9173,1.6707,1.5581,1.5689,1.5913,0.0,1.438,1.4163,0.0,0.0,0.0,0.0,0.0,0.0,0.0,0.0,0.0,0.0,0.0,0.0,0.0,0.0,0.0,0.0,0.0,0.0,0.0,0.0,0.0,0.0,1.4841,1.4923,1.5153,1.5276,0.0,1.4882,1.478,1.4645,1.434,0.0,0.0,0.0,0.0,0.0,0.0,0.0,1.5101,1.5458,1.5635,1.581,1.6364,1.6869,1.6933,1.7031,1.6961,1.6864,1.6707,1.6314,1.5671,1.5361,0.0,0.0,0.0,0.0,0.0,0.0,0.0,0.0,0.0,0.0,0.0,0.0,0.0,0.0,0.0,0.0,0.0,0.0,0.0,0.0,0.0,0.0,0.0,0.0,0.0,0.0,0.0,0.0,0.0,2.4474,2.5969,2.6945,2.7896,2.8377,0.0,0.0,0.0,0.0,0.0,0.0,0.0,0.0,0.0,2.9339,2.9633,2.978,2.978,3.0528,3.061,2.9845,2.7786,2.5282,2.2652,2.0359,1.8298,1.6748,1.6965,1.6761,1.6218,1.5499,1.5181,1.5092,0.0,0.0,0.0,0.0,0.0,1.4156,1.4177,1.4183,0.0,0.0,0.0,0.0,0.0,0.0,0.0,0.0,0.0,0.0,0.0,0.0,0.0,1.5913,1.6198,1.6415,1.6435,1.6327,1.6029,0.0,1.5153,1.5045,1.5156,0.0,0.0,0.0,0.0,1.5549,1.5662,1.5744,1.5974,1.6524,1.6701,1.6714,1.6886,1.6962,1.6907,1.7101,1.694,1.6501,1.5973,1.5705,1.5316,0.0,0.0,0.0,0.0,0.0,0.0,0.0,0.0,0.0,0.0,0.0,0.0,0.0,0.0,0.0,0.0,0.0,0.0,0.0,0.0,0.0,0.0,0.0,0.0,0.0,0.0,0.0,0.0,2.4082,2.553,2.6555,2.8261,2.9138,0.0,0.0,0.0,0.0,0.0,0.0,3.0327,3.0515,3.0662,3.0808,3.1102,3.1303,3.137,3.2091,3.2679,3.312,3.1006,2.8824,2.6839,2.3741,2.1059,1.8676,1.7971,1.784,1.7806,1.6822,1.632,1.6103,1.5615,1.5425,1.5384,1.5038,1.5031,1.5201,1.5242,1.5303,1.5391,1.5533,0.0,1.5404,1.5072,0.0,0.0,0.0,0.0,1.554,1.5845,1.6144,1.6469,1.6883,1.7175,1.7392,1.7507,1.7446,1.7066,0.0,1.5893,1.5852,1.5669,0.0,0.0,0.0,0.0,1.6098,1.6341,1.6286,1.6442,1.708,1.691,1.6842,1.7073,1.7093,1.7032,1.7085,1.6975,1.6721,1.6096,1.6015,1.5555,1.4525,0.0,0.0,0.0,0.0,0.0,0.0,0.0,0.0,0.0,0.0,0.0,0.0,0.0,0.0,0.0,0.0,0.0,0.0,0.0,0.0,0.0,0.0,0.0,0.0,0.0,0.0,0.0,0.0,0.0,2.4861,2.813,0.0,0.0,0.0,0.0,3.0274,3.0782,3.1236,3.157,3.2104,3.2666,3.3213,3.3547,3.3841,3.4122,3.4442,3.4616,3.4656,3.2422,3.1034,3.0597,2.5386,2.2616,2.2243,1.9549,1.8355,1.8423,1.767,1.7433,1.7487,1.689,1.6659,1.6605,1.6164,1.6185,1.6395,1.6123,1.6212,1.6469,1.6619,1.6483,1.6171,1.573,1.5689,0.0,0.0,1.6015,1.632,1.6619,1.6917,1.7216,1.7528,1.7717,1.7826,1.7846,1.7826,1.7561,0.0,1.6259,1.5981,1.5689,0.0,1.5421,1.5628,1.639,1.6786,1.6686,1.6958,1.7249,1.7582,1.7473,1.7378,1.7399,1.7399,1.7331,1.7182,1.7161,1.7026,1.6714,1.6435,1.6205,1.6029,1.5459,0.0,0.0,0.0,0.0,0.0,0.0,0.0,0.0,0.0,0.0,0.0,0.0,0.0,0.0,0.0,0.0,0.0,0.0,0.0,0.0,0.0,0.0,0.0,0.0,0.0,0.0,0.0,0.0,2.8433,3.0687,0.0,0.0,3.1463,3.1637,3.2024,3.2238,3.2652,3.3334,3.3748,3.4148,3.4549,3.4857,3.5057,3.5164,3.5458,3.5605,3.5605,3.4898,3.3684,3.1598,2.9932,2.6896,2.303,2.1976,2.0504,1.8816,1.864,1.8423,1.8179,1.7772,1.7616,1.7582,1.7324,1.7297,1.7385,1.7378,1.7378,1.7358,1.7229,1.7046,1.6829,1.6578,1.6469,1.6469,1.6659,1.6937,1.7243,1.7534,1.7826,1.807,1.8199,1.8335,1.8443,1.8443,1.8518,1.8498,1.8179,1.7555,1.706,1.6951,1.6768,1.6707,1.6904,1.7202,1.7387,1.7561,1.7616,1.7704,1.7914,1.7792,1.7704,1.7704,1.7623,1.7514,1.7392,1.7263,1.7114,1.6937,1.6714,1.6442,1.6123,1.5716,1.5017,0.0,0.0,0.0,0.0,0.0,0.0,0.0,0.0,0.0,0.0,0.0,0.0,0.0,0.0,0.0,0.0,0.0,0.0,0.0,0.0,0.0,0.0,0.0,0.0,0.0,0.0,2.4069,2.862,3.075,3.232,3.2948,3.3146,3.3307,3.3694,3.4002,3.4469,3.5164,3.5485,3.5778,3.6072,3.6273,3.6366,3.6366,3.658,3.666,3.666,3.6874,3.5806,3.3974,3.294,3.0235,2.6377,2.4261,2.229,2.0394,1.9671,1.9128,1.8884,1.8694,1.8586,1.8531,1.8375,1.8355,1.8409,1.8511,1.8409,1.8199,1.7948,1.7772,1.7616,1.7473,1.7392,1.7405,1.765,1.7894,1.8158,1.8409,1.8599,1.8762,1.8762,1.883,1.8905,1.8905,1.8993,1.9061,1.9061,1.8552,1.807,1.7968,1.7772,1.7717,1.7914,1.786,1.7935,1.8342,1.8267,1.8199,1.8301,1.8179,1.8057,1.7948,1.7914,1.7792,1.7514,1.5999,1.5599,1.691,1.6768,1.6551,1.6447,1.4183,1.3406,1.4369,0.0,0.0,0.0,0.0,0.0,0.0,0.0,0.0,0.0,0.0,0.0,0.0,0.0,0.0,0.0,0.0,0.0,0.0,0.0,0.0,0.0,0.0,0.0,1.88,1.9589,2.1822,2.5073,2.8231,3.1231,3.4209,3.495,3.5284,3.5297,3.6072,3.6687,3.6967,3.7235,3.7529,3.7809,3.7823,3.7823,3.7823,3.7823,3.7809,3.7809,3.7809,3.7809,3.7796,3.4503,3.2999,3.2534,2.6368,2.3667,2.3381,2.0729,1.9522,1.9664,1.9678,1.959,1.9434,1.9271,1.9305,1.9434,1.9434,1.9257,1.8993,1.883,1.8674,1.8531,1.8389,1.8443,1.8586,1.8728,1.8884,1.904,1.9169,1.9217,1.9217,1.9203,1.9203,1.9203,1.9203,1.9203,1.9203,1.9217,1.9115,1.8918,1.8599,1.8552,1.8552,1.8552,1.8552,0.0,1.8952,1.8871,1.8782,1.8782,1.864,1.8443,1.8145,1.828,1.79,1.7534,1.3385,1.2958,1.6872,1.6605,1.6537,1.7052,1.0925,0.9856,1.4265,0.0,0.0,0.0,0.0,0.0,0.0,0.0,0.0,0.0,0.0,0.0,0.0,0.0,0.0,0.0,0.0,0.0,0.0,0.0,0.0,0.0,0.0,2.545,2.2652,2.5282,2.7951,2.9414,3.3001,3.5728,3.6821,3.7008,3.7195,3.7382,3.7448,3.7595,3.7889,3.7782,3.7823,3.8116,3.8143,3.8143,3.8143,3.8143,3.8036,3.7809,3.7809,3.7809,3.7809,3.6797,3.5131,3.3078,3.1371,2.7917,2.3808,2.3252,2.1767,1.9678,1.9888,1.9963,1.9888,1.9746,1.9644,1.959,1.959,1.9535,1.9447,1.9291,1.9149,1.9006,1.8972,1.8918,1.8905,1.904,1.9183,1.9325,1.9359,1.9447,1.9501,1.9393,1.9359,1.9359,1.9359,1.9359,1.9393,1.9522,1.9501,1.9379,1.9081,1.9027,1.9027,1.9027,1.9027,0.0,1.9128,1.9115,1.9081,1.9081,1.904,1.8938,1.8762,1.8498,1.6759,1.3414,1.4338,1.5522,1.6612,1.649,1.6543,1.6971,0.7181,0.6255,0.0,0.0,0.0,0.0,0.0,0.0,0.0,0.0,0.0,0.0,0.0,0.0,0.0,0.0,0.0,0.0,0.0,0.0,0.0,0.0,0.0,0.0,3.0831,2.967,2.7333,2.8069,2.9785,3.2044,3.4356,3.6523,3.8114,3.8504,3.8624,3.8798,3.8878,3.9012,3.9172,3.8905,3.8878,3.9172,3.8945,3.8878,3.8985,3.8878,3.8731,3.8544,3.8437,3.8357,3.8357,3.8103,3.7071,0.0,3.3931,3.0374,2.5761,2.4828,2.2585,0.0,0.0,0.0,0.0,0.0,1.9875,1.9752,1.9678,1.9664,1.9644,1.9556,1.9468,1.94,1.94,1.9345,1.9291,1.9379,1.9468,1.9522,1.9522,1.959,1.9644,1.9556,1.9522,1.9522,1.9522,1.9522,1.9556,1.9644,1.9664,0.0,1.9434,1.94,1.94,1.94,1.94,1.94,1.94,1.94,1.9359,1.9305,1.9291,1.9183,1.8918,1.862,0.0,0.0,0.0,1.6346,1.6115,1.1841,0.0,0.0,0.0,0.2717,0.8233,0.0,0.0,0.0,-0.0,-0.0,0.0,0.0,0.0,0.0,0.0,0.0,0.0,0.0,0.0,0.0,0.0,0.0,0.0,0.0,0.0,0.0,3.3814,3.402,3.2278,3.0008,2.9852,3.343,3.4166,3.5587,3.9003,3.9559,3.9706,3.9746,4.0187,4.0481,4.0508,0.0,0.0,0.0,0.0,3.9813,4.0067,3.9813,3.9666,3.9599,3.9372,3.9225,3.9199,3.8624,3.837,3.8114,3.5263,3.187,2.8399,2.6177,2.2984,1.98,2.0187,2.0329,2.0315,2.0173,2.0031,1.9875,1.9752,0.0,0.0,1.9712,1.9698,1.9678,1.9678,1.9678,1.9664,1.9664,1.9664,1.9664,1.9664,1.9664,1.9664,1.9664,1.9664,1.9664,1.9664,1.9664,1.9664,1.9664,1.9664,1.9664,1.9664,1.9664,1.9664,1.9664,1.9664,1.9664,1.9664,1.9664,1.961,1.9468,0.0,0.0,1.885,1.8456,1.8121,1.7305,1.6836,1.5983,1.4776,0.5883,0.0604,-0.0,-0.0,-0.0,-0.0,-0.0,-0.0,-0.0,-0.0,-0.0,0.0,0.0,0.0,0.0,0.0,0.0,0.0,0.0,0.0,0.0,0.0,0.0,0.0,0.0,0.0,3.4496,3.5471,3.6254,3.6905,3.6755,3.6124,3.4567,3.684,3.9083,4.0174,4.0254,4.0401,4.0655,4.0548,4.0588,4.0802,4.0548,0.0,4.0802,4.0481,4.0334,4.0401,4.0334,4.008,3.9599,0.0,0.0,3.9493,3.9159,3.8972,3.8972,3.8191,3.4687,2.9097,2.8859,2.5561,2.0363,2.0349,2.0329,2.0329,2.0295,2.0187,2.0051,2.0031,2.001,2.001,2.001,1.9929,1.9841,1.9841,1.9752,0.0,1.9664,1.9664,1.9664,1.9664,1.9664,1.9664,1.9664,1.9664,1.9664,1.9664,1.9664,1.9664,1.9664,1.9664,1.9664,1.9664,1.9664,1.9664,1.9664,1.9664,1.9664,1.9664,1.9664,1.9644,1.9624,1.961,1.9488,1.9149,1.8884,1.8477,1.786,1.6969,1.4364,0.9389,0.7331,0.446,-0.0,-0.0,-0.0,-0.0,-0.0,-0.0,-0.0,-0.0,-0.0,0.0,0.0,0.0,0.0,0.0,0.0,0.0,0.0,0.0,0.0,0.0,3.2572,3.3293,0.0,3.5351,3.654,3.7489,3.8357,3.9239,3.9893,3.9586,3.7695,3.9248,4.0802,4.1096,4.139,4.1644,4.179,4.1644,4.1644,4.179,4.139,4.1269,4.1563,4.1122,4.0989,4.1136,4.0989,4.0762,4.0468,4.0468,4.0401,4.0254,3.9813,3.9599,3.9599,3.9452,3.5642,2.9271,2.6251,2.3215,2.0627,2.0329,2.0349,2.0526,2.0383,2.0275,2.0207,2.0139,2.0098,2.0098,2.0098,2.0051,1.9976,1.9888,1.9766,1.9644,1.9569,1.9488,1.9434,1.9434,1.9488,1.9535,1.9535,1.961,1.9664,1.9664,1.9664,1.9664,1.9664,1.9664,1.9664,1.9664,1.9664,1.9664,1.9664,1.9664,1.9664,1.9664,1.9664,1.9664,1.9664,1.9664,1.9576,1.9345,1.8905,1.8389,1.7792,1.7351,1.5524,1.24,0.6856,0.2684,-0.0,-0.0,-0.0,-0.0,-0.0,-0.0,-0.0,-0.0,-0.0,0.0,0.0,0.0,0.0,0.0,0.0,0.0,3.2799,3.3173,3.3293,3.4028,3.4883,3.5645,3.6513,3.7448,3.8517,3.9386,4.0107,4.0655,4.1269,4.1523,4.1056,4.135,4.171,4.2004,4.2512,4.2806,4.2739,4.2806,4.2806,4.2739,4.2258,4.2071,4.2298,4.1737,4.1523,4.179,4.1563,4.1416,4.1336,4.1163,4.1056,4.0976,4.0401,4.0107,4.0094,3.8288,3.4746,2.9408,2.2697,2.0282,2.0736,2.0349,2.0451,2.0824,2.0492,2.0329,2.0275,2.0207,2.0173,2.0153,2.0173,2.0173,2.0119,1.9997,1.982,1.9644,1.9535,1.9379,1.9257,1.9325,1.9393,1.9481,1.9501,1.959,1.9664,1.9664,1.9664,1.9664,1.9664,1.9664,1.9664,1.9664,1.9664,1.9664,1.9664,1.9664,1.9664,1.9664,1.9664,1.9664,1.9664,1.9664,1.959,1.9447,1.8905,1.8355,1.786,1.7465,1.7317,1.719,0.7255,0.1059,-0.0,-0.0,-0.0,-0.0,-0.0,-0.0,-0.0,-0.0,-0.0,3.5257,3.3748,3.2759,3.3467,3.328,3.332,0.0,3.5231,3.5431,3.5952,3.6767,3.7489,3.7863,3.8651,3.9452,4.0107,4.0735,4.1269,4.1603,4.2365,4.2873,4.2806,4.2619,4.2619,4.2913,4.3233,4.3314,4.306,4.3273,4.3314,4.306,4.2739,4.2592,4.2619,4.2044,4.175,4.179,4.175,4.1603,4.1336,4.1563,4.1563,4.1269,4.0695,4.0441,4.0159,3.37,3.0687,2.9647,2.2997,2.0471,2.0756,2.056,2.077,2.1109,2.0682,2.0349,2.0153,2.0404,2.0417,2.0329,2.0451,2.0397,2.0295,2.0275,1.9997,1.9678,1.9786,1.9624,1.9468,1.9732,1.9712,1.9664,1.98,1.9732,1.9664,1.9664,1.9664,1.9664,1.9664,1.9664,1.9664,1.9664,1.9664,1.9664,1.9664,1.9664,1.9664,1.9664,1.9664,1.9664,1.9664,1.9664,1.959,1.9447,1.9006,1.8654,1.8443,1.8179,1.7914,1.7445,1.1195,0.524,-0.0,-0.0,-0.0,-0.0,-0.0,-0.0,-0.0,-0.0,-0.0,3.5845,3.503,3.4643,3.4857,3.5485,3.6246,3.6981,3.7702,3.825,3.8504,3.9386,4.0214,4.0508,4.0869,4.131,0.0,4.2071,4.2258,4.2726,4.3273,4.3567,4.338,4.3714,4.3928,4.3888,4.4142,4.4182,4.3888,4.3821,4.3674,4.3354,4.306,4.2846,4.2659,4.2405,4.2298,4.2298,4.2298,4.2218,4.2111,4.2231,4.2151,4.1857,4.1416,4.1056,4.0451,3.5309,3.2002,3.0143,2.5173,2.2397,2.0892,2.0736,2.0845,2.1034,2.0682,2.0526,2.0492,2.0526,2.0505,2.0471,2.0526,2.0505,2.0438,2.0349,2.0064,1.9786,1.9752,1.9535,1.9325,1.9447,1.9576,1.9678,1.9732,1.9841,1.9922,1.9922,1.9922,1.9922,1.9922,1.9922,1.9922,1.9922,1.9922,1.9888,1.98,1.9712,1.9664,1.9664,1.9664,1.9664,1.9664,1.9664,1.9556,1.9325,1.9128,1.8884,1.8552,1.8335,1.8145,1.7982,1.5319,0.9466,0.022,-0.0,-0.0,-0.0,-0.0,-0.0,-0.0,-0.0,-0.0,3.6139,3.5965,3.6126,3.6299,3.7569,3.8838,3.9172,4.008,4.0909,4.0976,4.175,4.2472,4.2659,4.2659,4.2766,4.338,4.3207,4.3247,4.3821,4.4115,4.4115,4.3821,4.4289,4.4623,4.4556,4.477,4.473,4.4329,4.4182,4.3995,4.3674,4.338,4.3127,4.2913,4.2806,4.2766,4.2766,4.2766,4.2766,4.2766,4.2699,4.2552,4.2325,4.1964,4.1456,4.0637,3.7225,3.3693,3.0434,2.7146,2.3846,2.1109,2.0858,2.0912,2.1089,2.0736,2.0627,2.0648,2.0614,2.056,2.0485,2.0526,2.0539,2.0526,2.0417,2.0153,1.9854,1.98,1.9535,1.9291,1.9359,1.9522,1.9678,1.9766,1.9908,2.0051,2.0085,2.0098,2.0098,2.0098,2.0098,2.0098,2.0098,2.0098,2.0064,1.9963,1.982,1.9712,1.9664,1.9664,1.9664,1.9664,1.9664,1.9576,1.9345,1.9257,1.9061,1.8742,1.8552,1.8389,1.8267,1.8023,1.3827,0.5112,0.1763,-0.0,-0.0,-0.0,-0.0,-0.0,-0.0,-0.0,3.6393,3.6286,3.6406,3.7823,3.9092,4.0281,4.1416,4.2365,4.3086,4.3354,4.3714,4.3928,4.3928,4.3714,4.3674,4.4289,4.4142,4.4155,4.477,4.485,4.473,4.4436,4.4182,4.4262,0.0,4.4877,4.4623,4.4075,4.4262,4.4289,4.4008,4.3674,4.3527,4.3487,4.3233,4.31,4.31,4.31,4.31,4.3086,4.2806,4.2659,4.2619,4.2044,4.1456,4.0677,3.7629,3.4444,3.0622,2.7405,2.4095,2.1387,2.0946,2.1034,2.1367,2.0933,2.058,2.0383,2.0668,2.058,2.0363,2.0485,2.0539,2.0539,2.0539,2.0227,1.9908,2.0051,1.9766,1.9481,1.9786,1.9752,1.9732,2.001,1.9976,1.9922,2.0064,2.0098,2.0098,2.0098,2.0098,2.0098,2.0098,2.0098,2.0098,2.0098,1.9963,1.982,1.9678,1.9664,1.9664,1.9664,1.9664,1.9664,1.9644,1.9379,1.9203,1.9183,1.8905,1.8674,1.8531,1.8403,1.7841,1.7291,0.5831,-0.0,-0.0,-0.0,-0.0,-0.0,-0.0,-0.0,3.6874,3.7595,3.8731,4.0,4.1203,4.2325,4.3314,4.4075,4.4583,4.469,4.4476,4.4289,4.4289,4.3861,4.3594,4.3781,4.3928,4.4075,4.4262,4.4476,4.4329,4.3634,4.4155,0.0,0.0,0.0,0.0,4.4583,4.4663,4.4516,4.4035,4.3888,4.3741,4.3527,4.342,4.338,4.338,4.338,4.3273,4.31,4.2592,4.2365,4.2365,4.1964,4.1563,4.1189,4.003,3.6393,3.0705,2.9908,2.6294,2.1279,2.1231,2.1299,2.1421,2.1265,2.1089,2.0892,2.0804,2.077,2.079,2.0824,2.0845,2.0845,2.0845,2.0526,2.0187,2.0241,1.9922,1.961,1.9712,1.9841,1.9976,2.0085,2.0207,2.0329,2.0383,2.0397,2.0397,2.0397,2.0397,2.0397,2.0397,2.0397,2.0329,2.0139,1.9976,1.982,1.9678,1.9664,1.9664,1.9664,1.9664,1.9624,1.9522,1.9325,1.9169,1.9061,1.8776,1.8586,1.8531,1.8301,1.7967,1.7994,1.0104,0.3992,-0.0,-0.0,-0.0,-0.0,-0.0,-0.0,3.7635,3.8865,4.0361,4.1644,4.2873,4.3901,4.4583,4.5131,4.5424,4.5211,4.469,4.4182,4.3861,4.3233,4.2833,4.3167,4.338,4.3714,4.4262,4.4396,4.4222,4.3634,4.3968,4.4035,0.0,0.0,0.0,4.469,4.473,4.4556,4.4182,4.4142,4.4008,4.3714,4.3714,4.3714,4.3714,4.3714,4.3487,4.31,4.2619,4.2325,4.2218,4.2031,4.1817,4.167,4.167,3.7793,3.1186,3.1554,2.7592,2.1462,2.1441,2.1441,2.1441,2.1387,2.1333,2.1265,2.1021,2.0967,2.1001,2.1001,2.1001,2.1001,2.1001,2.0716,2.0397,2.0397,2.0119,1.98,1.9752,1.9922,2.0098,2.0098,2.0295,2.0471,2.0526,2.0539,2.0539,2.0539,2.0539,2.0539,2.0539,2.0539,2.0438,2.0153,2.001,1.9888,1.9678,1.9664,1.9664,1.9664,1.9664,1.9624,1.9522,1.9325,1.9169,1.9081,1.8776,1.8586,1.8531,1.8321,1.8199,1.8001,1.4151,0.8196,-0.0,-0.0,-0.0,-0.0,-0.0,-0.0,3.8718,4.0134,4.1376,4.2846,4.4075,4.4984,4.5277,4.5531,4.5531,4.4957,4.4302,4.3567,4.2659,0.0,4.1563,4.2405,4.2659,4.3247,4.4663,4.4623,4.4436,0.0,0.0,0.0,0.0,0.0,0.0,4.4396,0.0,4.4156,4.3876,4.3889,4.4023,4.3744,4.3995,4.4008,4.4008,4.3718,4.3386,4.2841,4.2266,4.1975,4.1685,4.1711,4.1711,4.1711,4.1711,3.8116,3.2169,3.1768,2.7934,2.2126,2.1564,2.1455,2.1441,2.1299,2.1333,2.1421,2.1285,2.1143,2.1021,2.1021,2.1021,2.1021,2.1021,2.079,2.056,2.0539,2.0329,2.0064,1.9922,1.9997,2.0119,2.0119,2.0227,2.0383,2.0505,2.0539,2.0539,2.0539,2.0539,2.0539,2.0539,2.0539,2.0438,2.0153,2.0098,1.9997,1.9698,1.9664,1.9664,1.9664,1.9664,1.9664,1.9664,1.9379,1.9203,1.9203,1.8918,1.8694,1.8552,1.843,1.8335,1.7768,1.7982,1.1942,-0.0,-0.0,-0.0,-0.0,-0.0,-0.0,4.0401,4.1817,4.3167,4.4436,4.4984,4.5277,4.5571,4.5344,4.4943,4.4329,4.2873,4.1416,4.0548,4.0548,0.0,4.0989,4.2512,0.0,4.4476,4.4663,0.0,4.4476,0.0,4.4302,4.4035,4.4115,0.0,0.0,4.2,3.9174,3.6236,3.8681,4.0187,3.9944,4.2648,4.4008,4.4008,4.0883,3.9263,3.9093,3.6013,3.4487,3.4421,3.4629,3.4596,3.4443,3.4793,3.3866,3.1999,2.94,2.7372,2.5606,2.2872,2.1706,2.1618,2.1686,2.1597,2.1455,2.153,2.1462,2.1333,2.1333,2.1333,2.1299,2.1197,2.0946,2.0682,2.0573,2.0329,2.0085,2.0051,2.0153,2.0275,2.0275,2.0383,2.0505,2.0539,2.0539,2.0539,2.0539,2.0539,2.0539,2.0539,2.0539,2.0438,2.0153,2.0098,1.9997,1.9698,1.9664,1.9664,1.9664,1.9664,1.9664,1.9664,1.9379,1.9203,1.9203,1.8918,1.8742,1.8708,1.8498,1.6241,1.178,1.57,1.191,-0.0,-0.0,-0.0,-0.0,-0.0,-0.0,4.1924,4.3193,4.4329,4.5131,4.5424,4.5384,4.4877,4.4516,4.3861,4.2365,4.0949,3.9599,3.8464,3.8838,3.9452,0.0,0.0,0.0,4.4329,4.469,4.4877,0.0,4.4837,4.473,4.4409,4.4543,4.418,0.0,4.0389,3.8325,3.6084,3.629,3.6386,3.6154,3.8284,3.9132,3.9132,3.683,3.5505,3.5416,3.3028,3.2069,3.1988,3.2201,3.2039,3.2009,0.0,3.1473,2.9952,2.8105,2.6257,2.4923,2.2701,2.1794,2.1672,2.1686,2.1584,2.1455,2.155,2.1509,2.1441,2.1441,2.1387,2.1319,2.1231,2.1055,2.0858,2.077,2.058,2.0383,2.0315,2.0363,2.0397,2.0349,2.0438,2.0539,2.0539,2.0539,2.0539,2.0539,2.0539,2.0539,2.0539,2.0539,2.0438,2.0153,2.0098,1.9997,1.9698,1.9664,1.9664,1.9664,1.9664,1.9664,1.9664,1.9379,1.9203,1.9203,1.8864,1.864,1.8565,1.8644,1.5682,0.94,0.9753,0.6787,-0.0,-0.0,-0.0,-0.0,-0.0,-0.0,4.3233,4.4302,4.5024,4.5318,4.5451,4.5197,4.3781,4.3273,4.2405,3.9933,3.8865,3.7956,3.658,3.7088,3.8036,3.9052,0.0,4.2766,4.4329,4.477,4.5024,4.5277,4.509,4.4917,4.4877,4.4877,4.3607,4.049,3.9492,3.8798,3.793,3.5277,3.3424,3.3171,3.3171,3.3171,3.3171,3.2382,3.1887,3.1739,3.1121,3.0759,3.0663,3.0836,3.1009,3.1221,0.0,0.0,2.7748,2.7044,2.5108,2.266,2.2249,2.1828,2.1686,2.1564,2.1496,2.1441,2.1496,2.1475,2.1441,2.1441,2.1333,2.1211,2.1211,2.1109,2.1001,2.098,2.0878,2.0736,2.0573,2.0526,2.0485,2.0363,2.0438,2.0539,2.0526,2.0526,2.0539,2.0539,2.0539,2.0539,2.0539,2.0539,2.0451,2.0173,2.0098,1.9976,1.9698,1.9644,1.9644,1.9664,1.9644,1.9624,1.9624,1.9345,1.9169,1.9149,1.8742,1.8443,1.8321,1.8486,1.5565,0.9058,0.3071,-0.0,-0.0,-0.0,-0.0,-0.0,-0.0,-0.0,4.4222,4.4943,4.5318,4.5598,4.5157,4.4396,4.338,4.2044,4.0508,3.8838,3.7448,3.6299,3.5565,3.634,3.7635,3.9265,4.1056,4.2913,4.4877,4.5197,4.5237,4.5318,4.5277,4.5131,4.4917,4.4877,0.0,0.0,0.0,0.0,3.0771,3.2401,3.3576,3.3171,3.3171,3.3171,3.3171,2.9823,2.8365,2.821,2.4866,2.3473,2.3709,2.3745,2.3841,2.3996,0.0,0.0,2.7492,2.447,2.4455,2.6333,2.3207,2.1971,2.1862,2.195,2.176,2.1475,2.1726,2.1652,2.1441,2.1441,2.1333,2.1211,2.1211,2.1109,2.0967,2.0845,2.079,2.0736,2.0573,2.0451,2.0363,2.0329,2.0438,2.0505,2.0397,2.0451,2.0539,2.0539,2.0539,2.0539,2.0539,2.0539,2.0485,2.0315,2.0064,1.9854,1.9678,1.9556,1.9522,1.9644,1.9556,1.9468,1.9468,1.9203,1.8972,1.885,1.8531,1.8335,1.8321,1.8233,1.5577,0.9365,0.3074,-0.0,-0.0,-0.0,-0.0,-0.0,-0.0,-0.0,4.1762,4.371,4.5384,4.5678,4.4984,4.3781,4.2111,4.0588,3.8905,3.666,3.5658,3.4977,3.4376,3.5351,3.6687,3.7996,3.9559,4.1416,4.3607,4.3928,4.4222,4.4984,4.509,4.5024,4.4877,4.4877,4.4877,0.0,0.0,0.0,3.4194,3.1894,2.9581,2.75,2.7492,2.7492,2.7492,2.5715,2.4798,2.4798,2.2779,2.1937,2.2004,2.2079,2.2113,2.2113,2.2269,0.0,2.4661,2.3116,2.342,2.4752,2.2716,2.2025,2.1882,2.1882,2.1686,2.1455,2.1597,2.1564,2.1441,2.1441,2.1333,2.1211,2.1211,2.1157,2.1089,2.1021,2.1001,2.0967,2.0824,2.0668,2.0539,2.0451,2.0485,2.0526,2.0451,2.0485,2.0539,2.0539,2.0539,2.0539,2.0539,2.0485,2.0383,2.0227,1.9963,1.9712,1.9556,1.9345,1.9257,1.9413,1.9359,1.9305,1.9305,1.9115,1.8918,1.8782,1.8477,1.8287,1.8199,1.8091,1.6614,1.3775,0.4818,-0.0,-0.0,-0.0,-0.0,-0.0,-0.0,-0.0,4.0345,4.282,4.5384,4.5678,4.469,4.306,4.0882,3.9199,3.7382,3.4763,3.4175,3.4002,3.3587,3.4523,3.5712,3.6861,3.8103,3.9813,4.2218,4.2659,4.3247,4.4556,4.473,4.477,4.477,4.477,0.0,0.0,0.0,0.0,0.0,3.2469,2.7227,2.3688,2.3427,2.3158,2.2337,2.2303,2.2249,2.216,2.2215,2.2215,2.216,2.2215,2.2201,2.2113,2.2201,0.0,0.0,2.2201,2.2269,2.2269,2.2127,2.1991,2.1862,2.176,2.1597,2.1441,2.1441,2.1421,2.1387,2.1353,2.1279,2.1211,2.1245,2.1231,2.1211,2.1177,2.1157,2.1123,2.0946,2.079,2.0648,2.056,2.0526,2.0505,2.0573,2.056,2.0539,2.0539,2.0539,2.0526,2.0505,2.0397,2.0275,2.0119,1.982,1.9569,1.9447,1.9149,1.8993,1.9094,1.9128,1.9149,1.9149,1.9027,1.8871,1.8674,1.8423,1.8199,1.8057,1.7968,1.786,1.7978,0.8538,0.3038,0.1725,0.0641,-0.0,-0.0,-0.0,-0.0,4.2713,4.4608,4.5384,4.5678,4.4035,4.1964,4.0428,3.8103,3.5859,3.4255,3.3694,3.3561,3.3801,3.4162,3.5084,3.7021,3.7889,3.9279,4.1897,4.2726,4.3314,4.4008,4.4329,4.4476,4.4476,4.4476,0.0,0.0,0.0,0.0,0.0,3.4916,3.1015,2.721,2.7202,2.5598,2.2344,2.2201,2.2201,2.2323,2.2059,2.2059,2.2303,2.2038,2.1991,2.2113,0.0,0.0,0.0,2.1916,2.2004,2.2113,2.1971,2.1903,2.1882,2.1862,2.1686,2.1441,2.1441,2.1353,2.1211,2.1089,2.1123,2.1231,2.1367,2.1319,2.1177,2.1055,2.1021,2.0946,2.0661,2.0471,2.0397,2.0505,2.0438,2.0417,2.0702,2.0648,2.0539,2.0539,2.0539,2.0505,2.0363,2.0329,2.0275,2.0119,1.9732,1.9447,1.9434,1.9047,1.8782,1.8796,1.8918,1.9006,1.9006,1.8871,1.8654,1.8375,1.8199,1.8036,1.7901,1.788,1.788,1.7914,1.675,1.33,0.7613,0.2569,-0.0,-0.0,-0.0,-0.0,3.9232,4.219,4.4583,4.4877,4.3167,4.1056,3.9599,3.7342,3.5177,3.3868,3.3494,3.3454,3.3574,3.3694,3.4215,3.5591,3.5712,3.654,3.9199,3.9452,4.0214,4.2405,4.2766,0.0,0.0,0.0,0.0,0.0,0.0,0.0,0.0,3.5101,3.1538,2.7757,2.5591,2.3696,2.2337,2.2289,2.2289,2.2337,2.2215,2.2215,2.2337,2.2113,2.2004,2.1971,0.0,0.0,0.0,2.1916,2.2025,2.2215,2.1971,2.1774,2.1631,2.1726,2.1564,2.1299,2.1299,2.1265,2.1197,2.1143,2.1109,2.1109,2.1265,2.1197,2.1089,2.1123,2.1068,2.0946,2.0736,2.0573,2.0471,2.0526,2.0505,2.0485,2.0614,2.058,2.0539,2.0539,2.0471,2.0397,2.0349,2.0173,2.0031,1.9976,1.9569,1.9291,1.9291,1.8993,1.8762,1.8762,1.8816,1.885,1.885,1.8796,1.8674,1.8464,1.8301,1.8158,1.8002,1.7914,1.788,1.7894,1.7629,1.6385,1.3744,1.137,0.8501,0.5093,0.5097,0.3181,3.727,4.0736,4.3714,4.4182,4.2472,4.0321,3.9012,3.6834,3.475,3.3641,3.3414,3.3414,3.3414,3.3414,3.3654,3.4389,3.4295,3.495,3.7235,3.7342,3.821,4.0949,0.0,0.0,0.0,0.0,0.0,0.0,0.0,0.0,0.0,3.5015,3.1538,2.7757,2.5324,2.3427,2.2337,2.2337,2.2337,2.2337,2.2337,2.2337,2.2337,2.2127,2.2038,2.2004,0.0,0.0,0.0,2.1916,2.2004,2.2235,2.1937,2.1686,2.1509,2.1584,2.1441,2.1197,2.1109,2.1089,2.1068,2.1034,2.0946,2.0892,2.1034,2.1034,2.1021,2.1068,2.098,2.0845,2.0736,2.0594,2.0471,2.0471,2.0438,2.0417,2.0471,2.0471,2.0485,2.0539,2.0438,2.0315,2.0275,2.0051,1.9841,1.9752,1.9434,1.9183,1.9149,1.8918,1.8762,1.8762,1.8762,1.8762,1.8762,1.8762,1.8694,1.8545,1.8443,1.8301,1.8091,1.7989,1.7914,1.786,1.7609,1.7473,1.725,1.7209,1.4909,1.1037,1.1046,0.7005,3.8609,4.1336,4.2886,4.3781,4.2004,3.9813,3.8905,3.6647,3.4496,3.3601,3.3414,3.3414,3.3414,3.3414,3.3521,3.3841,3.4376,3.5257,3.6767,3.7448,3.8357,0.0,0.0,0.0,0.0,0.0,0.0,0.0,0.0,0.0,0.0,0.0,3.1538,2.7757,2.7748,2.5865,2.2344,2.2337,2.2337,2.2337,2.2337,2.2337,2.2323,2.2025,2.2038,0.0,0.0,0.0,0.0,2.1862,2.1848,2.2079,2.1794,2.1672,2.1652,2.1496,2.1353,2.1177,2.0878,2.077,2.0756,2.0594,2.0539,2.0573,2.0736,2.0878,2.0967,2.0824,2.0668,2.0539,2.0539,2.0438,2.0329,2.0329,2.0227,2.0153,2.0295,2.0329,2.0363,2.0505,2.0438,2.0275,2.0139,1.9976,1.9766,1.9481,1.9305,1.9149,1.9006,1.885,1.8762,1.8762,1.8762,1.8762,1.8762,1.8762,1.8694,1.8545,1.8531,1.8389,1.8111,1.8091,1.8023,1.786,1.7575,1.7419,1.7419,1.7161,1.7032,1.6822,1.6869,1.0852,3.6427,3.8036,3.9065,3.9172,3.825,3.7155,3.6473,3.5191,3.4015,3.3507,3.3253,3.312,3.312,3.312,3.3347,3.4068,3.4336,3.483,3.5899,3.638,0.0,3.9199,0.0,0.0,0.0,0.0,0.0,0.0,0.0,0.0,0.0,0.0,3.6223,3.5047,3.0182,2.8285,2.9656,2.9656,2.9656,2.9656,2.9656,2.9656,2.9647,2.6837,0.0,0.0,0.0,0.0,0.0,2.1652,2.1686,2.1916,2.1638,2.1441,2.1353,2.1299,2.1197,2.1034,2.0845,2.077,2.077,2.0716,2.0627,2.0573,2.0716,2.0736,2.0661,2.0505,2.0438,2.0397,2.0397,2.0275,2.0207,2.0309,2.0207,2.0119,2.0173,2.0261,2.0315,2.0261,2.0207,2.0119,1.9976,1.982,1.9664,1.9468,1.9305,1.9149,1.9006,1.885,1.8762,1.8762,1.8762,1.8762,1.8762,1.8762,1.8742,1.8694,1.8586,1.8443,1.8247,1.8145,1.8023,1.786,1.767,1.7575,1.7575,1.7385,1.7243,1.7141,1.708,1.5127,3.4509,3.5992,3.7061,3.7101,3.658,3.5925,3.5338,3.4429,3.3601,3.3173,3.2946,3.2812,3.2812,3.2812,3.304,3.3708,3.3814,3.4162,3.5164,3.5645,0.0,0.0,0.0,0.0,0.0,0.0,0.0,0.0,0.0,0.0,0.0,0.0,3.8739,4.0143,3.3339,3.0687,3.304,3.3121,3.3121,3.304,3.304,3.3009,3.2898,3.0163,0.0,0.0,0.0,0.0,0.0,2.2208,2.1638,2.1774,2.1475,2.1265,2.1123,2.1068,2.098,2.0892,2.0736,2.0682,2.0682,2.0682,2.0614,2.0539,2.0594,2.0539,2.0438,2.0349,2.0295,2.0241,2.0241,2.0139,2.0031,2.0139,2.0051,1.9942,1.9997,2.0085,2.0153,2.0098,2.0051,1.9976,1.9888,1.9752,1.959,1.9379,1.9257,1.9128,1.8938,1.8816,1.8762,1.8762,1.8762,1.8762,1.8762,1.8762,1.8762,1.8762,1.862,1.8464,1.8321,1.8179,1.8023,1.786,1.7717,1.765,1.765,1.7439,1.7256,1.7114,1.7046,1.7046,0.0,3.483,3.6219,3.6767,3.6313,3.5618,3.507,3.4135,0.0,3.2666,3.2532,3.2519,3.2545,3.2532,3.2625,3.2959,3.3026,3.344,3.4563,3.5351,0.0,0.0,0.0,0.0,0.0,0.0,0.0,0.0,0.0,0.0,0.0,0.0,0.0,4.3046,3.7175,3.3815,3.3321,3.3815,3.3815,3.3321,3.3321,3.3218,3.3023,3.2786,0.0,0.0,0.0,0.0,0.0,2.3425,2.1926,2.1878,2.1319,2.1123,2.1001,2.0824,2.077,2.077,2.0594,2.0539,2.056,2.0539,2.0539,2.0505,2.0363,2.0329,2.0329,2.0295,2.0187,2.0085,2.0085,1.9976,1.9854,1.9875,1.9766,1.9698,1.9841,1.9875,1.9908,2.0051,1.9963,1.9875,1.9854,1.9732,1.9535,1.9257,1.9203,1.9081,1.8796,1.8762,1.8762,1.8762,1.8762,1.8762,1.8762,1.8762,1.8762,1.8762,1.862,1.8464,1.8321,1.8179,1.8023,1.786,1.7717,1.765,1.7629,1.7338,1.7127,1.6992,1.6985,1.7026,3.0621,0.0,3.2118,3.2038,3.2358,3.2666,0.0,3.2639,3.2719,3.2572,3.2372,3.2278,3.2505,3.2358,3.2452,3.3187,3.3521,3.3855,3.4349,0.0,0.0,0.0,0.0,0.0,0.0,0.0,0.0,0.0,0.0,0.0,0.0,0.0,0.0,4.2432,4.1404,4.0619,4.0544,4.0607,4.0607,4.0544,4.0544,4.0506,4.0431,3.7518,0.0,0.0,0.0,0.0,3.0295,2.4165,2.3068,2.5129,2.2317,2.1197,2.1123,2.0858,2.0845,2.0912,2.0627,2.0614,2.0702,2.0573,2.0539,2.0505,2.0363,2.0329,2.0275,2.0051,1.9963,1.9929,1.9929,1.982,1.9732,1.9854,1.9766,1.9678,1.9698,1.98,1.9854,1.9786,1.982,1.9841,1.9732,1.959,1.9413,1.9237,1.9115,1.8972,1.8782,1.8762,1.8762,1.8762,1.8762,1.8762,1.8762,1.8762,1.8762,1.8762,1.862,1.8464,1.8321,1.8179,1.8023,1.786,1.7717,1.7589,1.7473,1.7283,1.7175,1.7141,1.7032,1.7026,2.9272,3.0327,3.1356,3.1196,3.1623,3.2038,3.1904,3.1904,3.1904,3.177,3.161,3.1597,3.1891,3.181,3.1944,3.2692,3.3066,3.3748,0.0,0.0,0.0,0.0,0.0,0.0,0.0,0.0,0.0,0.0,0.0,0.0,0.0,0.0,0.0,0.0,4.2659,4.2886,4.2886,4.2886,4.2846,4.2699,4.2699,4.2619,4.2499,4.0634,3.9572,0.0,0.0,0.0,3.3476,2.8077,2.6932,2.8305,2.6408,2.5552,2.547,2.5254,2.5254,2.532,2.5105,2.4047,2.2815,2.2792,2.1701,2.0329,2.0241,2.0173,2.0085,1.9922,1.982,1.9766,1.9766,1.9712,1.9678,1.9752,1.9712,1.9664,1.9664,1.9712,1.9752,1.9678,1.9732,1.9732,1.9576,1.9481,1.9359,1.9128,1.904,1.8938,1.8782,1.8762,1.8762,1.8762,1.8762,1.8762,1.8762,1.8762,1.8762,1.8762,1.8552,1.8409,1.8321,1.8111,1.7948,1.786,1.7792,1.767,1.7528,1.7439,1.7331,1.7188,1.7114,1.7073,2.8644,3.0287,3.1917,3.169,3.1957,3.2198,3.1904,3.149,3.1102,3.0902,3.0862,3.0969,3.1303,3.1356,3.157,3.2198,3.2599,0.0,0.0,0.0,0.0,0.0,0.0,0.0,0.0,0.0,0.0,0.0,0.0,0.0,0.0,0.0,0.0,0.0,4.2472,4.2592,4.2592,4.2592,4.2445,4.2151,4.2151,4.2004,4.171,4.1964,4.2071,0.0,0.0,0.0,3.7096,3.2997,3.1484,3.1389,3.0816,3.0694,3.0573,3.0492,3.0512,3.0573,3.0573,2.8684,2.6051,2.5707,2.3301,2.0872,2.032,1.9976,1.9875,1.9854,1.9752,1.9664,1.9664,1.9664,1.9664,1.9664,1.9664,1.9664,1.9664,1.9664,1.9664,1.9664,1.9664,1.961,1.9468,1.9413,1.9305,1.9027,1.8972,1.8905,1.8782,1.8762,1.8762,1.8762,1.8762,1.8762,1.8762,1.8762,1.8762,1.8762,1.8498,1.8335,1.8287,1.8023,1.7846,1.7826,1.7826,1.7758,1.7616,1.7589,1.7446,1.7195,1.7168,1.7114,2.8831,3.014,3.1062,2.982,3.0287,3.0982,3.0688,3.0742,3.0915,3.1116,3.1156,3.133,3.1864,3.1971,3.2238,3.308,0.0,0.0,0.0,0.0,0.0,0.0,0.0,0.0,0.0,0.0,0.0,0.0,0.0,0.0,0.0,0.0,0.0,0.0,4.2258,4.2298,4.2298,4.2298,4.2151,4.1857,4.1857,4.171,4.1416,4.1456,4.1483,0.0,0.0,3.7861,4.0121,3.3776,3.2721,3.4891,3.1693,3.0394,3.0725,3.0351,3.0462,3.0775,3.0775,3.0154,2.9191,2.6335,2.5005,2.393,2.0957,1.9888,1.9854,1.9732,1.9678,1.9664,1.9664,1.9664,1.9664,1.9664,1.9664,1.9664,1.9664,1.9664,1.9664,1.9664,1.9664,1.961,1.9468,1.9325,1.9183,1.9006,1.8884,1.8796,1.8762,1.8762,1.8762,1.8762,1.8762,1.8762,1.8762,1.8762,1.8762,1.8762,1.8599,1.8389,1.8145,1.7948,1.7812,1.7684,1.7684,1.7609,1.7453,1.7324,1.7236,1.7188,1.7066,1.7019,2.8644,2.9646,3.0314,2.9486,3.0394,3.1423,3.1129,3.1049,3.1062,3.1196,3.1356,3.1597,3.2024,0.0,3.2973,3.4175,0.0,0.0,0.0,0.0,0.0,0.0,0.0,0.0,0.0,0.0,0.0,0.0,0.0,0.0,0.0,0.0,0.0,0.0,4.2218,4.2218,4.2218,4.2071,4.1817,4.1523,4.1376,4.1243,4.1122,4.1269,4.1336,4.1336,0.0,3.964,4.0637,3.7506,3.7051,3.792,3.6454,3.5625,3.5459,3.5211,3.527,3.5494,3.5494,3.4346,3.241,3.0718,2.7897,2.4553,2.3039,2.1261,1.9752,1.9678,1.9664,1.9664,1.9664,1.9664,1.9664,1.9664,1.9664,1.9664,1.9664,1.9664,1.9664,1.9664,1.959,1.9481,1.9325,1.9183,1.904,1.8884,1.8816,1.8762,1.8762,1.8762,1.8762,1.8762,1.8762,1.8762,1.8762,1.8762,1.8728,1.864,1.8565,1.8389,1.8111,1.8023,1.7914,1.7772,1.7758,1.7738,1.765,1.7514,1.7399,1.7311,1.7161,1.7066,2.8698,2.9406,2.99,2.9806,3.0795,3.1784,3.177,3.1543,3.1423,3.177,3.1971,3.2158,3.2372,3.3013,0.0,3.5097,0.0,0.0,0.0,0.0,0.0,0.0,0.0,0.0,0.0,0.0,0.0,0.0,0.0,0.0,0.0,0.0,0.0,0.0,4.2111,4.2071,4.2004,4.171,4.1497,4.1336,4.0976,4.0762,4.0722,4.0869,4.0976,4.1016,4.0976,4.0722,4.0401,4.0548,4.0214,3.964,4.0,3.9893,3.9493,3.9559,3.9599,3.9599,3.9599,3.778,3.5489,3.482,3.0565,2.5579,2.4922,2.245,1.9712,1.9712,1.9678,1.9664,1.9664,1.9664,1.9664,1.9664,1.9664,1.9664,1.9664,1.9664,1.9644,1.961,1.9522,1.9379,1.9183,1.9061,1.8938,1.8782,1.8762,1.8762,1.8762,1.8762,1.8762,1.8762,1.8762,1.8762,1.8762,1.8762,1.8708,1.8586,1.8552,1.8423,1.8199,1.8124,1.8036,1.7914,1.788,1.786,1.786,1.7717,1.7589,1.7467,1.7317,1.7188,2.9432,2.9873,3.0047,3.0568,3.0795,3.1089,3.1891,3.1851,3.2024,3.3414,3.3494,3.332,3.3347,3.4269,0.0,0.0,0.0,0.0,0.0,0.0,0.0,0.0,0.0,0.0,0.0,0.0,0.0,0.0,0.0,0.0,0.0,0.0,0.0,0.0,0.0,4.167,4.1416,4.1122,4.1096,4.1336,4.0762,4.0361,4.0067,3.9853,3.9893,4.0107,3.9853,3.9853,4.004,3.9786,3.9666,3.9559,3.9346,3.9225,3.9225,3.9493,3.9599,3.9599,3.9599,3.9521,3.9136,3.5452,3.2465,2.9303,2.5764,2.2283,1.9854,1.9854,1.9766,1.9664,1.9664,1.9664,1.9664,1.9664,1.9664,1.9664,1.9664,1.9664,1.9624,1.9481,1.9434,1.9345,1.9061,1.8993,1.8938,1.8782,1.8762,1.8762,1.8762,1.8762,1.8762,1.8762,1.8762,1.8762,1.8762,1.8762,1.8762,1.8742,1.8599,1.8511,1.8498,1.8233,1.8091,1.8077,1.7935,1.786,1.786,1.7717,1.765,1.7629,1.7473,1.7399,2.9299,2.9913,3.0247,3.0461,3.1076,3.1744,3.2265,3.2866,3.3534,3.4282,3.4776,3.5084,3.5084,0.0,0.0,0.0,0.0,0.0,0.0,0.0,0.0,0.0,0.0,0.0,0.0,0.0,0.0,0.0,0.0,0.0,0.0,0.0,0.0,0.0,0.0,4.1924,4.163,4.131,4.1122,4.1056,4.0468,4.0147,4.0027,3.9746,3.9666,3.9746,3.964,3.9559,3.9493,3.9559,3.9386,3.9052,3.8945,3.9012,3.9159,3.9092,3.9052,3.9052,3.9052,3.9239,3.894,3.5356,3.2289,2.9249,2.5694,2.2283,1.9875,1.9875,1.9841,1.9766,1.9678,1.9664,1.9664,1.9664,1.959,1.9535,1.9644,1.9501,1.9379,1.9434,1.9291,1.9115,1.9006,1.8918,1.883,1.8762,1.8762,1.8762,1.8762,1.8762,1.8762,1.8762,1.8762,1.8762,1.8762,1.8762,1.8762,1.8762,1.8708,1.864,1.8531,1.8335,1.8199,1.8091,1.7935,1.786,1.786,1.7717,1.765,1.765,1.7494,1.7419,2.9352,2.9847,3.0127,3.0314,3.1169,3.2144,3.2812,3.3748,3.4696,3.5551,3.5979,3.6206,3.6206,3.6206,0.0,0.0,0.0,0.0,0.0,0.0,0.0,0.0,0.0,0.0,0.0,0.0,0.0,0.0,0.0,0.0,0.0,0.0,0.0,0.0,0.0,0.0,4.139,4.1163,4.0976,4.0762,4.0254,4.0,3.9893,3.9493,3.9372,3.9452,3.9372,3.9265,3.9159,3.9265,3.9092,3.8718,3.8718,3.8838,3.9012,3.8798,3.8718,3.8731,3.8838,3.9052,3.8794,3.5416,3.2322,2.9219,2.5694,2.2283,1.9875,1.9875,1.9875,1.9854,1.982,1.9732,1.9664,1.9664,1.9535,1.9468,1.9569,1.9379,1.9217,1.9271,1.9128,1.8972,1.8918,1.883,1.8762,1.8762,1.8762,1.8762,1.8762,1.8762,1.8762,1.8762,1.8762,1.8762,1.8762,1.8762,1.8762,1.8762,1.8762,1.8708,1.8599,1.8464,1.8321,1.8165,1.8023,1.7914,1.786,1.7758,1.7717,1.7717,1.7609,1.7561,2.9753,2.97,2.9633,3.0221,3.1022,3.2078,3.3561,3.4349,3.5351,3.7408,3.7128,3.6513,3.6513,3.6513,0.0,0.0,0.0,0.0,0.0,0.0,0.0,0.0,0.0,0.0,0.0,0.0,0.0,0.0,0.0,0.0,0.0,0.0,0.0,0.0,0.0,0.0,4.0481,4.0481,4.0481,4.0481,4.0174,3.9893,3.9559,3.8985,3.8865,3.9118,3.8838,3.8905,3.9118,3.8838,3.8718,3.8718,3.8718,3.8718,3.8718,3.8718,3.8731,3.8758,3.9052,3.9346,3.9098,3.567,3.2674,2.9587,2.5764,2.2283,1.9875,1.9875,1.9875,1.9908,2.0064,1.9875,1.9664,1.9664,1.9535,1.9434,1.9434,1.9305,1.9149,1.9027,1.8993,1.8938,1.8782,1.8762,1.8762,1.8762,1.8762,1.8762,1.8762,1.8762,1.8762,1.8762,1.8762,1.8762,1.8762,1.8762,1.8762,1.8762,1.8762,1.8762,1.8762,1.862,1.8464,1.8321,1.8165,1.8023,1.786,1.786,1.786,1.786,1.786,1.786,2.9245,2.9539,0.0,3.0261,3.165,3.3253,3.4523,3.5097,3.5965,3.8036,3.7916,3.7489,3.7702,3.7422,0.0,0.0,0.0,0.0,0.0,0.0,0.0,0.0,0.0,0.0,0.0,0.0,0.0,0.0,0.0,0.0,0.0,0.0,0.0,0.0,0.0,0.0,4.0802,4.0762,4.0695,4.0481,3.996,3.968,3.9599,3.9199,3.8972,3.8838,3.8758,3.8758,3.8838,3.8758,3.8718,3.8718,3.8718,3.8838,3.9012,3.9012,3.9159,3.9346,3.9452,3.9533,3.8609,3.3003,3.0501,2.8706,2.3039,2.0598,1.9875,1.9875,1.9875,1.9854,1.98,1.9644,1.9522,1.9644,1.9468,1.9271,1.9271,1.9081,1.8918,1.8972,1.8905,1.8816,1.8762,1.8762,1.8762,1.8762,1.8762,1.8762,1.8762,1.8762,1.8762,1.8762,1.8762,1.8762,1.8762,1.8762,1.8762,1.8762,1.8762,1.8762,1.8762,1.8511,1.8355,1.8321,1.8057,1.7914,1.786,1.7968,1.7968,1.786,1.7968,1.7968,2.9352,2.9726,0.0,3.1036,3.2251,3.3694,3.5338,3.6313,3.7235,3.8611,3.8397,3.8076,3.8397,3.7969,0.0,0.0,0.0,0.0,0.0,0.0,0.0,0.0,0.0,0.0,0.0,0.0,0.0,0.0,0.0,0.0,0.0,0.0,0.0,0.0,0.0,0.0,4.0735,4.0735,4.0655,4.0481,3.9893,3.9599,3.9599,3.9159,3.8905,3.8718,3.8718,3.8718,3.8718,3.8718,3.8718,3.8718,3.8584,3.8651,3.8798,3.8945,3.9012,3.9132,3.9493,3.8782,3.6765,3.151,2.8958,2.6851,2.1498,1.9786,1.9786,1.9712,1.9786,1.9841,1.9698,1.959,1.9522,1.9488,1.9291,1.9115,1.9115,1.8938,1.8796,1.8884,1.883,1.8762,1.8762,1.8762,1.8762,1.8762,1.8762,1.8762,1.8762,1.8762,1.8762,1.8762,1.8762,1.8762,1.8762,1.8762,1.8762,1.8762,1.8762,1.8762,1.8762,1.8586,1.8443,1.8321,1.8145,1.7989,1.786,1.8023,1.8036,1.7948,1.8111,1.8091,2.9793,3.0114,3.0715,3.2211,3.2946,0.0,3.6112,3.7702,3.8758,3.9052,0.0,3.8437,3.8718,0.0,0.0,0.0,0.0,0.0,0.0,0.0,0.0,0.0,0.0,0.0,0.0,0.0,0.0,0.0,0.0,0.0,0.0,0.0,0.0,0.0,0.0,0.0,4.0481,4.0481,4.0468,0.0,3.9853,3.9559,3.9493,3.8945,3.8691,3.8691,3.8718,3.8718,3.8718,3.8718,3.8718,3.8691,3.8397,3.833,3.837,3.8651,3.8611,3.8504,3.9306,3.7216,3.3882,3.0701,2.7493,2.4168,2.0665,1.9664,1.9624,1.9481,1.9644,1.98,1.9664,1.961,1.9522,1.9237,1.9081,1.8993,1.8972,1.8871,1.8762,1.8762,1.8762,1.8762,1.8762,1.8762,1.8762,1.8762,1.8762,1.8762,1.8762,1.8762,1.8762,1.8762,1.8762,1.8762,1.8762,1.8762,1.8762,1.8762,1.8762,1.8762,1.8762,1.8742,1.862,1.8335,1.8321,1.8179,1.7901,1.8057,1.8124,1.8111,1.8247,1.8233,2.9499,2.9967,0.0,3.2465,3.4322,3.6059,3.7261,3.7969,3.8437,3.8758,3.8905,3.8972,0.0,0.0,0.0,0.0,0.0,0.0,0.0,0.0,0.0,0.0,0.0,0.0,0.0,0.0,0.0,0.0,0.0,0.0,0.0,0.0,0.0,0.0,0.0,4.0481,4.0481,4.0481,4.0361,0.0,3.9519,3.9118,3.8905,3.8517,3.837,3.837,3.8611,3.8718,3.8718,3.8718,3.8718,3.8718,3.8651,3.8758,3.8972,3.9052,3.9159,3.9346,3.9533,3.7216,3.3847,3.0753,2.7268,2.4011,2.063,1.9664,1.9664,1.9624,1.9569,1.9481,1.9345,1.9217,1.9094,1.8905,1.8918,1.8959,1.883,1.8782,1.8762,1.8762,1.8762,1.8762,1.8762,1.8762,1.8762,1.8762,1.8762,1.8762,1.8762,1.8762,1.8762,1.8762,1.8762,1.8762,1.8762,1.8762,1.8762,1.8762,1.8762,1.8762,1.8762,1.864,1.8552,1.8477,1.8375,1.8287,1.8213,1.8375,1.8375,1.8267,1.8301,1.8233,2.9913,0.0,0.0,3.3561,0.0,3.7261,3.7702,3.8036,3.833,3.8651,3.8838,0.0,0.0,0.0,0.0,0.0,0.0,0.0,0.0,0.0,0.0,0.0,0.0,0.0,0.0,0.0,0.0,0.0,0.0,0.0,0.0,0.0,0.0,0.0,4.0481,4.0481,4.0481,4.0334,4.0187,4.0027,3.9159,3.8437,3.7889,3.7996,3.8036,3.8076,3.837,3.8437,3.8317,3.8611,3.8651,3.8504,3.8504,3.8584,3.8758,3.8905,3.8945,3.8985,3.9265,3.6043,3.1732,2.9838,2.6177,2.1812,2.0144,1.9664,1.9644,1.9569,1.9501,1.9379,1.9169,1.904,1.8959,1.8796,1.8816,1.8871,1.8782,1.8762,1.8762,1.8762,1.8762,1.8762,1.8762,1.8762,1.8762,1.8762,1.8762,1.8762,1.8762,1.8762,1.8762,1.8762,1.8762,1.8762,1.8762,1.8762,1.8762,1.8762,1.8762,1.8762,1.8762,1.8694,1.8599,1.8531,1.8464,1.8389,1.8321,1.8464,1.8498,1.8423,1.8423,1.8335,0.0,3.1463,3.2866,3.479,3.6473,0.0,3.7742,3.7929,3.8223,3.8584,0.0,0.0,0.0,0.0,0.0,0.0,0.0,0.0,0.0,0.0,0.0,0.0,0.0,0.0,0.0,0.0,0.0,0.0,0.0,0.0,0.0,0.0,4.0401,4.0401,4.0361,4.0334,4.0334,4.0067,3.992,3.9853,3.8731,3.7742,3.6941,3.7448,3.7702,3.7742,3.8036,3.8036,3.7849,3.8397,3.8504,3.8263,3.833,3.833,3.837,3.8624,3.8544,3.8397,3.8905,3.4619,2.9178,2.9178,2.4915,1.9664,1.9664,1.9664,1.9624,1.9501,1.9434,1.9339,1.9094,1.8993,1.8918,1.8796,1.8762,1.8762,1.8762,1.8762,1.8762,1.8762,1.8762,1.8762,1.8762,1.8762,1.8762,1.8762,1.8762,1.8762,1.8762,1.8762,1.8762,1.8762,1.8762,1.8762,1.8762,1.8762,1.8762,1.8762,1.8762,1.8762,1.8762,1.8762,1.8708,1.8565,1.8565,1.8511,1.8389,1.8477,1.8531,1.8531,1.8477,1.8389,0.0,0.0,3.3961,0.0,3.6326,3.7128,0.0,0.0,3.7635,0.0,0.0,0.0,0.0,0.0,0.0,0.0,0.0,0.0,0.0,0.0,0.0,0.0,0.0,0.0,0.0,0.0,0.0,0.0,0.0,0.0,0.0,4.0214,4.0107,4.0107,3.9853,3.9706,3.9706,3.968,3.9519,3.9265,3.8317,3.7555,3.6941,3.7008,3.7195,3.7448,3.7742,3.7849,3.7849,3.8183,3.829,3.829,3.8544,3.8651,3.8651,3.8718,3.8691,3.8691,3.8758,3.4452,2.9178,2.9178,2.4915,1.9664,1.9664,1.9664,1.9664,1.9644,1.9434,1.9217,1.9183,1.8993,1.8782,1.8762,1.8762,1.8762,1.8762,1.8762,1.8762,1.8762,1.8762,1.8762,1.8762,1.8762,1.8762,1.8762,1.8762,1.8762,1.8762,1.8762,1.8762,1.8762,1.8762,1.8762,1.8762,1.8762,1.8762,1.8762,1.8762,1.8762,1.8762,1.8762,1.8742,1.8728,1.8728,1.8728,1.8708,1.8586,1.8531,1.8531,1.8267,1.8145,3.0688,3.2639,3.4416,0.0,3.6393,3.7008,3.7315,0.0,0.0,0.0,0.0,0.0,0.0,0.0,0.0,0.0,0.0,0.0,0.0,0.0,0.0,0.0,0.0,0.0,0.0,0.0,0.0,0.0,0.0,0.0,4.0481,4.004,3.9853,4.0027,3.9746,3.9599,3.9599,3.9452,3.9118,3.8651,3.8076,3.7595,3.7195,3.7008,3.7008,3.7155,3.7448,3.7569,3.7595,3.7889,3.8116,3.8263,3.8397,3.8584,3.8718,3.8718,3.8718,3.8718,3.8718,3.5612,3.1793,3.1793,2.8702,2.4666,2.2997,2.2296,2.2039,2.0039,1.9379,1.9183,1.9094,1.8918,1.8762,1.8762,1.8762,1.8762,1.8762,1.8762,1.8762,1.8762,1.8762,1.8762,1.8762,1.8762,1.8762,1.8762,1.8762,1.8762,1.8762,1.8762,1.8762,1.8762,1.8762,1.8762,1.8762,1.8762,1.8762,1.8762,1.8762,1.8762,1.8762,1.8762,1.8762,1.8762,1.8762,1.8762,1.8762,1.8599,1.8531,1.8531,1.8233,1.8091,3.1263,0.0,3.3948,3.5204,3.6179,3.6901,0.0,0.0,0.0,0.0,0.0,0.0,0.0,0.0,0.0,0.0,0.0,0.0,0.0,0.0,0.0,0.0,0.0,0.0,0.0,0.0,0.0,0.0,0.0,0.0,4.0254,3.9773,3.9599,3.9813,3.9519,3.9386,3.9386,3.9159,3.8798,3.8263,3.7956,3.7676,3.7382,3.7155,3.7048,3.7048,3.7275,3.7382,3.7422,3.7782,3.8076,3.8263,3.833,3.8504,3.8718,3.8718,3.8718,3.8718,3.8718,3.6558,3.3923,3.3923,3.1793,2.8702,2.6335,2.5111,2.3862,2.1362,2.0007,1.9128,1.9027,1.8884,1.8762,1.8762,1.8762,1.8762,1.8762,1.8762,1.8762,1.8762,1.8762,1.8762,1.8762,1.8762,1.8762,1.8762,1.8762,1.8762,1.8762,1.8762,1.8762,1.8762,1.8762,1.8762,1.8762,1.8762,1.8762,1.8762,1.8762,1.8762,1.8762,1.8762,1.8762,1.8762,1.8762,1.8762,1.8762,1.8565,1.8477,1.8477,1.8213,1.8091,2.9713,3.0915,0.0,3.3627,3.5271,0.0,0.0,0.0,0.0,0.0,0.0,0.0,0.0,0.0,0.0,0.0,0.0,0.0,0.0,0.0,0.0,0.0,0.0,0.0,0.0,0.0,0.0,0.0,0.0,0.0,3.964,3.9346,3.9185,3.9199,3.8905,3.8758,3.8758,3.8758,3.8584,3.8263,3.7956,3.7676,3.7382,3.7382,3.7342,3.7342,3.7382,3.7382,3.7422,3.7996,3.825,3.829,3.8584,3.8718,3.8718,3.8718,3.8718,3.8718,3.8718,3.6558,3.3923,3.3923,3.1793,2.9178,2.895,2.6675,2.4163,2.3917,2.1559,1.9006,1.8993,1.8884,1.8762,1.8762,1.8762,1.8762,1.8762,1.8762,1.8762,1.8762,1.8762,1.8762,1.8762,1.8762,1.8762,1.8762,1.8762,1.8762,1.8762,1.8762,1.8762,1.8762,1.8762,1.8762,1.8762,1.8762,1.8762,1.8762,1.8762,1.8762,1.8762,1.8762,1.8762,1.8762,1.8762,1.8762,1.8762,1.8477,1.8335,1.8321,1.8165,1.8091,2.9927,3.0782,0.0,3.3467,3.4643,3.5511,0.0,0.0,0.0,0.0,0.0,0.0,0.0,0.0,0.0,0.0,0.0,0.0,0.0,0.0,0.0,0.0,0.0,0.0,0.0,0.0,0.0,0.0,0.0,0.0,3.9599,3.9132,3.8972,3.9159,3.8865,3.8718,3.8718,3.8718,3.8584,3.8263,3.8143,3.7929,3.7676,3.7676,3.7676,3.7676,3.7863,3.7929,3.7929,3.7969,3.821,3.8544,3.8477,3.8544,3.8718,3.8718,3.8718,3.8718,3.8718,3.8007,3.7025,3.7025,3.6313,3.4897,3.2736,3.1147,2.9751,2.7503,2.4485,2.1945,2.1843,2.04,1.8762,1.8762,1.8762,1.8762,1.8762,1.8762,1.8762,1.8762,1.8762,1.8762,1.8762,1.8762,1.8762,1.8762,1.8762,1.8762,1.8762,1.8762,1.8762,1.8762,1.8762,1.8762,1.8762,1.8762,1.8762,1.8762,1.8762,1.8762,1.8762,1.8762,1.8762,1.8762,1.8762,1.8762,1.8762,1.8552,1.8464,1.8464,1.8301,1.8233,2.9753,3.0408,3.1356,0.0,0.0,3.4576,0.0,0.0,0.0,0.0,0.0,0.0,0.0,0.0,0.0,0.0,0.0,0.0,0.0,0.0,0.0,0.0,0.0,0.0,0.0,0.0,0.0,0.0,0.0,0.0,3.9306,3.8945,3.8798,3.9012,3.8825,3.8718,3.8718,3.8718,3.8611,3.8397,3.829,3.8143,3.7969,3.7969,3.7969,3.7969,3.829,3.837,3.8263,3.8143,3.8357,3.8691,3.8504,3.8544,3.8718,3.8718,3.8718,3.8718,3.8718,3.8718,3.8718,3.8718,3.8718,3.8214,3.5967,3.4559,3.2666,2.9396,2.5941,2.3231,2.1987,2.0363,1.8762,1.8762,1.8762,1.8762,1.8762,1.8762,1.8762,1.8762,1.8762,1.8762,1.8762,1.8762,1.8762,1.8762,1.8762,1.8762,1.8762,1.8762,1.8762,1.8762,1.8762,1.8762,1.8762,1.8762,1.8762,1.8762,1.8762,1.8762,1.8762,1.8762,1.8762,1.8762,1.8762,1.8762,1.8762,1.8599,1.8531,1.8531,1.8443,1.8423,0.0,0.0,0.0,3.2492,0.0,0.0,0.0,0.0,0.0,0.0,0.0,0.0,0.0,0.0,0.0,0.0,0.0,0.0,0.0,0.0,0.0,0.0,0.0,0.0,0.0,0.0,0.0,0.0,0.0,3.8718,3.8718,3.8718,3.8718,3.8718,3.8718,3.8718,3.8718,3.8718,3.8718,3.8718,3.8397,3.8263,3.8263,3.8263,3.8263,3.829,3.8584,3.8544,3.829,3.8611,3.8718,3.8718,3.8718,3.8718,3.8718,3.8718,3.8718,3.8718,3.8718,3.8718,3.8718,3.8718,3.8718,3.8651,3.837,3.5939,3.2666,2.9417,2.5985,2.2645,1.9683,1.8762,1.8762,1.8762,1.8762,1.8762,1.8762,1.8762,1.8762,1.8762,1.8762,1.8762,1.8762,1.8762,1.8762,1.8762,1.8762,1.8762,1.8762,1.8762,1.8762,1.8762,1.8762,1.8762,1.8762,1.8762,1.8762,1.8762,1.8762,1.8762,1.8762,1.8762,1.8762,1.8762,1.8762,1.8762,1.8762,1.862,1.8531,1.8531,1.8531,1.862,2.9366,0.0,0.0,0.0,0.0,0.0,0.0,0.0,0.0,0.0,0.0,0.0,0.0,0.0,0.0,0.0,0.0,0.0,0.0,0.0,0.0,0.0,0.0,0.0,0.0,0.0,0.0,0.0,3.8718,3.8718,3.8718,3.8718,3.8718,3.8718,3.8718,3.8718,3.8718,3.8718,3.8611,3.8397,3.8544,3.8477,3.8263,3.8504,3.8584,3.8611,3.8691,3.8691,3.8611,3.8691,3.8718,3.8718,3.8718,3.8718,3.8718,3.8718,3.8718,3.8718,3.8718,3.8718,3.8718,3.8718,3.8584,3.837,3.829,3.58,3.265,3.1887,2.7569,2.2645,1.9683,1.8762,1.8762,1.8762,1.8762,1.8762,1.8762,1.8762,1.8762,1.8762,1.8762,1.8762,1.8762,1.8762,1.8762,1.8762,1.8762,1.8762,1.8762,1.8762,1.8762,1.8762,1.8762,1.8762,1.8762,1.8762,1.8762,1.8762,1.8762,1.8762,1.8762,1.8762,1.8762,1.8762,1.8762,1.8762,1.8762,1.8728,1.8694,1.8694,1.8694,1.8728,2.9913,3.0274,3.0915,3.1704,0.0,0.0,3.3494,3.3935,0.0,0.0,0.0,0.0,0.0,0.0,0.0,0.0,0.0,0.0,0.0,0.0,0.0,0.0,0.0,0.0,0.0,0.0,0.0,0.0,3.8718,3.8718,3.8718,3.8718,3.8718,3.8718,3.8718,3.8718,3.8718,3.8718,3.8624,3.8437,3.8651,3.8624,3.8477,3.8651,3.8718,3.8718,3.8718,3.8718,3.8718,3.8718,3.8718,3.8718,3.8718,3.8718,3.8718,3.8718,3.8718,3.8718,3.8718,3.8718,3.8691,3.8584,3.7475,3.6321,3.6079,3.3692,3.067,2.9196,2.5214,2.1041,1.9226,1.8762,1.8762,1.8762,1.8762,1.8762,1.8762,1.8762,1.8762,1.8762,1.8762,1.8762,1.8762,1.8762,1.8762,1.8762,1.8762,1.8762,1.8762,1.8762,1.8762,1.8762,1.8762,1.8762,1.8762,1.8762,1.8762,1.8762,1.8762,1.8762,1.8762,1.8762,1.8762,1.8762,1.8762,1.8762,1.8762,1.8762,1.8762,1.8762,1.8762,1.8762,3.0648,3.0955,3.1717,3.2986,3.2652,0.0,3.4135,3.4162,0.0,0.0,0.0,0.0,0.0,0.0,0.0,0.0,0.0,0.0,0.0,0.0,0.0,0.0,0.0,0.0,0.0,0.0,3.8718,3.8718,3.8718,3.8718,3.8718,3.8718,3.8718,3.8718,3.8718,3.8718,3.8718,3.8718,3.8718,3.8718,3.8718,3.8718,3.8718,3.8718,3.8718,3.8718,3.8718,3.8718,3.8718,3.8718,3.8718,3.8718,3.8718,3.8718,3.8718,3.8718,3.8718,3.8718,3.8718,3.8718,3.8678,3.7897,3.5886,3.343,3.2685,3.0236,2.697,2.382,2.081,1.8762,1.8762,1.8762,1.8762,1.8762,1.8762,1.8762,1.8762,1.8762,1.8762,1.8762,1.8762,1.8762,1.8762,1.8762,1.8762,1.8762,1.8762,1.8762,1.8762,1.8762,1.8762,1.8762,1.8762,1.8762,1.8762,1.8762,1.8762,1.8762,1.8762,1.8762,1.8762,1.8762,1.8762,1.8762,1.8762,1.8762,1.8762,1.8762,1.8762,1.8762,1.8762,1.8762,3.145,3.2011,3.2585,3.2412,3.3267,0.0,3.316,3.3267,3.3641,0.0,0.0,0.0,0.0,0.0,0.0,0.0,0.0,0.0,0.0,0.0,0.0,0.0,0.0,0.0,0.0,0.0,3.8718,3.8718,3.8718,3.8718,3.8718,3.8718,3.8718,3.8718,3.8718,3.8718,3.8718,3.8718,3.8718,3.8718,3.8718,3.8718,3.8718,3.8718,3.8718,3.8718,3.8718,3.8718,3.8718,3.8718,3.8718,3.8718,3.8718,3.8718,3.8718,3.8718,3.8718,3.8718,3.8718,3.8718,3.8214,3.5536,3.4111,3.2735,3.0105,2.6931,2.359,2.0601,1.9226,1.8762,1.8762,1.8762,1.8762,1.8762,1.8762,1.8762,1.8762,1.8762,1.8762,1.8762,1.8762,1.8762,1.8762,1.8762,1.8762,1.8762,1.8762,1.8762,1.8762,1.8762,1.8762,1.8762,1.8762,1.8762,1.8762,1.8762,1.8762,1.8762,1.8762,1.8762,1.8762,1.8762,1.8762,1.8762,1.8762,1.8762,1.8762,1.8762,1.8762,1.8762,1.8762,1.8762,3.2625,3.2973,3.3507,3.3788,3.3975,0.0,0.0,3.3627,3.3387,0.0,0.0,0.0,0.0,0.0,0.0,0.0,0.0,0.0,0.0,0.0,0.0,0.0,0.0,0.0,0.0,0.0,3.8437,3.829,3.8544,3.8651,3.8504,3.8651,3.8718,3.8718,3.8718,3.8718,3.8718,3.8718,3.8718,3.8718,3.8718,3.8718,3.8718,3.8718,3.8718,3.8718,3.8718,3.8718,3.8718,3.8718,3.8718,3.8718,3.8718,3.8718,3.8718,3.8718,3.8718,3.8718,3.8718,3.8611,3.7976,3.4633,3.2252,3.0169,2.6721,2.3624,2.0825,1.9219,1.8762,1.8762,1.8762,1.8762,1.8762,1.8762,1.8762,1.8762,1.8762,1.8762,1.8762,1.8762,1.8762,1.8762,1.8762,1.8762,1.8762,1.8762,1.8762,1.8762,1.8762,1.8762,1.8762,1.8762,1.8762,1.8762,1.8762,1.8762,1.8762,1.8762,1.8762,1.8762,1.8762,1.8762,1.8762,1.8762,1.8762,1.8762,1.8762,1.8762,1.8762,1.8762,1.8762,1.8762,3.4135,3.4322,3.4803,3.5458,3.4937,3.4442,0.0,0.0,0.0,0.0,0.0,0.0,0.0,0.0,0.0,0.0,0.0,0.0,0.0,0.0,0.0,0.0,0.0,0.0,0.0,0.0,3.7969,3.7809,3.821,3.8397,3.8263,3.8504,3.8651,3.8718,3.8651,3.8651,3.8718,3.8718,3.8718,3.8718,3.8718,3.8718,3.8718,3.8718,3.8718,3.8718,3.8718,3.8718,3.8718,3.8718,3.8718,3.8718,3.8718,3.8718,3.8718,3.8718,3.8718,3.8718,3.8651,3.8477,3.7725,3.3666,2.9699,2.6041,2.4041,2.1279,1.8762,1.8762,1.8762,1.8762,1.8762,1.8762,1.8762,1.8762,1.8762,1.8762,1.8762,1.8762,1.8762,1.8762,1.8762,1.8762,1.8762,1.8762,1.8762,1.8762,1.8762,1.8762,1.8762,1.8762,1.8762,1.8762,1.8762,1.8762,1.8762,1.8762,1.8762,1.8762,1.8762,1.8762,1.8762,1.8762,1.8762,1.8762,1.8762,1.8762,1.8762,1.8762,1.8762,1.8762,1.8762,1.8762,3.6179,3.6754,3.7088,0.0,3.6473,0.0,0.0,0.0,3.467,0.0,0.0,0.0,0.0,0.0,0.0,0.0,0.0,0.0,0.0,0.0,0.0,0.0,0.0,0.0,0.0,0.0,0.0,3.7782,3.7635,3.7742,3.8223,3.829,3.8437,3.8718,3.8477,3.8437,3.8718,3.8718,3.8718,3.8718,3.8718,3.8718,3.8718,3.8718,3.8718,3.8718,3.8718,3.8718,3.8718,3.8718,3.8718,3.8718,3.8718,3.8718,3.8718,3.8718,3.8718,3.8691,3.8397,3.829,3.7227,3.0912,2.4881,2.0377,2.2645,2.1279,1.8762,1.8762,1.8762,1.8762,1.8762,1.8762,1.8762,1.8762,1.8762,1.8762,1.8762,1.8762,1.8762,1.8762,1.8762,1.8762,1.8762,1.8762,1.8762,1.8762,1.8762,1.8762,1.8762,1.8762,1.8762,1.8762,1.8762,1.8762,1.8762,1.8762,1.8762,1.8762,1.8762,1.8762,1.8762,1.8762,1.8762,1.8762,1.8762,1.8762,1.8762,1.8762,1.8762,1.8762,1.8762,1.8762,3.65,3.6767,0.0,0.0,0.0,0.0,3.5151,0.0,3.4389,0.0,0.0,0.0,0.0,0.0,0.0,0.0,0.0,0.0,0.0,0.0,0.0,0.0,0.0,0.0,0.0,0.0,0.0,0.0,0.0,3.7155,3.7235,3.7716,3.8076,3.8183,3.8076,3.8143,3.8437,3.8437,3.8544,3.8718,3.8718,3.8718,3.8718,3.8718,3.8718,3.8718,3.8718,3.8718,3.8718,3.8718,3.8611,3.8437,3.8437,3.8584,3.8718,3.8718,3.8718,3.8691,3.8584,3.829,3.7194,3.226,2.6558,2.1725,2.2867,2.1279,1.8762,1.8762,1.8762,1.8762,1.8762,1.8762,1.8762,1.8762,1.8762,1.8762,1.8762,1.8762,1.8762,1.8762,1.8762,1.8762,1.8762,1.8762,1.8762,1.8762,1.8762,1.8762,1.8762,1.8762,1.8762,1.8762,1.8762,1.8762,1.8762,1.8762,1.8762,1.8762,1.8762,1.8762,1.8762,1.8762,1.8762,1.8762,1.8762,1.8762,1.8762,1.8762,1.8762,1.8762,1.8762,1.8762,3.7021,0.0,0.0,0.0,0.0,0.0,0.0,0.0,0.0,0.0,0.0,0.0,0.0,0.0,3.3293,3.3334,0.0,0.0,0.0,0.0,0.0,0.0,0.0,0.0,0.0,0.0,0.0,0.0,3.6019,3.6393,3.65,3.7128,3.7555,3.7809,3.7742,3.7849,3.8143,3.8143,3.829,3.8584,3.8584,3.8584,3.8584,3.8584,3.8544,3.8464,3.8464,3.8504,3.8584,3.8504,3.8397,3.8263,3.8183,3.829,3.8464,3.8584,3.8651,3.8718,3.8624,3.7725,3.6201,3.4346,2.8996,2.3556,2.4226,2.1963,1.8762,1.8762,1.8762,1.8762,1.8762,1.8762,1.8762,1.8762,1.8762,1.8762,1.8762,1.8762,1.8762,1.8762,1.8762,1.8762,1.8762,1.8762,1.8762,1.8762,1.8762,1.8762,1.8762,1.8762,1.8762,1.8762,1.8762,1.8762,1.8762,1.8762,1.8762,1.8762,1.8762,1.8762,1.8762,1.8762,1.8762,1.8762,1.8762,1.8762,1.8762,1.8762,1.8762,1.8782,1.8762,1.8762,0.0,0.0,0.0,3.6941,0.0,0.0,0.0,0.0,3.6259,0.0,0.0,0.0,0.0,3.5311,3.4923,3.4362,3.4282,0.0,0.0,0.0,0.0,0.0,0.0,0.0,0.0,0.0,0.0,3.5164,3.4963,3.5311,3.6433,3.654,3.6941,3.7782,3.7529,3.7529,3.7809,3.7823,3.7969,3.8263,3.8263,3.8263,3.8263,3.8263,3.8116,3.7849,3.7849,3.7996,3.8263,3.7956,3.7996,3.8223,3.7929,3.7849,3.7889,3.8183,3.8477,3.8691,3.837,3.6016,3.3404,3.5909,3.0576,2.3785,2.6737,2.3539,1.8762,1.8762,1.8762,1.8762,1.8762,1.8762,1.8762,1.8762,1.8762,1.8762,1.8762,1.8762,1.8762,1.8762,1.8762,1.8762,1.8762,1.8762,1.8762,1.8762,1.8762,1.8762,1.8762,1.8762,1.8762,1.8762,1.8762,1.8762,1.8762,1.8762,1.8762,1.8762,1.8762,1.8762,1.8762,1.8762,1.8762,1.8762,1.8762,1.8762,1.8762,1.8762,1.8782,1.883,1.8782,1.8782,0.0,0.0,3.829,3.7088,0.0,0.0,0.0,0.0,0.0,0.0,0.0,0.0,3.634,3.5819,3.5351,3.4963,3.4736,3.4309,0.0,0.0,0.0,0.0,0.0,0.0,0.0,0.0,0.0,3.4576,3.4523,3.4723,0.0,3.6086,3.654,3.666,3.6941,3.7235,3.7529,3.7529,3.7676,3.7969,3.7969,3.7969,3.7969,3.7969,3.7929,3.7809,3.7809,3.7889,3.7956,3.7849,3.7742,3.7676,3.7569,3.7529,3.7569,3.7849,3.8036,3.8103,3.7996,3.701,3.5931,3.659,3.3515,2.918,2.7897,2.4804,2.1725,2.1725,2.1725,2.1725,2.1725,2.1725,2.1264,1.9226,1.8762,1.8762,1.8762,1.8762,1.8762,1.8762,1.8762,1.8762,1.8762,1.8762,1.8762,1.8762,1.8762,1.8762,1.8762,1.8762,1.8762,1.8762,1.8762,1.8762,1.8762,1.8762,1.8762,1.8762,1.8762,1.8762,1.8762,1.8762,1.8762,1.8762,1.8762,1.8762,1.8762,1.8762,1.8782,1.883,1.8816,1.883,4.0095,3.9823,0.0,3.7673,3.7342,0.0,3.6193,0.0,0.0,0.0,0.0,0.0,3.7809,3.6941,3.6153,3.5859,3.5217,3.4309,0.0,3.2332,0.0,0.0,0.0,0.0,0.0,0.0,3.3574,3.3961,3.3908,3.4068,0.0,0.0,3.5992,3.6219,3.658,3.6941,3.7235,3.7235,3.7382,3.7676,3.7676,3.7676,3.7676,3.7676,3.7595,3.7489,3.7489,3.7555,3.7662,3.7555,3.7448,3.7382,3.7275,3.7235,3.7275,3.7555,3.7742,3.7782,3.7555,3.7382,3.7155,3.6754,3.46,3.1646,2.9553,2.6936,2.4822,2.4894,2.4921,2.4921,2.4921,2.4191,2.2776,2.081,1.964,1.8694,1.8742,1.8762,1.8762,1.8762,1.8762,1.8762,1.8762,1.8762,1.8762,1.8762,1.8762,1.8762,1.8762,1.8762,1.8762,1.8762,1.8762,1.8762,1.8762,1.8762,1.8762,1.8762,1.8762,1.8762,1.8762,1.8762,1.8816,1.8918,1.8816,1.8816,1.8918,1.8816,1.8796,1.8843,1.6454,1.6724]},{"header":{"parameterUnit":"m.s-1","parameterCategory":1,"la1":30.6,"la2":29.2853,"lo1":-89.7004,"lo2":-87.6739,"dx":0.0162,"dy":0.0183,"nx":112,"ny":82,"refTime":"2023-01-25T06:00:00:Z","depth":0,"parameterNumber":3,"parameterNumberName":"V-component_of_WINDS"},"data":[0.0,0.0,0.0,0.0,0.0,0.0,0.0,0.0,0.0,0.0,0.0,0.0,0.0,0.0,0.0,0.0,0.0,0.0,0.0,0.0,0.0,0.0,0.0,0.0,0.0,0.0,0.0,0.0,0.0,0.0,0.0,0.0,0.0,0.0,0.0,0.0,0.0,0.0,0.0,0.0,0.0,0.0,0.0,0.0,0.0,0.0,0.0,0.0,0.0,0.0,0.0,0.0,0.0,0.0,0.0,0.0,0.0,0.0,0.0,0.0,0.0,0.0,0.0,0.0,0.0,0.0,0.0,0.0,0.0,0.0,0.0,0.0,0.0,0.0,0.0,0.0,0.0,0.0,0.0,0.0,0.0,0.0,0.0,0.0,0.0,0.0,0.0,0.0,0.0,0.0,-7.3135,-7.434,-7.8815,-8.2285,-8.3849,-8.3638,-8.3247,-8.2862,0.0,0.0,0.0,0.0,0.0,0.0,0.0,0.0,0.0,0.0,0.0,0.0,0.0,0.0,0.0,0.0,0.0,0.0,0.0,0.0,0.0,0.0,0.0,0.0,0.0,0.0,0.0,0.0,0.0,0.0,0.0,0.0,0.0,0.0,0.0,0.0,0.0,0.0,0.0,0.0,0.0,0.0,0.0,0.0,0.0,0.0,0.0,0.0,0.0,0.0,0.0,0.0,0.0,0.0,0.0,0.0,0.0,0.0,0.0,0.0,0.0,0.0,0.0,0.0,0.0,0.0,0.0,0.0,0.0,0.0,0.0,0.0,0.0,0.0,0.0,0.0,0.0,0.0,0.0,0.0,0.0,0.0,0.0,0.0,0.0,0.0,0.0,0.0,0.0,0.0,0.0,0.0,0.0,0.0,0.0,0.0,0.0,0.0,0.0,0.0,0.0,0.0,0.0,0.0,-7.4769,-7.8438,-8.2138,-8.4676,-8.5632,-8.3759,-8.2874,-8.388,0.0,0.0,0.0,0.0,0.0,0.0,0.0,0.0,0.0,0.0,0.0,0.0,0.0,0.0,0.0,0.0,0.0,0.0,0.0,0.0,0.0,0.0,0.0,0.0,0.0,0.0,0.0,0.0,0.0,0.0,0.0,0.0,0.0,0.0,0.0,0.0,0.0,0.0,0.0,0.0,0.0,0.0,0.0,0.0,0.0,0.0,0.0,0.0,0.0,0.0,0.0,0.0,0.0,0.0,0.0,0.0,0.0,0.0,0.0,0.0,0.0,0.0,0.0,0.0,0.0,0.0,0.0,0.0,0.0,0.0,0.0,0.0,0.0,0.0,0.0,0.0,0.0,0.0,0.0,0.0,0.0,0.0,0.0,0.0,0.0,0.0,0.0,0.0,0.0,0.0,0.0,0.0,0.0,0.0,0.0,0.0,0.0,0.0,0.0,0.0,0.0,0.0,0.0,-7.5281,-7.7468,-8.0799,-8.3374,-8.5445,-8.668,-8.4882,-8.361,-8.3349,-8.3126,0.0,0.0,0.0,0.0,0.0,0.0,0.0,0.0,0.0,0.0,0.0,0.0,0.0,0.0,0.0,0.0,0.0,0.0,0.0,0.0,0.0,0.0,0.0,0.0,0.0,0.0,0.0,0.0,0.0,0.0,0.0,0.0,0.0,0.0,0.0,0.0,0.0,0.0,0.0,0.0,0.0,0.0,0.0,0.0,0.0,0.0,0.0,0.0,0.0,0.0,0.0,0.0,0.0,0.0,0.0,0.0,0.0,0.0,0.0,0.0,0.0,0.0,0.0,0.0,0.0,0.0,0.0,0.0,0.0,0.0,0.0,0.0,0.0,0.0,0.0,0.0,0.0,0.0,0.0,0.0,0.0,0.0,0.0,0.0,0.0,0.0,0.0,0.0,0.0,0.0,0.0,0.0,0.0,0.0,0.0,0.0,0.0,0.0,0.0,0.0,0.0,0.0,-7.7746,-7.9768,-8.2342,-8.4489,-8.6291,-8.7602,-8.5769,-8.4153,-8.3054,-8.2212,0.0,0.0,0.0,0.0,0.0,0.0,0.0,0.0,0.0,0.0,0.0,0.0,0.0,0.0,0.0,0.0,0.0,0.0,0.0,0.0,0.0,0.0,0.0,0.0,0.0,0.0,0.0,0.0,0.0,0.0,0.0,0.0,0.0,0.0,0.0,0.0,0.0,0.0,0.0,0.0,0.0,0.0,0.0,0.0,0.0,0.0,0.0,0.0,0.0,0.0,0.0,0.0,0.0,0.0,0.0,0.0,0.0,0.0,0.0,0.0,0.0,0.0,0.0,0.0,0.0,0.0,0.0,0.0,0.0,0.0,0.0,0.0,0.0,0.0,0.0,0.0,0.0,0.0,0.0,0.0,0.0,0.0,0.0,0.0,0.0,0.0,0.0,0.0,0.0,0.0,0.0,0.0,0.0,0.0,0.0,0.0,0.0,0.0,0.0,0.0,0.0,0.0,-7.8154,-8.0683,-8.3259,-8.644,-8.8469,-8.8623,-8.5574,-8.3777,-8.4066,-8.0415,0.0,0.0,0.0,0.0,0.0,0.0,0.0,0.0,0.0,0.0,0.0,0.0,0.0,0.0,0.0,0.0,0.0,0.0,0.0,0.0,0.0,0.0,0.0,0.0,0.0,0.0,0.0,0.0,0.0,0.0,0.0,0.0,0.0,0.0,0.0,0.0,0.0,0.0,0.0,0.0,0.0,0.0,0.0,0.0,0.0,0.0,0.0,0.0,0.0,0.0,0.0,0.0,0.0,0.0,0.0,0.0,0.0,0.0,0.0,0.0,0.0,0.0,0.0,0.0,0.0,0.0,0.0,0.0,0.0,0.0,0.0,0.0,0.0,0.0,0.0,0.0,0.0,0.0,0.0,0.0,0.0,0.0,0.0,0.0,0.0,0.0,0.0,0.0,0.0,0.0,0.0,0.0,0.0,0.0,0.0,0.0,0.0,0.0,0.0,0.0,0.0,0.0,-7.9477,-8.1939,-8.3451,-8.5709,-8.7517,-8.8598,-8.6073,-8.411,-8.3432,0.0,0.0,0.0,0.0,0.0,0.0,0.0,0.0,0.0,0.0,0.0,0.0,0.0,0.0,0.0,0.0,0.0,0.0,0.0,0.0,0.0,0.0,0.0,0.0,0.0,0.0,0.0,0.0,0.0,0.0,0.0,0.0,0.0,0.0,0.0,0.0,0.0,0.0,0.0,0.0,0.0,0.0,0.0,0.0,0.0,0.0,0.0,0.0,0.0,0.0,0.0,0.0,0.0,0.0,0.0,0.0,0.0,0.0,0.0,0.0,0.0,0.0,0.0,0.0,0.0,0.0,0.0,0.0,0.0,0.0,0.0,0.0,0.0,0.0,0.0,0.0,0.0,0.0,0.0,0.0,0.0,0.0,0.0,0.0,0.0,0.0,0.0,0.0,0.0,0.0,0.0,0.0,0.0,0.0,0.0,0.0,0.0,0.0,0.0,0.0,0.0,0.0,-7.7121,-8.0008,-8.2362,-8.349,-8.556,-8.7286,-8.8214,-8.5958,-8.4105,-8.3259,0.0,0.0,0.0,0.0,0.0,0.0,0.0,0.0,0.0,0.0,0.0,0.0,0.0,0.0,0.0,0.0,0.0,0.0,0.0,0.0,0.0,0.0,0.0,0.0,0.0,0.0,0.0,0.0,0.0,0.0,0.0,0.0,0.0,0.0,0.0,0.0,0.0,0.0,0.0,0.0,0.0,0.0,0.0,0.0,0.0,0.0,0.0,0.0,0.0,0.0,0.0,0.0,0.0,0.0,0.0,0.0,0.0,0.0,0.0,0.0,0.0,0.0,0.0,0.0,0.0,0.0,0.0,0.0,0.0,0.0,0.0,0.0,0.0,0.0,0.0,0.0,0.0,0.0,0.0,0.0,0.0,0.0,0.0,0.0,0.0,0.0,0.0,0.0,0.0,0.0,0.0,0.0,0.0,0.0,0.0,0.0,0.0,0.0,0.0,0.0,0.0,0.0,-7.7083,-7.9546,-8.1715,-8.3413,-8.6632,-8.8353,-8.7473,-8.5074,-8.3692,0.0,0.0,0.0,0.0,0.0,0.0,0.0,0.0,0.0,0.0,0.0,0.0,0.0,0.0,0.0,0.0,0.0,0.0,0.0,0.0,0.0,0.0,0.0,0.0,0.0,0.0,0.0,0.0,0.0,0.0,0.0,0.0,0.0,0.0,0.0,0.0,0.0,0.0,0.0,0.0,0.0,0.0,0.0,0.0,0.0,0.0,0.0,0.0,0.0,0.0,0.0,0.0,0.0,0.0,0.0,0.0,0.0,0.0,0.0,0.0,0.0,0.0,0.0,0.0,0.0,0.0,0.0,0.0,0.0,0.0,0.0,0.0,0.0,0.0,0.0,0.0,0.0,0.0,0.0,0.0,0.0,0.0,0.0,0.0,0.0,0.0,0.0,0.0,0.0,0.0,0.0,0.0,0.0,0.0,0.0,0.0,0.0,0.0,0.0,0.0,0.0,0.0,0.0,-7.792,-7.9892,-8.1715,-8.3413,-8.6094,-8.7671,-8.741,-8.507,-8.3682,-8.3888,0.0,0.0,0.0,0.0,0.0,0.0,0.0,0.0,0.0,0.0,0.0,0.0,0.0,0.0,0.0,0.0,0.0,0.0,0.0,0.0,0.0,0.0,0.0,0.0,0.0,0.0,0.0,0.0,0.0,0.0,0.0,0.0,0.0,0.0,0.0,0.0,0.0,0.0,0.0,0.0,0.0,0.0,0.0,0.0,0.0,0.0,0.0,0.0,0.0,0.0,0.0,0.0,0.0,0.0,0.0,0.0,0.0,0.0,0.0,0.0,0.0,0.0,0.0,0.0,0.0,0.0,0.0,0.0,0.0,0.0,0.0,0.0,0.0,0.0,0.0,0.0,0.0,0.0,0.0,0.0,0.0,0.0,0.0,0.0,0.0,0.0,0.0,0.0,0.0,0.0,0.0,0.0,0.0,0.0,0.0,0.0,0.0,0.0,0.0,0.0,0.0,0.0,-7.8758,-8.0238,-8.1869,-8.3912,-8.6094,-8.7401,-8.7414,-8.5681,-8.4362,-8.3796,0.0,0.0,0.0,0.0,0.0,0.0,0.0,0.0,0.0,0.0,0.0,0.0,0.0,0.0,0.0,0.0,0.0,0.0,0.0,0.0,0.0,0.0,0.0,0.0,0.0,0.0,0.0,0.0,0.0,0.0,0.0,0.0,0.0,0.0,0.0,0.0,0.0,0.0,0.0,0.0,0.0,0.0,0.0,0.0,0.0,0.0,0.0,0.0,0.0,0.0,0.0,0.0,0.0,0.0,0.0,0.0,0.0,0.0,0.0,0.0,0.0,0.0,0.0,0.0,0.0,0.0,0.0,0.0,0.0,0.0,0.0,0.0,0.0,0.0,0.0,0.0,0.0,0.0,0.0,0.0,0.0,0.0,0.0,0.0,0.0,0.0,0.0,0.0,0.0,0.0,0.0,0.0,0.0,0.0,0.0,0.0,0.0,0.0,0.0,0.0,0.0,0.0,-7.9605,-8.0662,-8.2138,-8.4637,-8.6478,-8.7478,-8.7414,-8.6714,-8.5511,-8.3817,0.0,0.0,0.0,0.0,0.0,0.0,0.0,0.0,0.0,0.0,0.0,0.0,0.0,0.0,0.0,0.0,0.0,0.0,0.0,0.0,0.0,0.0,0.0,0.0,0.0,0.0,0.0,0.0,0.0,0.0,0.0,0.0,0.0,0.0,0.0,0.0,0.0,0.0,0.0,0.0,0.0,0.0,0.0,0.0,0.0,0.0,0.0,0.0,0.0,0.0,0.0,0.0,0.0,0.0,0.0,0.0,0.0,0.0,0.0,0.0,-7.1695,0.0,0.0,0.0,0.0,0.0,0.0,0.0,0.0,0.0,0.0,0.0,0.0,0.0,0.0,0.0,0.0,0.0,0.0,0.0,0.0,0.0,0.0,0.0,0.0,0.0,0.0,0.0,0.0,0.0,0.0,0.0,0.0,0.0,0.0,0.0,0.0,0.0,0.0,0.0,0.0,0.0,-8.0585,-8.1561,-8.2798,-8.4714,-8.7012,-8.8128,-8.744,-8.7218,-8.6411,-8.4709,-8.338,0.0,0.0,0.0,0.0,0.0,0.0,0.0,0.0,0.0,0.0,0.0,0.0,0.0,0.0,0.0,0.0,0.0,0.0,0.0,0.0,0.0,0.0,0.0,0.0,0.0,0.0,0.0,0.0,0.0,0.0,0.0,0.0,0.0,0.0,0.0,0.0,0.0,0.0,0.0,0.0,0.0,0.0,0.0,0.0,0.0,0.0,0.0,0.0,0.0,0.0,0.0,0.0,0.0,0.0,0.0,0.0,0.0,0.0,0.0,0.0,-7.4976,0.0,0.0,0.0,0.0,0.0,0.0,0.0,0.0,0.0,0.0,0.0,0.0,0.0,0.0,0.0,0.0,0.0,0.0,0.0,0.0,0.0,0.0,0.0,0.0,0.0,0.0,0.0,0.0,0.0,0.0,0.0,0.0,0.0,0.0,0.0,0.0,0.0,0.0,0.0,0.0,-8.1984,-8.2298,-8.3566,-8.6945,-8.8171,-8.9017,-8.9787,-8.9448,-8.8525,-8.6834,-8.5896,0.0,0.0,0.0,0.0,0.0,0.0,0.0,0.0,0.0,0.0,0.0,0.0,0.0,0.0,0.0,0.0,0.0,0.0,0.0,0.0,0.0,0.0,0.0,0.0,0.0,0.0,0.0,0.0,0.0,0.0,0.0,0.0,0.0,0.0,0.0,0.0,0.0,0.0,0.0,0.0,0.0,0.0,0.0,0.0,0.0,0.0,0.0,0.0,0.0,0.0,0.0,0.0,0.0,0.0,-8.2441,-8.2983,-8.4045,-8.417,-8.3555,-8.2477,-8.0554,-7.8246,0.0,0.0,0.0,0.0,0.0,0.0,0.0,0.0,0.0,0.0,0.0,0.0,0.0,0.0,0.0,0.0,0.0,0.0,0.0,0.0,0.0,0.0,0.0,0.0,0.0,-8.4593,-8.3939,0.0,0.0,0.0,0.0,0.0,0.0,0.0,0.0,0.0,0.0,0.0,0.0,-8.3451,-8.3599,-8.5137,-8.9636,-8.9678,-9.0216,-9.2328,-9.1946,-9.0947,-8.922,-8.8989,-8.6945,0.0,0.0,0.0,0.0,0.0,0.0,0.0,0.0,0.0,0.0,0.0,0.0,0.0,0.0,0.0,0.0,0.0,0.0,0.0,0.0,0.0,0.0,0.0,0.0,0.0,0.0,0.0,0.0,0.0,0.0,0.0,0.0,-7.2349,-7.3266,0.0,0.0,0.0,0.0,0.0,0.0,0.0,0.0,0.0,0.0,0.0,0.0,0.0,0.0,-7.8993,-8.0588,-8.1366,-8.1363,-8.4454,-8.5469,-8.4733,-8.6964,-8.8363,-8.8979,-9.0248,0.0,-8.1554,-8.0323,0.0,0.0,0.0,0.0,0.0,0.0,0.0,0.0,0.0,0.0,0.0,0.0,0.0,0.0,0.0,0.0,0.0,0.0,0.0,0.0,0.0,0.0,-8.417,-8.4632,-8.594,-8.6632,0.0,-8.4401,-8.3824,-8.3054,-8.1323,0.0,0.0,0.0,0.0,0.0,0.0,0.0,-8.4561,-8.656,-8.8671,-9.0821,-9.1636,-9.214,-9.2486,-9.3024,-9.264,-9.0989,-9.0144,-8.9105,-8.7752,-8.495,0.0,0.0,0.0,0.0,0.0,0.0,0.0,0.0,0.0,0.0,0.0,0.0,0.0,0.0,0.0,0.0,0.0,0.0,0.0,0.0,0.0,0.0,0.0,0.0,0.0,0.0,0.0,0.0,0.0,-7.4768,-7.5957,-7.4537,-7.6644,-7.7965,0.0,0.0,0.0,0.0,0.0,0.0,0.0,0.0,0.0,-8.0608,-8.1415,-8.1819,-8.1819,-8.3875,-8.5257,-8.6066,-8.8801,-9.0398,-9.0851,-9.2793,-9.4136,-9.498,-9.6211,-9.5057,-9.1979,-8.7902,-8.6094,-8.5593,0.0,0.0,0.0,0.0,0.0,-8.0285,-8.04,-8.0439,0.0,0.0,0.0,0.0,0.0,0.0,0.0,0.0,0.0,0.0,0.0,0.0,0.0,-9.0248,-9.1864,-9.3095,-9.321,-9.2595,-9.0902,0.0,-8.594,-8.5324,-8.4868,0.0,0.0,0.0,0.0,-8.5988,-8.8825,-8.9286,-9.0594,-9.371,-9.352,-9.3597,-9.4559,-9.4982,-9.4674,-9.3408,-9.2524,-9.1254,-8.9444,-8.7944,-8.6863,0.0,0.0,0.0,0.0,0.0,0.0,0.0,0.0,0.0,0.0,0.0,0.0,0.0,0.0,0.0,0.0,0.0,0.0,0.0,0.0,0.0,0.0,0.0,0.0,0.0,0.0,0.0,0.0,-7.7558,-7.8573,-7.6043,-7.8713,-8.0057,0.0,0.0,0.0,0.0,0.0,0.0,-8.3324,-8.3838,-8.4242,-8.4646,-8.5453,-8.6004,-8.6187,-8.8169,-8.9784,-9.0996,-9.3344,-9.5021,-9.5966,-9.7945,-9.9075,-9.9552,-10.0634,-10.1173,-10.0981,-9.5403,-9.2556,-9.1325,-8.8556,-8.7478,-8.7248,-8.5286,-8.5247,-8.6209,-8.644,-8.6786,-8.7286,-8.8094,0.0,-8.7363,-8.5478,0.0,0.0,0.0,0.0,-8.8132,-8.9863,-9.1556,-9.3403,-9.5749,-9.7403,-9.8634,-9.9288,-9.8942,-9.6788,0.0,-9.0133,-8.9902,-8.8863,0.0,0.0,0.0,0.0,-8.9025,-9.2672,-9.2364,-9.3249,-9.6865,-9.5903,-9.5518,-9.6826,-9.6942,-9.6596,-9.5674,-9.5058,-9.3636,-9.1287,-9.0825,-8.9359,-8.6801,0.0,0.0,0.0,0.0,0.0,0.0,0.0,0.0,0.0,0.0,0.0,0.0,0.0,0.0,0.0,0.0,0.0,0.0,0.0,0.0,0.0,0.0,0.0,0.0,0.0,0.0,0.0,0.0,0.0,-7.8255,-8.112,0.0,0.0,0.0,0.0,-8.3177,-8.4572,-8.582,-8.6738,-8.8206,-8.9748,-9.1253,-9.217,-9.2978,-9.3749,-9.463,-9.5107,-9.5217,-9.7607,-9.8426,-9.7785,-10.0878,-10.2015,-10.1377,-10.2965,-10.4097,-10.4482,-10.0212,-9.8865,-9.9173,-9.5788,-9.448,-9.4172,-9.1672,-9.1787,-9.2979,-9.1441,-9.1941,-9.3403,-9.4249,-9.348,-9.171,-8.921,-8.8979,0.0,0.0,-9.0825,-9.2556,-9.4249,-9.5942,-9.7634,-9.9404,-10.0481,-10.1096,-10.1212,-10.1096,-9.9596,0.0,-9.221,-9.0633,-8.8979,0.0,-8.8589,-8.8632,-9.0639,-9.283,-9.4634,-9.6172,-9.7827,-9.9712,-9.9096,-9.8557,-9.8673,-9.8673,-9.8288,-9.7442,-9.7326,-9.6557,-9.4788,-9.321,-9.1902,-9.0902,-8.7671,0.0,0.0,0.0,0.0,0.0,0.0,0.0,0.0,0.0,0.0,0.0,0.0,0.0,0.0,0.0,0.0,0.0,0.0,0.0,0.0,0.0,0.0,0.0,0.0,0.0,0.0,0.0,0.0,-8.3164,-8.606,0.0,0.0,-8.6444,-8.6921,-8.7986,-8.8573,-8.9711,-9.1583,-9.2721,-9.3822,-9.4923,-9.5768,-9.6318,-9.6612,-9.7419,-9.7823,-9.7823,-9.9238,-9.9945,-10.0215,-10.1865,-10.3072,-10.3884,-10.4511,-10.5486,-10.6713,-10.5713,-10.4482,-10.3097,-10.0789,-9.9904,-9.9712,-9.825,-9.8096,-9.8596,-9.8557,-9.8557,-9.8442,-9.7711,-9.6673,-9.5441,-9.4018,-9.3403,-9.3403,-9.448,-9.6057,-9.7788,-9.9442,-10.1096,-10.2481,-10.3212,-10.3982,-10.4597,-10.4597,-10.502,-10.4905,-10.3097,-9.9558,-9.6749,-9.6134,-9.5095,-9.4749,-9.5865,-9.6327,-9.7366,-9.9596,-9.9904,-10.0404,-10.1597,-10.0904,-10.0404,-10.0404,-9.9942,-9.9327,-9.8634,-9.7904,-9.7057,-9.6057,-9.4788,-9.3249,-9.1441,-8.9133,-8.7391,0.0,0.0,0.0,0.0,0.0,0.0,0.0,0.0,0.0,0.0,0.0,0.0,0.0,0.0,0.0,0.0,0.0,0.0,0.0,0.0,0.0,0.0,0.0,0.0,0.0,0.0,-8.7532,-8.8084,-9.0587,-9.1904,-9.1141,-9.1069,-9.151,-9.2574,-9.3418,-9.4703,-9.6612,-9.7493,-9.83,-9.9108,-9.9659,-9.9916,-9.9916,-10.0503,-10.0723,-10.0723,-10.131,-10.1817,-10.2278,-10.2903,-10.373,-10.4818,-10.5087,-10.6002,-10.7417,-10.8782,-10.8482,-10.7098,-10.602,-10.5405,-10.5097,-10.4212,-10.4097,-10.4405,-10.4982,-10.4405,-10.3212,-10.1789,-10.0789,-9.9904,-9.9096,-9.8634,-9.8711,-10.0096,-10.1481,-10.2981,-10.4405,-10.5482,-10.6405,-10.6405,-10.679,-10.7213,-10.7213,-10.7713,-10.8098,-10.8098,-10.5213,-10.2481,-10.1904,-10.0789,-10.0481,-10.1597,-10.1289,-10.1712,-10.402,-10.3597,-10.3212,-10.3789,-10.3097,-10.2404,-10.1789,-10.1597,-10.0904,-9.9327,-9.8237,-9.7114,-9.5903,-9.5095,-9.3864,-9.2098,-8.9548,-8.7099,-8.4728,0.0,0.0,0.0,0.0,0.0,0.0,0.0,0.0,0.0,0.0,0.0,0.0,0.0,0.0,0.0,0.0,0.0,0.0,0.0,0.0,0.0,0.0,0.0,-8.3936,-8.8362,-9.1777,-9.2765,-9.4547,-9.5409,-9.4631,-9.6025,-9.6942,-9.6979,-9.9108,-10.0796,-10.1567,-10.2301,-10.3109,-10.388,-10.3917,-10.3917,-10.3917,-10.3917,-10.388,-10.388,-10.388,-10.388,-10.3843,-10.3872,-10.3868,-10.3974,-10.478,-10.5663,-10.6566,-10.9182,-11.0714,-11.1522,-11.1598,-11.1098,-11.0214,-10.929,-10.9483,-11.0214,-11.0214,-10.9213,-10.7713,-10.679,-10.5905,-10.5097,-10.4289,-10.4597,-10.5405,-10.6213,-10.7098,-10.7982,-10.8713,-10.8983,-10.8983,-10.8906,-10.8906,-10.8906,-10.8906,-10.8906,-10.8906,-10.8983,-10.8406,-10.729,-10.5482,-10.5213,-10.5213,-10.5213,-10.5213,0.0,-10.7482,-10.7021,-10.6521,-10.6521,-10.5713,-10.4597,-10.2904,-10.3674,-10.2828,-9.9442,-9.8351,-9.6793,-9.4482,-9.4172,-9.3787,-9.3139,-8.898,-8.4859,-8.09,0.0,0.0,0.0,0.0,0.0,0.0,0.0,0.0,0.0,0.0,0.0,0.0,0.0,0.0,0.0,0.0,0.0,0.0,0.0,0.0,0.0,0.0,-8.6611,-8.7587,-9.0398,-9.3611,-9.6965,-9.935,-10.0892,-10.1164,-10.1677,-10.2191,-10.2705,-10.2889,-10.3293,-10.41,-10.3806,-10.3917,-10.4724,-10.4798,-10.4798,-10.4798,-10.4798,-10.4504,-10.388,-10.388,-10.388,-10.388,-10.3911,-10.4239,-10.4909,-10.5065,-10.6035,-10.7392,-10.9392,-11.0692,-11.1598,-11.2791,-11.3214,-11.2791,-11.1983,-11.1406,-11.1098,-11.1098,-11.0791,-11.0291,-10.9406,-10.8598,-10.779,-10.7598,-10.729,-10.7213,-10.7982,-10.879,-10.9598,-10.979,-11.0291,-11.0598,-10.9983,-10.979,-10.979,-10.979,-10.979,-10.9983,-11.0714,-11.0598,-10.9906,-10.8213,-10.7905,-10.7905,-10.7905,-10.7905,0.0,-10.8482,-10.8406,-10.8213,-10.8213,-10.7982,-10.7405,-10.6405,-10.4905,-10.2902,-10.02,-9.7388,-9.5307,-9.421,-9.3518,-9.2636,-9.1565,-8.8772,-8.6728,0.0,0.0,0.0,0.0,0.0,0.0,0.0,0.0,0.0,0.0,0.0,0.0,0.0,0.0,0.0,0.0,0.0,0.0,0.0,0.0,0.0,0.0,-8.8287,-9.1316,-9.302,-9.4758,-9.7423,-10.163,-10.3427,-10.4587,-10.5432,-10.5789,-10.6119,-10.6596,-10.6816,-10.7183,-10.7624,-10.689,-10.6816,-10.7624,-10.7,-10.6816,-10.711,-10.6816,-10.6413,-10.5899,-10.5605,-10.5385,-10.5385,-10.4687,-10.4685,0.0,-10.521,-10.5926,-10.7302,-10.9726,-11.1007,0.0,0.0,0.0,0.0,0.0,-11.2714,-11.2022,-11.1598,-11.1522,-11.1406,-11.0906,-11.0406,-11.0021,-11.0021,-10.9713,-10.9406,-10.9906,-11.0406,-11.0714,-11.0714,-11.1098,-11.1406,-11.0906,-11.0714,-11.0714,-11.0714,-11.0714,-11.0906,-11.1406,-11.1522,0.0,-11.0214,-11.0021,-11.0021,-11.0021,-11.0021,-11.0021,-11.0021,-11.0021,-10.979,-10.9483,-10.9406,-10.879,-10.729,-10.5597,0.0,0.0,0.0,-9.5129,-9.3782,-9.3078,0.0,0.0,0.0,-8.8943,-8.7504,0.0,0.0,0.0,-8.2109,-8.2148,0.0,0.0,0.0,0.0,0.0,0.0,0.0,0.0,0.0,0.0,0.0,0.0,0.0,0.0,0.0,0.0,-9.2905,-9.6068,-9.9341,-10.0498,-10.2418,-10.6026,-10.6735,-10.7135,-10.7893,-10.8688,-10.9092,-10.9202,-11.0414,-11.1221,-11.1295,0.0,0.0,0.0,0.0,-10.9386,-11.0083,-10.9386,-10.8982,-10.8799,-10.8175,-10.7771,-10.7697,-10.6119,-10.5422,-10.5432,-10.539,-10.5894,-10.6918,-11.0094,-11.1723,-11.2291,-11.4484,-11.5291,-11.5215,-11.4407,-11.3599,-11.2714,-11.2022,0.0,0.0,-11.1791,-11.1714,-11.1598,-11.1598,-11.1598,-11.1522,-11.1522,-11.1522,-11.1522,-11.1522,-11.1522,-11.1522,-11.1522,-11.1522,-11.1522,-11.1522,-11.1522,-11.1522,-11.1522,-11.1522,-11.1522,-11.1522,-11.1522,-11.1522,-11.1522,-11.1522,-11.1522,-11.1522,-11.1522,-11.1214,-11.0406,0.0,0.0,-10.6905,-10.6023,-10.4098,-10.0711,-9.7978,-9.5508,-9.329,-9.286,-9.2263,-9.1445,-9.2109,-9.0976,-8.7929,-8.8633,-8.8672,-8.8047,-8.6992,-8.5664,0.0,0.0,0.0,0.0,0.0,0.0,0.0,0.0,0.0,0.0,0.0,0.0,0.0,0.0,0.0,-9.4777,-9.7456,-10.0289,-10.35,-10.5251,-10.6418,-10.7181,-10.8527,-10.9607,-11.0377,-11.0597,-11.1001,-11.1698,-11.1405,-11.1515,-11.2102,-11.1405,0.0,-11.2102,-11.1221,-11.0817,-11.1001,-11.0817,-11.012,-10.8799,0.0,0.0,-10.8505,-10.7587,-10.7073,-10.7073,-10.7105,-10.7553,-10.8591,-11.0593,-11.2964,-11.5484,-11.5407,-11.5291,-11.5291,-11.5099,-11.4484,-11.3714,-11.3599,-11.3483,-11.3483,-11.3483,-11.3022,-11.2522,-11.2522,-11.2022,0.0,-11.1522,-11.1522,-11.1522,-11.1522,-11.1522,-11.1522,-11.1522,-11.1522,-11.1522,-11.1522,-11.1522,-11.1522,-11.1522,-11.1522,-11.1522,-11.1522,-11.1522,-11.1522,-11.1522,-11.1522,-11.1522,-11.1522,-11.1522,-11.1406,-11.1291,-11.1214,-11.0521,-10.8598,-10.7098,-10.4789,-10.1289,-9.7479,-9.4698,-9.3239,-9.3149,-9.2861,-9.2344,-9.1836,-9.1211,-9.0586,-9.0703,-9.1094,-9.1562,-8.9297,-8.8047,0.0,0.0,0.0,0.0,0.0,0.0,0.0,0.0,0.0,0.0,0.0,-8.9491,-9.1473,0.0,-9.7126,-10.0393,-10.2999,-10.5385,-10.7807,-10.9606,-11.0257,-10.9473,-11.0834,-11.2102,-11.291,-11.3717,-11.4415,-11.4818,-11.4415,-11.4415,-11.4818,-11.3717,-11.3387,-11.4194,-11.2983,-11.2616,-11.302,-11.2616,-11.1992,-11.1184,-11.1184,-11.1001,-11.0597,-10.9386,-10.8799,-10.8799,-10.8395,-10.8885,-11.0202,-11.1482,-11.4107,-11.6984,-11.5291,-11.5407,-11.6407,-11.5599,-11.4984,-11.4599,-11.4214,-11.3984,-11.3984,-11.3984,-11.3714,-11.3291,-11.2791,-11.2099,-11.1406,-11.0983,-11.0521,-11.0214,-11.0214,-11.0521,-11.0791,-11.0791,-11.1214,-11.1522,-11.1522,-11.1522,-11.1522,-11.1522,-11.1522,-11.1522,-11.1522,-11.1522,-11.1522,-11.1522,-11.1522,-11.1522,-11.1522,-11.1522,-11.1522,-11.1522,-11.1522,-11.1021,-10.9713,-10.7213,-10.4289,-10.0904,-9.8404,-9.6652,-9.5802,-9.5065,-9.461,-9.4531,-9.4101,-9.3906,-9.3906,-9.4297,-9.4726,-9.5117,-9.3828,-9.2539,0.0,0.0,0.0,0.0,0.0,0.0,0.0,-9.0115,-9.1143,-9.1473,-9.3492,-9.5841,-9.7933,-10.0319,-10.2889,-10.5825,-10.8211,-11.0193,-11.1698,-11.3387,-11.4084,-11.28,-11.3607,-11.4598,-11.5406,-11.6801,-11.7608,-11.7425,-11.7608,-11.7608,-11.7425,-11.6103,-11.5589,-11.6213,-11.4672,-11.4084,-11.4818,-11.4194,-11.3791,-11.357,-11.3093,-11.28,-11.2579,-11.1001,-11.0193,-11.0157,-10.9639,-11.0199,-11.1701,-11.2817,-11.5022,-11.76,-11.5407,-11.5984,-11.81,-11.6215,-11.5291,-11.4984,-11.4599,-11.4407,-11.4291,-11.4407,-11.4407,-11.4099,-11.3407,-11.2406,-11.1406,-11.0791,-10.9906,-10.9213,-10.9598,-10.9983,-11.0483,-11.0598,-11.1098,-11.1522,-11.1522,-11.1522,-11.1522,-11.1522,-11.1522,-11.1522,-11.1522,-11.1522,-11.1522,-11.1522,-11.1522,-11.1522,-11.1522,-11.1522,-11.1522,-11.1522,-11.1522,-11.1098,-11.0291,-10.7213,-10.4097,-10.1289,-10.0327,-9.948,-9.8749,-9.7621,-9.7064,-9.7148,-9.7226,-9.7148,-9.6992,-9.7656,-9.7851,-9.7695,-9.7695,-9.6601,-9.6869,-9.2721,-9.0005,-9.195,-9.1436,-9.1546,0.0,-9.6795,-9.7346,-9.8778,-10.1017,-10.2999,-10.4027,-10.6192,-10.8395,-11.0193,-11.1919,-11.3387,-11.4305,-11.6397,-11.7792,-11.7608,-11.7094,-11.7094,-11.7902,-11.8783,-11.9003,-11.8306,-11.8893,-11.9003,-11.8306,-11.7425,-11.7021,-11.7094,-11.5516,-11.4708,-11.4818,-11.4708,-11.4305,-11.357,-11.4194,-11.4194,-11.3387,-11.1808,-11.1111,-11.1089,-11.1095,-11.16,-11.2608,-11.4311,-11.6099,-11.7715,-11.6599,-11.7792,-11.9715,-11.7292,-11.5407,-11.4291,-11.5715,-11.5792,-11.5291,-11.5984,-11.5676,-11.5099,-11.4984,-11.3407,-11.1598,-11.2214,-11.1291,-11.0406,-11.1906,-11.1791,-11.1522,-11.2291,-11.1906,-11.1522,-11.1522,-11.1522,-11.1522,-11.1522,-11.1522,-11.1522,-11.1522,-11.1522,-11.1522,-11.1522,-11.1522,-11.1522,-11.1522,-11.1522,-11.1522,-11.1522,-11.1522,-11.1098,-11.0291,-10.779,-10.579,-10.4597,-10.3097,-10.1597,-10.0211,-10.0197,-9.998,-9.9531,-9.9765,-9.9492,-9.8711,-9.8828,-9.8476,-9.7695,-9.7695,-9.7539,-9.8484,-9.6245,-9.518,-9.5768,-9.7493,-9.9585,-10.1604,-10.3586,-10.5091,-10.5789,-10.8211,-11.0487,-11.1295,-11.2286,-11.3497,0.0,-11.5589,-11.6103,-11.7388,-11.8893,-11.97,-11.9187,-12.0104,-12.0691,-12.0581,-12.1279,-12.1389,-12.0581,-12.0398,-11.9994,-11.9113,-11.8306,-11.7718,-11.7204,-11.6507,-11.6213,-11.6213,-11.6213,-11.5993,-11.5699,-11.603,-11.581,-11.5002,-11.3791,-11.28,-11.1897,-11.1987,-11.253,-11.3487,-11.4732,-11.6579,-11.8484,-11.76,-11.8215,-11.9292,-11.7292,-11.6407,-11.6215,-11.6407,-11.6292,-11.6099,-11.6407,-11.6292,-11.5907,-11.5407,-11.3791,-11.2214,-11.2022,-11.0791,-10.9598,-11.0291,-11.1021,-11.1598,-11.1906,-11.2522,-11.2983,-11.2983,-11.2983,-11.2983,-11.2983,-11.2983,-11.2983,-11.2983,-11.2983,-11.2791,-11.2291,-11.1791,-11.1522,-11.1522,-11.1522,-11.1522,-11.1522,-11.1522,-11.0906,-10.9598,-10.8482,-10.7098,-10.5213,-10.3982,-10.2904,-10.1981,-10.0993,-10.061,-10.0703,-10.0312,-9.9726,-9.8984,-9.8984,-9.8554,-9.7695,-9.7695,-9.7695,-9.9292,-9.8814,-9.9255,-9.9732,-10.3219,-10.6706,-10.7624,-11.012,-11.2396,-11.2579,-11.4708,-11.669,-11.7204,-11.7204,-11.7498,-11.9187,-11.8709,-11.8819,-12.0398,-12.1205,-12.1205,-12.0398,-12.1683,-12.26,-12.2417,-12.3004,-12.2894,-12.1793,-12.1389,-12.0875,-11.9994,-11.9187,-11.8489,-11.7902,-11.7608,-11.7498,-11.7498,-11.7498,-11.7498,-11.7498,-11.7314,-11.6911,-11.6287,-11.5296,-11.3901,-11.2411,-11.2888,-11.3747,-11.4581,-11.5284,-11.7208,-11.9715,-11.8292,-11.86,-11.96,-11.76,-11.6984,-11.71,-11.6907,-11.6599,-11.6176,-11.6407,-11.6484,-11.6407,-11.5792,-11.4291,-11.2599,-11.2291,-11.0791,-10.9406,-10.979,-11.0714,-11.1598,-11.2099,-11.2906,-11.3714,-11.3907,-11.3984,-11.3984,-11.3984,-11.3984,-11.3984,-11.3984,-11.3984,-11.3791,-11.3214,-11.2406,-11.1791,-11.1522,-11.1522,-11.1522,-11.1522,-11.1522,-11.1021,-10.9713,-10.9213,-10.8098,-10.629,-10.5213,-10.4289,-10.3597,-10.2212,-10.1602,-10.1786,-10.1,-10.0195,-9.9375,-9.9375,-9.8789,-9.7695,-9.7695,-9.7695,-9.9989,-9.9695,-10.0026,-10.3917,-10.7404,-11.0671,-11.3791,-11.6397,-11.8379,-11.9113,-12.0104,-12.0691,-12.0691,-12.0104,-11.9994,-12.1683,-12.1279,-12.1316,-12.3004,-12.3224,-12.2894,-12.2086,-12.1389,-12.1609,0.0,-12.3298,-12.26,-12.1095,-12.1609,-12.1683,-12.0912,-11.9994,-11.959,-11.948,-11.8783,-11.8416,-11.8416,-11.8416,-11.8416,-11.8379,-11.7608,-11.7204,-11.7094,-11.5516,-11.3901,-11.2522,-11.4112,-11.5358,-11.631,-11.6387,-11.8433,-12.1293,-11.8792,-11.9292,-12.1177,-11.8715,-11.6715,-11.5599,-11.7215,-11.6715,-11.5484,-11.6176,-11.6484,-11.6484,-11.6484,-11.4714,-11.2906,-11.3714,-11.2099,-11.0483,-11.2214,-11.2022,-11.1906,-11.3483,-11.3291,-11.2983,-11.3791,-11.3984,-11.3984,-11.3984,-11.3984,-11.3984,-11.3984,-11.3984,-11.3984,-11.3984,-11.3214,-11.2406,-11.1598,-11.1522,-11.1522,-11.1522,-11.1522,-11.1522,-11.1406,-10.9906,-10.8906,-10.879,-10.7213,-10.5905,-10.5097,-10.4366,-10.383,-10.3329,-10.2686,-10.1719,-10.0312,-10.0312,-9.9375,-9.7695,-9.7695,-9.7695,-10.131,-10.3293,-10.6413,-10.99,-11.3203,-11.6287,-11.9003,-12.1095,-12.249,-12.2784,-12.2196,-12.1683,-12.1683,-12.0508,-11.9774,-12.0288,-12.0691,-12.1095,-12.1609,-12.2196,-12.1793,-11.9884,-12.1316,0.0,0.0,0.0,0.0,-12.249,-12.271,-12.2307,-12.0985,-12.0581,-12.0178,-11.959,-11.9297,-11.9187,-11.9187,-11.9187,-11.8893,-11.8416,-11.7021,-11.6397,-11.6397,-11.5296,-11.4194,-11.3167,-11.383,-11.4553,-11.5601,-11.6697,-11.8604,-12.0677,-12.0408,-12.0793,-12.1485,-12.06,-11.96,-11.8484,-11.7984,-11.7792,-11.7907,-11.81,-11.8215,-11.8215,-11.8215,-11.6407,-11.4484,-11.4791,-11.2983,-11.1214,-11.1791,-11.2522,-11.3291,-11.3907,-11.4599,-11.5291,-11.5599,-11.5676,-11.5676,-11.5676,-11.5676,-11.5676,-11.5676,-11.5676,-11.5291,-11.4214,-11.3291,-11.2406,-11.1598,-11.1522,-11.1522,-11.1522,-11.1522,-11.1291,-11.0714,-10.9598,-10.8713,-10.8098,-10.6482,-10.5405,-10.5097,-10.3789,-10.3213,-10.3367,-10.2589,-10.1601,-10.0312,-10.0898,-10.0312,-9.8554,-9.8554,-9.8554,-10.3403,-10.678,-11.0891,-11.4415,-11.7792,-12.0618,-12.249,-12.3995,-12.4803,-12.4215,-12.2784,-12.1389,-12.0508,-11.8783,-11.7682,-11.8599,-11.9187,-12.0104,-12.1609,-12.1976,-12.1499,-11.9884,-12.0802,-12.0985,0.0,0.0,0.0,-12.2784,-12.2894,-12.2417,-12.1389,-12.1279,-12.0912,-12.0104,-12.0104,-12.0104,-12.0104,-12.0104,-11.948,-11.8416,-11.7094,-11.6287,-11.5993,-11.5479,-11.4892,-11.4488,-11.4488,-11.5456,-11.7413,-11.776,-11.9512,-12.1716,-12.16,-12.16,-12.16,-12.1293,-12.0985,-12.06,-11.9215,-11.8908,-11.91,-11.91,-11.91,-11.91,-11.91,-11.7484,-11.5676,-11.5676,-11.4099,-11.2291,-11.2022,-11.2983,-11.3984,-11.3984,-11.5099,-11.6099,-11.6407,-11.6484,-11.6484,-11.6484,-11.6484,-11.6484,-11.6484,-11.6484,-11.5907,-11.4291,-11.3483,-11.2791,-11.1598,-11.1522,-11.1522,-11.1522,-11.1522,-11.1291,-11.0714,-10.9598,-10.8713,-10.8213,-10.6482,-10.5405,-10.5097,-10.3905,-10.3212,-10.3406,-10.2307,-10.1309,-10.0312,-10.0508,-10.0117,-9.8984,-9.8672,-9.8711,-10.6376,-11.0267,-11.3681,-11.7718,-12.1095,-12.3591,-12.4399,-12.5096,-12.5096,-12.3518,-12.1719,-11.97,-11.7204,0.0,-11.4194,-11.6507,-11.7204,-11.8819,-12.271,-12.26,-12.2086,0.0,0.0,0.0,0.0,0.0,0.0,-12.1976,0.0,-12.2146,-12.2206,-12.2242,-12.1779,-12.1007,-12.0875,-12.0912,-12.0912,-12.0934,-12.0016,-11.8509,-11.772,-11.6911,-11.6103,-11.6176,-11.6176,-11.6176,-11.6176,-11.8185,-12.1113,-11.9603,-12.0997,-12.3899,-12.2293,-12.1677,-12.16,-12.0793,-12.0985,-12.1485,-12.0716,-11.9908,-11.9215,-11.9215,-11.9215,-11.9215,-11.9215,-11.7907,-11.6599,-11.6484,-11.5291,-11.3791,-11.2983,-11.3407,-11.4099,-11.4099,-11.4714,-11.5599,-11.6292,-11.6484,-11.6484,-11.6484,-11.6484,-11.6484,-11.6484,-11.6484,-11.5907,-11.4291,-11.3984,-11.3407,-11.1714,-11.1522,-11.1522,-11.1522,-11.1522,-11.1522,-11.1522,-10.9906,-10.8906,-10.8906,-10.729,-10.602,-10.5213,-10.452,-10.3982,-10.3406,-10.1981,-10.0897,-10.0195,-9.9453,-9.9023,-9.8906,-9.8086,-9.8125,-11.1001,-11.4892,-11.8599,-12.2086,-12.3591,-12.4399,-12.5206,-12.4582,-12.3481,-12.1793,-11.7792,-11.3791,-11.1405,-11.1405,0.0,-11.2616,-11.6801,0.0,-12.2196,-12.271,0.0,-12.2196,0.0,-12.1719,-12.0985,-12.1205,0.0,0.0,-12.3729,-12.4244,-12.4319,-12.3621,-12.277,-12.2027,-12.1274,-12.0912,-12.0912,-12.0437,-11.9948,-11.9428,-11.872,-11.8318,-11.8093,-11.8806,-11.8693,-11.8168,-11.9368,-12.0081,-12.0471,-12.1292,-12.2206,-12.3107,-12.3406,-12.3101,-12.2601,-12.2985,-12.2485,-12.1677,-12.21,-12.1716,-12.0985,-12.0985,-12.0985,-12.0793,-12.0216,-11.8792,-11.7292,-11.6676,-11.5291,-11.3907,-11.3714,-11.4291,-11.4984,-11.4984,-11.5599,-11.6292,-11.6484,-11.6484,-11.6484,-11.6484,-11.6484,-11.6484,-11.6484,-11.6484,-11.5907,-11.4291,-11.3984,-11.3407,-11.1714,-11.1522,-11.1522,-11.1522,-11.1522,-11.1522,-11.1522,-10.9906,-10.8906,-10.8906,-10.729,-10.629,-10.6097,-10.4905,-10.4013,-10.3393,-10.2002,-10.0626,-9.9336,-9.9765,-9.9297,-9.8047,-9.7812,-9.75,-11.5185,-11.8673,-12.1793,-12.3995,-12.4803,-12.4693,-12.3298,-12.2307,-12.0508,-11.6397,-11.2506,-10.8799,-10.5678,-10.6706,-10.8395,0.0,0.0,0.0,-12.1793,-12.2784,-12.3298,0.0,-12.3188,-12.2894,-12.2013,-12.238,-12.3051,0.0,-12.4306,-12.4385,-12.481,-12.4506,-12.3827,-12.304,-12.2353,-12.2249,-12.2249,-12.1412,-12.0829,-12.0529,-12.0112,-11.9684,-11.9382,-12.0174,-12.0622,-12.0509,0.0,-12.1699,-12.2404,-12.2961,-12.3529,-12.3885,-12.3993,-12.3601,-12.2908,-12.2985,-12.2408,-12.1677,-12.2216,-12.1985,-12.16,-12.16,-12.1293,-12.0908,-12.0408,-11.9408,-11.8292,-11.7792,-11.6715,-11.5599,-11.5215,-11.5484,-11.5676,-11.5407,-11.5907,-11.6484,-11.6484,-11.6484,-11.6484,-11.6484,-11.6484,-11.6484,-11.6484,-11.6484,-11.5907,-11.4291,-11.3984,-11.3407,-11.1714,-11.1522,-11.1522,-11.1522,-11.1522,-11.1522,-11.1522,-10.9906,-10.8906,-10.8906,-10.6982,-10.5713,-10.529,-10.4403,-10.3387,-10.2303,-10.1289,-10.02,-9.8984,-9.9101,-9.8867,-9.8242,-9.789,-9.7461,-11.8783,-12.1719,-12.3701,-12.4509,-12.4876,-12.4179,-12.0288,-11.8893,-11.6507,-10.9716,-10.678,-10.4284,-10.0503,-10.1898,-10.4504,-10.7294,0.0,-11.7498,-12.1793,-12.3004,-12.3701,-12.4399,-12.3885,-12.3408,-12.3298,-12.3298,-12.4001,-12.5546,-12.4307,-12.3993,-12.5037,-12.5081,-12.474,-12.3797,-12.3797,-12.3797,-12.3797,-12.2996,-12.2197,-12.163,-12.1427,-12.1116,-12.0737,-12.1419,-12.21,-12.2933,0.0,0.0,-12.5164,-12.4559,-12.4804,-12.5311,-12.4591,-12.3793,-12.2985,-12.2293,-12.1908,-12.16,-12.1908,-12.1793,-12.16,-12.16,-12.0985,-12.0292,-12.0292,-11.9715,-11.91,-11.8985,-11.8407,-11.76,-11.6676,-11.6407,-11.6176,-11.5484,-11.5907,-11.6484,-11.6407,-11.6407,-11.6484,-11.6484,-11.6484,-11.6484,-11.6484,-11.6484,-11.5984,-11.4407,-11.3984,-11.3291,-11.1714,-11.1406,-11.1406,-11.1522,-11.1406,-11.1291,-11.1291,-10.9713,-10.8713,-10.8598,-10.629,-10.4597,-10.3905,-10.3518,-10.2615,-10.1001,-10.05,-9.9844,-9.8984,-9.8125,-9.8047,-9.8633,-9.789,-9.7422,-12.1499,-12.3481,-12.4509,-12.528,-12.4068,-12.1976,-11.9187,-11.5516,-11.1295,-10.6706,-10.2889,-9.9732,-9.7713,-9.9842,-10.3403,-10.7881,-11.28,-11.7902,-12.3298,-12.4179,-12.4289,-12.4509,-12.4399,-12.3995,-12.3408,-12.3298,0.0,0.0,0.0,0.0,-12.6949,-12.6422,-12.5306,-12.3797,-12.3797,-12.3797,-12.3797,-12.3038,-12.2862,-12.3418,-12.2222,-12.2179,-12.3407,-12.3599,-12.4097,-12.4903,0.0,0.0,-12.53,-12.5886,-12.5809,-12.523,-12.5211,-12.4601,-12.3985,-12.4486,-12.3408,-12.1793,-12.3216,-12.2793,-12.16,-12.16,-12.0985,-12.0292,-12.0292,-11.9715,-11.8908,-11.8215,-11.7907,-11.76,-11.6676,-11.5984,-11.5484,-11.5291,-11.5907,-11.6292,-11.5676,-11.5984,-11.6484,-11.6484,-11.6484,-11.6484,-11.6484,-11.6484,-11.6176,-11.5215,-11.3791,-11.2599,-11.1598,-11.0906,-11.0714,-11.1406,-11.0906,-11.0406,-11.0406,-10.8906,-10.7598,-10.6905,-10.5097,-10.3982,-10.3905,-10.3405,-10.2692,-10.1914,-10.0617,-9.9648,-9.8984,-9.8125,-9.7422,-9.6914,-9.6797,-9.5937,-12.3027,-12.4296,-12.4693,-12.55,-12.3591,-12.0288,-11.5699,-11.1515,-10.689,-10.0723,-9.797,-9.6098,-9.4446,-9.7126,-10.0796,-10.4394,-10.8688,-11.3791,-11.9811,-12.0691,-12.1499,-12.3591,-12.3885,-12.3701,-12.3298,-12.3298,-12.3298,0.0,0.0,0.0,-12.5422,-12.5583,-12.5626,-12.5339,-12.53,-12.53,-12.53,-12.4999,-12.4667,-12.4667,-12.4416,-12.4409,-12.4793,-12.5216,-12.5409,-12.5409,-12.6294,0.0,-12.541,-12.626,-12.6363,-12.587,-12.5619,-12.4909,-12.4101,-12.4101,-12.2985,-12.1677,-12.2485,-12.2293,-12.16,-12.16,-12.0985,-12.0292,-12.0292,-11.9985,-11.96,-11.9215,-11.91,-11.8908,-11.81,-11.7215,-11.6484,-11.5984,-11.6176,-11.6407,-11.5984,-11.6176,-11.6484,-11.6484,-11.6484,-11.6484,-11.6484,-11.6176,-11.5599,-11.4714,-11.3214,-11.1791,-11.0906,-10.9713,-10.9213,-11.0098,-10.979,-10.9483,-10.9483,-10.8406,-10.729,-10.6521,-10.4789,-10.3712,-10.3212,-10.2597,-10.2015,-10.1215,-10.0314,-9.9531,-9.8789,-9.8047,-9.75,-9.7109,-9.7109,-9.6445,-12.3252,-12.4358,-12.4693,-12.55,-12.2784,-11.8306,-11.2322,-10.7697,-10.2705,-9.5511,-9.3896,-9.3418,-9.2281,-9.485,-9.8117,-10.1274,-10.4687,-10.9386,-11.5993,-11.7204,-11.8819,-12.2417,-12.2894,-12.3004,-12.3004,-12.3004,0.0,0.0,0.0,0.0,0.0,-12.4427,-12.5398,-12.6274,-12.6402,-12.6491,-12.6678,-12.6486,-12.6178,-12.5678,-12.5986,-12.5986,-12.5678,-12.5986,-12.5909,-12.5409,-12.5909,0.0,0.0,-12.5909,-12.6294,-12.6294,-12.5486,-12.4716,-12.3985,-12.3408,-12.2485,-12.16,-12.16,-12.1485,-12.1293,-12.11,-12.0677,-12.0292,-12.0485,-12.0408,-12.0292,-12.01,-11.9985,-11.9792,-11.8792,-11.7907,-11.71,-11.6599,-11.6407,-11.6292,-11.6676,-11.6599,-11.6484,-11.6484,-11.6484,-11.6407,-11.6292,-11.5676,-11.4984,-11.4099,-11.2406,-11.0983,-11.0291,-10.8598,-10.7713,-10.829,-10.8482,-10.8598,-10.8598,-10.7905,-10.7021,-10.5905,-10.4482,-10.3212,-10.2404,-10.1904,-10.1289,-10.0673,-10.0105,-9.9446,-9.8813,-9.8005,-9.7656,-9.7656,-9.7695,-9.7265,-12.1458,-12.3395,-12.4693,-12.55,-12.0985,-11.5296,-11.1074,-10.4687,-9.8521,-9.4116,-9.2574,-9.2207,-9.2868,-9.3859,-9.6392,-10.1714,-10.41,-10.7918,-11.5112,-11.7388,-11.9003,-12.0912,-12.1793,-12.2196,-12.2196,-12.2196,0.0,0.0,0.0,0.0,0.0,-12.3803,-12.4395,-12.5322,-12.5284,-12.582,-12.6717,-12.5909,-12.5909,-12.6601,-12.5101,-12.5101,-12.6486,-12.4986,-12.4716,-12.5409,0.0,0.0,0.0,-12.4293,-12.4793,-12.5409,-12.4601,-12.4216,-12.4101,-12.3985,-12.2985,-12.16,-12.16,-12.11,-12.0292,-11.96,-11.9792,-12.0408,-12.1177,-12.0908,-12.01,-11.9408,-11.9215,-11.8792,-11.7176,-11.6099,-11.5676,-11.6292,-11.5907,-11.5792,-11.7407,-11.71,-11.6484,-11.6484,-11.6484,-11.6292,-11.5484,-11.5291,-11.4984,-11.4099,-11.1906,-11.0291,-11.0214,-10.8021,-10.6521,-10.6597,-10.729,-10.779,-10.779,-10.7021,-10.579,-10.4212,-10.3212,-10.2289,-10.152,-10.1404,-10.1404,-10.1597,-10.0092,-9.9348,-9.9514,-9.8091,-9.7422,-9.7422,-9.7617,-9.7265,-11.8107,-12.0814,-12.249,-12.3298,-11.8599,-11.28,-10.8799,-10.2595,-9.6649,-9.3051,-9.2024,-9.1913,-9.2244,-9.2574,-9.4006,-9.7787,-9.8117,-10.0393,-10.7697,-10.8395,-11.0487,-11.6507,-11.7498,0.0,0.0,0.0,0.0,0.0,0.0,0.0,0.0,-12.3426,-12.4182,-12.5202,-12.5782,-12.6312,-12.6678,-12.6409,-12.6409,-12.6678,-12.5986,-12.5986,-12.6678,-12.5409,-12.4793,-12.4601,0.0,0.0,0.0,-12.4293,-12.4909,-12.5986,-12.4601,-12.3485,-12.2678,-12.3216,-12.2293,-12.0793,-12.0793,-12.06,-12.0216,-11.9908,-11.9715,-11.9715,-12.06,-12.0216,-11.96,-11.9792,-11.9485,-11.8792,-11.76,-11.6676,-11.6099,-11.6407,-11.6292,-11.6176,-11.6907,-11.6715,-11.6484,-11.6484,-11.6099,-11.5676,-11.5407,-11.4407,-11.3599,-11.3291,-11.0983,-10.9406,-10.9406,-10.7713,-10.6405,-10.6405,-10.6713,-10.6905,-10.6905,-10.6597,-10.5905,-10.4713,-10.3789,-10.2981,-10.2097,-10.1597,-10.1404,-10.1481,-9.9981,-9.9242,-9.9366,-9.7896,-9.7168,-9.7171,-9.7249,-9.7174,-11.386,-11.7473,-12.0104,-12.1389,-11.669,-11.0781,-10.7183,-10.12,-9.5474,-9.2427,-9.1803,-9.1803,-9.1803,-9.1803,-9.2464,-9.4483,-9.4226,-9.6025,-10.2301,-10.2595,-10.4981,-11.2506,0.0,0.0,0.0,0.0,0.0,0.0,0.0,0.0,0.0,-12.3125,-12.4182,-12.5202,-12.5876,-12.6402,-12.6678,-12.6678,-12.6678,-12.6678,-12.6678,-12.6678,-12.6678,-12.5486,-12.4986,-12.4793,0.0,0.0,0.0,-12.4293,-12.4793,-12.6101,-12.4409,-12.2985,-12.1985,-12.2408,-12.16,-12.0216,-11.9715,-11.96,-11.9485,-11.9292,-11.8792,-11.8484,-11.9292,-11.9292,-11.9215,-11.9485,-11.8985,-11.8215,-11.76,-11.6792,-11.6099,-11.6099,-11.5907,-11.5792,-11.6099,-11.6099,-11.6176,-11.6484,-11.5907,-11.5215,-11.4984,-11.3714,-11.2522,-11.2022,-11.0214,-10.879,-10.8598,-10.729,-10.6405,-10.6405,-10.6405,-10.6405,-10.6405,-10.6405,-10.602,-10.5174,-10.4597,-10.3789,-10.2597,-10.202,-10.1597,-10.1289,-9.9865,-9.9096,-9.9095,-9.7596,-9.6867,-9.6873,-9.6951,-9.713,-10.9029,-11.357,-11.7828,-12.0288,-11.5406,-10.9386,-10.689,-10.0686,-9.4777,-9.2317,-9.1803,-9.1803,-9.1803,-9.1803,-9.2097,-9.2978,-9.4446,-9.6869,-10.1017,-10.2889,-10.5385,0.0,0.0,0.0,0.0,0.0,0.0,0.0,0.0,0.0,0.0,0.0,-12.4182,-12.5202,-12.5164,-12.5726,-12.6717,-12.6678,-12.6678,-12.6678,-12.6678,-12.6678,-12.6601,-12.4909,-12.4986,0.0,0.0,0.0,0.0,-12.3985,-12.3909,-12.5216,-12.3601,-12.2908,-12.2793,-12.1908,-12.11,-12.01,-11.8407,-11.7792,-11.7715,-11.6792,-11.6484,-11.6676,-11.76,-11.8407,-11.8908,-11.81,-11.7215,-11.6484,-11.6484,-11.5907,-11.5291,-11.5291,-11.4714,-11.4291,-11.5099,-11.5291,-11.5484,-11.6292,-11.5907,-11.4984,-11.4214,-11.3291,-11.2099,-11.0483,-10.9483,-10.8598,-10.779,-10.6905,-10.6405,-10.6405,-10.6405,-10.6405,-10.6405,-10.6405,-10.602,-10.5174,-10.5097,-10.4289,-10.2712,-10.2597,-10.2212,-10.1289,-9.9673,-9.8788,-9.8788,-9.7326,-9.6596,-9.6632,-9.6902,-9.713,-10.0766,-10.4504,-10.733,-10.7624,-10.5091,-10.2081,-10.0209,-9.6685,-9.3455,-9.206,-9.1363,-9.0996,-9.0996,-9.0996,-9.162,-9.3602,-9.4336,-9.5694,-9.8631,-9.9952,0.0,-10.7697,0.0,0.0,0.0,0.0,0.0,0.0,0.0,0.0,0.0,0.0,-12.2287,-12.3238,-12.4519,-12.5004,-12.4726,-12.4726,-12.4726,-12.4726,-12.4726,-12.4726,-12.4688,-12.3604,0.0,0.0,0.0,0.0,0.0,-12.2793,-12.2985,-12.4293,-12.2716,-12.16,-12.11,-12.0793,-12.0216,-11.9292,-11.8215,-11.7792,-11.7792,-11.7484,-11.6984,-11.6676,-11.7484,-11.76,-11.7176,-11.6292,-11.5907,-11.5676,-11.5676,-11.4984,-11.4599,-11.5176,-11.4599,-11.4099,-11.4407,-11.4907,-11.5215,-11.4907,-11.4599,-11.4099,-11.3291,-11.2406,-11.1522,-11.0406,-10.9483,-10.8598,-10.779,-10.6905,-10.6405,-10.6405,-10.6405,-10.6405,-10.6405,-10.6405,-10.629,-10.602,-10.5405,-10.4597,-10.3482,-10.2904,-10.2212,-10.1289,-10.0212,-9.9673,-9.9673,-9.8596,-9.7788,-9.7211,-9.6865,-9.6873,-9.4813,-9.8888,-10.1824,-10.1934,-10.0503,-9.8704,-9.7089,-9.4593,-9.2317,-9.1143,-9.0519,-9.0152,-9.0152,-9.0152,-9.0776,-9.2611,-9.2905,-9.3859,-9.6612,-9.7933,0.0,0.0,0.0,0.0,0.0,0.0,0.0,0.0,0.0,0.0,0.0,0.0,-12.1021,-12.0851,-12.3347,-12.4234,-12.3306,-12.3608,-12.3608,-12.3306,-12.3306,-12.3193,-12.2778,-12.2111,0.0,0.0,0.0,0.0,0.0,-12.2813,-12.2716,-12.3485,-12.1793,-12.06,-11.9792,-11.9485,-11.8985,-11.8484,-11.76,-11.7292,-11.7292,-11.7292,-11.6907,-11.6484,-11.6792,-11.6484,-11.5907,-11.5407,-11.5099,-11.4791,-11.4791,-11.4214,-11.3599,-11.4214,-11.3714,-11.3099,-11.3407,-11.3907,-11.4291,-11.3984,-11.3714,-11.3291,-11.2791,-11.2022,-11.1098,-10.9906,-10.9213,-10.8482,-10.7405,-10.6713,-10.6405,-10.6405,-10.6405,-10.6405,-10.6405,-10.6405,-10.6405,-10.6405,-10.5597,-10.4713,-10.3905,-10.3097,-10.2212,-10.1289,-10.0481,-10.0096,-10.0096,-9.8904,-9.7865,-9.7057,-9.6673,-9.6673,0.0,-9.5694,-9.9512,-10.1017,-9.9769,-9.786,-9.6355,-9.3786,0.0,-8.9748,-8.9381,-8.9344,-8.9417,-8.9381,-8.9638,-9.0555,-9.0739,-9.1877,-9.496,-9.7126,0.0,0.0,0.0,0.0,0.0,0.0,0.0,0.0,0.0,0.0,0.0,0.0,0.0,-11.8269,-12.1592,-12.2974,-12.2219,-12.2974,-12.2974,-12.2219,-12.2219,-12.1842,-12.1126,-12.0259,0.0,0.0,0.0,0.0,0.0,-12.3382,-12.2784,-12.2515,-12.0908,-11.9792,-11.91,-11.81,-11.7792,-11.7792,-11.6792,-11.6484,-11.6599,-11.6484,-11.6484,-11.6292,-11.5484,-11.5291,-11.5291,-11.5099,-11.4484,-11.3907,-11.3907,-11.3291,-11.2599,-11.2714,-11.2099,-11.1714,-11.2522,-11.2714,-11.2906,-11.3714,-11.3214,-11.2714,-11.2599,-11.1906,-11.0791,-10.9213,-10.8906,-10.8213,-10.6597,-10.6405,-10.6405,-10.6405,-10.6405,-10.6405,-10.6405,-10.6405,-10.6405,-10.6405,-10.5597,-10.4713,-10.3905,-10.3097,-10.2212,-10.1289,-10.0481,-10.0096,-9.9981,-9.8327,-9.7134,-9.6365,-9.6326,-9.6557,-8.4132,0.0,-8.8243,-8.8023,-8.8904,-8.9748,0.0,-8.9674,-8.9895,-8.9491,-8.894,-8.8683,-8.9307,-8.8904,-8.916,-9.1179,-9.2097,-9.3015,-9.4373,0.0,0.0,0.0,0.0,0.0,0.0,0.0,0.0,0.0,0.0,0.0,0.0,0.0,0.0,-11.658,-11.8564,-11.9661,-11.9439,-11.9624,-11.9624,-11.9439,-11.9439,-11.9328,-11.9106,-11.8991,0.0,0.0,0.0,0.0,-12.0387,-12.1487,-12.1501,-12.0812,-12.041,-12.0216,-11.9792,-11.8292,-11.8215,-11.86,-11.6984,-11.6907,-11.7407,-11.6676,-11.6484,-11.6292,-11.5484,-11.5291,-11.4984,-11.3714,-11.3214,-11.3022,-11.3022,-11.2406,-11.1906,-11.2599,-11.2099,-11.1598,-11.1714,-11.2291,-11.2599,-11.2214,-11.2406,-11.2522,-11.1906,-11.1098,-11.0098,-10.9098,-10.8406,-10.7598,-10.6521,-10.6405,-10.6405,-10.6405,-10.6405,-10.6405,-10.6405,-10.6405,-10.6405,-10.6405,-10.5597,-10.4713,-10.3905,-10.3097,-10.2212,-10.1289,-10.0481,-9.975,-9.9096,-9.8019,-9.7403,-9.7211,-9.6596,-9.6557,-8.0424,-8.3324,-8.6151,-8.571,-8.6885,-8.8023,-8.7655,-8.7655,-8.7655,-8.7288,-8.6848,-8.6811,-8.7619,-8.7399,-8.7766,-8.9821,-9.0849,-9.2721,0.0,0.0,0.0,0.0,0.0,0.0,0.0,0.0,0.0,0.0,0.0,0.0,0.0,0.0,0.0,0.0,-11.7204,-11.7828,-11.7828,-11.7828,-11.7718,-11.7314,-11.7314,-11.7094,-11.6764,-11.7178,-11.7417,0.0,0.0,0.0,-11.7715,-11.9239,-11.9022,-11.79,-11.7899,-11.7687,-11.7306,-11.6313,-11.6313,-11.6619,-11.5626,-11.5611,-11.602,-11.5905,-11.5677,-11.5291,-11.4791,-11.4407,-11.3907,-11.2983,-11.2406,-11.2099,-11.2099,-11.1791,-11.1598,-11.2022,-11.1791,-11.1522,-11.1522,-11.1791,-11.2022,-11.1598,-11.1906,-11.1906,-11.1021,-11.0483,-10.979,-10.8482,-10.7982,-10.7405,-10.6521,-10.6405,-10.6405,-10.6405,-10.6405,-10.6405,-10.6405,-10.6405,-10.6405,-10.6405,-10.5213,-10.4405,-10.3905,-10.2712,-10.1789,-10.1289,-10.0904,-10.0212,-9.9404,-9.8904,-9.8288,-9.748,-9.7057,-9.6826,-7.8699,-8.3214,-8.7692,-8.7068,-8.7802,-8.8463,-8.7655,-8.6518,-8.5453,-8.4903,-8.4792,-8.5086,-8.6004,-8.6151,-8.6738,-8.8463,-8.9564,0.0,0.0,0.0,0.0,0.0,0.0,0.0,0.0,0.0,0.0,0.0,0.0,0.0,0.0,0.0,0.0,0.0,-11.669,-11.7021,-11.7021,-11.7021,-11.6617,-11.581,-11.581,-11.5406,-11.4598,-11.5296,-11.5589,0.0,0.0,0.0,-11.5887,-11.6998,-11.6484,-11.5134,-11.5005,-11.4552,-11.41,-11.3798,-11.3873,-11.41,-11.41,-11.3985,-11.3974,-11.4773,-11.4528,-11.4003,-11.3786,-11.3291,-11.2714,-11.2599,-11.2022,-11.1522,-11.1522,-11.1522,-11.1522,-11.1522,-11.1522,-11.1522,-11.1522,-11.1522,-11.1522,-11.1522,-11.1522,-11.1214,-11.0406,-11.0098,-10.9483,-10.7905,-10.7598,-10.7213,-10.6521,-10.6405,-10.6405,-10.6405,-10.6405,-10.6405,-10.6405,-10.6405,-10.6405,-10.6405,-10.4905,-10.3982,-10.3712,-10.2212,-10.1212,-10.1096,-10.1096,-10.0712,-9.9904,-9.975,-9.8942,-9.7519,-9.7365,-9.7057,-7.9213,-8.281,-8.5343,-8.1929,-8.3214,-8.5123,-8.4315,-8.4462,-8.4939,-8.549,-8.56,-8.6077,-8.7545,-8.7839,-8.8573,-9.0886,0.0,0.0,0.0,0.0,0.0,0.0,0.0,0.0,0.0,0.0,0.0,0.0,0.0,0.0,0.0,0.0,0.0,0.0,-11.6103,-11.6213,-11.6213,-11.6213,-11.581,-11.5002,-11.5002,-11.4598,-11.3791,-11.3901,-11.3974,0.0,0.0,-11.4817,-11.4088,-11.5881,-11.6021,-11.5019,-11.428,-11.443,-11.4666,-11.327,-11.3685,-11.4854,-11.4854,-11.4534,-11.3897,-11.407,-11.3968,-11.38,-11.3074,-11.2791,-11.2599,-11.1906,-11.1598,-11.1522,-11.1522,-11.1522,-11.1522,-11.1522,-11.1522,-11.1522,-11.1522,-11.1522,-11.1522,-11.1522,-11.1522,-11.1214,-11.0406,-10.9598,-10.879,-10.779,-10.7098,-10.6597,-10.6405,-10.6405,-10.6405,-10.6405,-10.6405,-10.6405,-10.6405,-10.6405,-10.6405,-10.6405,-10.5482,-10.4289,-10.2904,-10.1789,-10.1019,-10.0289,-10.0289,-9.9865,-9.8981,-9.825,-9.775,-9.748,-9.6788,-9.6519,-7.8699,-8.1452,-8.3287,-8.1012,-8.3508,-8.6334,-8.5527,-8.5306,-8.5343,-8.571,-8.6151,-8.6811,-8.7986,0.0,-9.0592,-9.3896,0.0,0.0,0.0,0.0,0.0,0.0,0.0,0.0,0.0,0.0,0.0,0.0,0.0,0.0,0.0,0.0,0.0,0.0,-11.5993,-11.5993,-11.5993,-11.5589,-11.4892,-11.4084,-11.3681,-11.3313,-11.2983,-11.3387,-11.357,-11.357,0.0,-11.3512,-11.2411,-11.3741,-11.3191,-11.1708,-11.2195,-11.2133,-11.1612,-11.083,-11.1016,-11.1724,-11.1724,-11.1469,-11.1193,-11.1713,-11.1887,-11.1908,-11.199,-11.1984,-11.2022,-11.1598,-11.1522,-11.1522,-11.1522,-11.1522,-11.1522,-11.1522,-11.1522,-11.1522,-11.1522,-11.1522,-11.1522,-11.1522,-11.1098,-11.0483,-10.9598,-10.879,-10.7982,-10.7098,-10.6713,-10.6405,-10.6405,-10.6405,-10.6405,-10.6405,-10.6405,-10.6405,-10.6405,-10.6405,-10.6213,-10.5713,-10.529,-10.4289,-10.2712,-10.2212,-10.1597,-10.0789,-10.0712,-10.0596,-10.0096,-9.9327,-9.8673,-9.8173,-9.7326,-9.6788,-7.8846,-8.0791,-8.215,-8.1893,-8.4609,-8.7325,-8.7288,-8.6664,-8.6334,-8.7288,-8.7839,-8.8353,-8.894,-9.0702,0.0,-9.6428,0.0,0.0,0.0,0.0,0.0,0.0,0.0,0.0,0.0,0.0,0.0,0.0,0.0,0.0,0.0,0.0,0.0,0.0,-11.5699,-11.5589,-11.5406,-11.4598,-11.4011,-11.357,-11.2579,-11.1992,-11.1882,-11.2286,-11.2579,-11.2689,-11.2579,-11.1882,-11.1001,-11.1405,-11.0487,-10.8909,-10.99,-10.9606,-10.8505,-10.8688,-10.8799,-10.8799,-10.8799,-10.8948,-10.9223,-10.9601,-11.0215,-11.0796,-11.1266,-11.1592,-11.1791,-11.1791,-11.1598,-11.1522,-11.1522,-11.1522,-11.1522,-11.1522,-11.1522,-11.1522,-11.1522,-11.1522,-11.1406,-11.1214,-11.0714,-10.9906,-10.879,-10.8098,-10.7405,-10.6521,-10.6405,-10.6405,-10.6405,-10.6405,-10.6405,-10.6405,-10.6405,-10.6405,-10.6405,-10.6405,-10.6097,-10.5405,-10.5213,-10.4482,-10.3212,-10.2789,-10.2289,-10.1597,-10.1404,-10.1289,-10.1289,-10.0481,-9.975,-9.9058,-9.8211,-9.748,-8.0865,-8.2076,-8.2553,-8.3985,-8.4609,-8.5416,-8.7619,-8.7509,-8.7986,-9.1803,-9.2024,-9.1546,-9.162,-9.4153,0.0,0.0,0.0,0.0,0.0,0.0,0.0,0.0,0.0,0.0,0.0,0.0,0.0,0.0,0.0,0.0,0.0,0.0,0.0,0.0,0.0,-11.4488,-11.3791,-11.2983,-11.291,-11.357,-11.1992,-11.0891,-11.0083,-10.9496,-10.9606,-11.0193,-10.9496,-10.9496,-11.001,-10.9312,-10.8982,-10.8688,-10.8101,-10.7771,-10.7771,-10.8505,-10.8799,-10.8799,-10.8799,-10.9325,-10.9754,-10.9111,-11.0485,-11.2294,-11.1596,-11.2024,-11.2599,-11.2599,-11.2099,-11.1522,-11.1522,-11.1522,-11.1522,-11.1522,-11.1522,-11.1522,-11.1522,-11.1522,-11.1291,-11.0483,-11.0214,-10.9713,-10.8098,-10.7713,-10.7405,-10.6521,-10.6405,-10.6405,-10.6405,-10.6405,-10.6405,-10.6405,-10.6405,-10.6405,-10.6405,-10.6405,-10.6405,-10.629,-10.5482,-10.4982,-10.4905,-10.3405,-10.2597,-10.252,-10.1712,-10.1289,-10.1289,-10.0481,-10.0096,-9.9981,-9.9096,-9.8673,-8.0498,-8.2186,-8.3104,-8.3691,-8.538,-8.7215,-8.8647,-9.0298,-9.2134,-9.4189,-9.5547,-9.6392,-9.6392,0.0,0.0,0.0,0.0,0.0,0.0,0.0,0.0,0.0,0.0,0.0,0.0,0.0,0.0,0.0,0.0,0.0,0.0,0.0,0.0,0.0,0.0,-11.5185,-11.4378,-11.3497,-11.2983,-11.28,-11.1184,-11.0304,-10.9973,-10.9202,-10.8982,-10.9202,-10.8909,-10.8688,-10.8505,-10.8688,-10.8211,-10.7294,-10.7,-10.7183,-10.7587,-10.7404,-10.7294,-10.7294,-10.7294,-10.7807,-10.8456,-10.8814,-10.9885,-11.1097,-11.1291,-11.2024,-11.2714,-11.2714,-11.2522,-11.2099,-11.1598,-11.1522,-11.1522,-11.1522,-11.1098,-11.0791,-11.1406,-11.0598,-10.9906,-11.0214,-10.9406,-10.8406,-10.779,-10.729,-10.679,-10.6405,-10.6405,-10.6405,-10.6405,-10.6405,-10.6405,-10.6405,-10.6405,-10.6405,-10.6405,-10.6405,-10.6405,-10.6405,-10.6097,-10.5713,-10.5097,-10.3982,-10.3212,-10.2597,-10.1712,-10.1289,-10.1289,-10.0481,-10.0096,-10.0096,-9.9211,-9.8788,-8.0645,-8.2003,-8.2774,-8.3287,-8.5637,-8.8316,-9.0152,-9.2721,-9.5327,-9.7676,-9.8851,-9.9475,-9.9475,-9.9475,0.0,0.0,0.0,0.0,0.0,0.0,0.0,0.0,0.0,0.0,0.0,0.0,0.0,0.0,0.0,0.0,0.0,0.0,0.0,0.0,0.0,0.0,-11.3717,-11.3093,-11.2579,-11.1992,-11.0597,-10.99,-10.9606,-10.8505,-10.8175,-10.8395,-10.8175,-10.7881,-10.7587,-10.7881,-10.7404,-10.6376,-10.6376,-10.6706,-10.7183,-10.6596,-10.6376,-10.6413,-10.6706,-10.7294,-10.8051,-10.9,-10.9998,-11.0983,-11.1291,-11.2024,-11.2714,-11.2714,-11.2714,-11.2599,-11.2406,-11.1906,-11.1522,-11.1522,-11.0791,-11.0406,-11.0983,-10.9906,-10.8983,-10.929,-10.8482,-10.7598,-10.729,-10.679,-10.6405,-10.6405,-10.6405,-10.6405,-10.6405,-10.6405,-10.6405,-10.6405,-10.6405,-10.6405,-10.6405,-10.6405,-10.6405,-10.6405,-10.6405,-10.6097,-10.5482,-10.4713,-10.3905,-10.302,-10.2212,-10.1597,-10.1289,-10.0712,-10.0481,-10.0481,-9.9865,-9.9596,-8.1746,-8.1599,-8.1415,-8.303,-8.5233,-8.8133,-9.2207,-9.4373,-9.7126,-10.2779,-10.2008,-10.0319,-10.0319,-10.0319,0.0,0.0,0.0,0.0,0.0,0.0,0.0,0.0,0.0,0.0,0.0,0.0,0.0,0.0,0.0,0.0,0.0,0.0,0.0,0.0,0.0,0.0,-11.1221,-11.1221,-11.1221,-11.1221,-11.0377,-10.9606,-10.8688,-10.711,-10.678,-10.7477,-10.6706,-10.689,-10.7477,-10.6706,-10.6376,-10.6376,-10.6376,-10.6376,-10.6376,-10.6376,-10.6413,-10.6486,-10.7294,-10.8101,-10.8897,-10.978,-11.1197,-11.2381,-11.1596,-11.2024,-11.2714,-11.2714,-11.2714,-11.2906,-11.3791,-11.2714,-11.1522,-11.1522,-11.0791,-11.0214,-11.0214,-10.9483,-10.8598,-10.7905,-10.7713,-10.7405,-10.6521,-10.6405,-10.6405,-10.6405,-10.6405,-10.6405,-10.6405,-10.6405,-10.6405,-10.6405,-10.6405,-10.6405,-10.6405,-10.6405,-10.6405,-10.6405,-10.6405,-10.6405,-10.6405,-10.5597,-10.4713,-10.3905,-10.302,-10.2212,-10.1289,-10.1289,-10.1289,-10.1289,-10.1289,-10.1289,-8.0351,-8.1158,0.0,-8.3141,-8.6958,-9.1363,-9.485,-9.6428,-9.8814,-10.4504,-10.4173,-10.2999,-10.3586,-10.2815,0.0,0.0,0.0,0.0,0.0,0.0,0.0,0.0,0.0,0.0,0.0,0.0,0.0,0.0,0.0,0.0,0.0,0.0,0.0,0.0,0.0,0.0,-11.2102,-11.1992,-11.1808,-11.1221,-10.979,-10.9019,-10.8799,-10.7697,-10.7073,-10.6706,-10.6486,-10.6486,-10.6706,-10.6486,-10.6376,-10.6376,-10.6376,-10.6706,-10.7183,-10.7183,-10.7587,-10.8101,-10.8395,-10.8615,-10.9029,-11.0529,-11.0922,-11.0996,-11.199,-11.2505,-11.2714,-11.2714,-11.2714,-11.2599,-11.2291,-11.1406,-11.0714,-11.1406,-11.0406,-10.929,-10.929,-10.8213,-10.729,-10.7598,-10.7213,-10.6713,-10.6405,-10.6405,-10.6405,-10.6405,-10.6405,-10.6405,-10.6405,-10.6405,-10.6405,-10.6405,-10.6405,-10.6405,-10.6405,-10.6405,-10.6405,-10.6405,-10.6405,-10.6405,-10.6405,-10.4982,-10.4097,-10.3905,-10.2404,-10.1597,-10.1289,-10.1904,-10.1904,-10.1289,-10.1904,-10.1904,-8.0645,-8.1672,0.0,-8.527,-8.861,-9.2574,-9.7089,-9.9769,-10.2301,-10.6082,-10.5495,-10.4614,-10.5495,-10.432,0.0,0.0,0.0,0.0,0.0,0.0,0.0,0.0,0.0,0.0,0.0,0.0,0.0,0.0,0.0,0.0,0.0,0.0,0.0,0.0,0.0,0.0,-11.1919,-11.1919,-11.1698,-11.1221,-10.9606,-10.8799,-10.8799,-10.7587,-10.689,-10.6376,-10.6376,-10.6376,-10.6376,-10.6376,-10.6376,-10.6376,-10.6009,-10.6192,-10.6596,-10.7,-10.7183,-10.7514,-10.8505,-10.8761,-10.9088,-11.0802,-11.0971,-11.0776,-11.1899,-11.2214,-11.2214,-11.1791,-11.2214,-11.2522,-11.1714,-11.1098,-11.0714,-11.0521,-10.9406,-10.8406,-10.8406,-10.7405,-10.6597,-10.7098,-10.679,-10.6405,-10.6405,-10.6405,-10.6405,-10.6405,-10.6405,-10.6405,-10.6405,-10.6405,-10.6405,-10.6405,-10.6405,-10.6405,-10.6405,-10.6405,-10.6405,-10.6405,-10.6405,-10.6405,-10.6405,-10.5405,-10.4597,-10.3905,-10.2904,-10.202,-10.1289,-10.2212,-10.2289,-10.1789,-10.2712,-10.2597,-8.1856,-8.2737,-8.4389,-8.85,-9.0519,0.0,-9.9218,-10.3586,-10.6486,-10.7294,0.0,-10.5605,-10.6376,0.0,0.0,0.0,0.0,0.0,0.0,0.0,0.0,0.0,0.0,0.0,0.0,0.0,0.0,0.0,0.0,0.0,0.0,0.0,0.0,0.0,0.0,0.0,-11.1221,-11.1221,-11.1184,0.0,-10.9496,-10.8688,-10.8505,-10.7,-10.6302,-10.6302,-10.6376,-10.6376,-10.6376,-10.6376,-10.6376,-10.6302,-10.5495,-10.5311,-10.5422,-10.6192,-10.6082,-10.5789,-10.7991,-10.8853,-10.9118,-11.0704,-11.1303,-11.1312,-11.1499,-11.1522,-11.1291,-11.0483,-11.1406,-11.2291,-11.1522,-11.1214,-11.0714,-10.9098,-10.8213,-10.7713,-10.7598,-10.7021,-10.6405,-10.6405,-10.6405,-10.6405,-10.6405,-10.6405,-10.6405,-10.6405,-10.6405,-10.6405,-10.6405,-10.6405,-10.6405,-10.6405,-10.6405,-10.6405,-10.6405,-10.6405,-10.6405,-10.6405,-10.6405,-10.6405,-10.6405,-10.629,-10.5597,-10.3982,-10.3905,-10.3097,-10.152,-10.2404,-10.2789,-10.2712,-10.3482,-10.3405,-8.1048,-8.2333,0.0,-8.9197,-9.4299,-9.9071,-10.2375,-10.432,-10.5605,-10.6486,-10.689,-10.7073,0.0,0.0,0.0,0.0,0.0,0.0,0.0,0.0,0.0,0.0,0.0,0.0,0.0,0.0,0.0,0.0,0.0,0.0,0.0,0.0,0.0,0.0,0.0,-11.1221,-11.1221,-11.1221,-11.0891,0.0,-10.8578,-10.7477,-10.689,-10.5825,-10.5422,-10.5422,-10.6082,-10.6376,-10.6376,-10.6376,-10.6376,-10.6376,-10.6192,-10.6486,-10.7073,-10.7294,-10.7587,-10.8101,-10.8615,-10.8853,-10.9006,-10.996,-11.0393,-11.0587,-11.1307,-11.1522,-11.1522,-11.1291,-11.0983,-11.0483,-10.9713,-10.8983,-10.829,-10.7213,-10.729,-10.7521,-10.679,-10.6521,-10.6405,-10.6405,-10.6405,-10.6405,-10.6405,-10.6405,-10.6405,-10.6405,-10.6405,-10.6405,-10.6405,-10.6405,-10.6405,-10.6405,-10.6405,-10.6405,-10.6405,-10.6405,-10.6405,-10.6405,-10.6405,-10.6405,-10.6405,-10.5713,-10.5213,-10.4789,-10.4212,-10.3712,-10.3289,-10.4212,-10.4212,-10.3597,-10.3789,-10.3405,-8.2186,0.0,0.0,-9.2207,0.0,-10.2375,-10.3586,-10.4504,-10.5311,-10.6192,-10.6706,0.0,0.0,0.0,0.0,0.0,0.0,0.0,0.0,0.0,0.0,0.0,0.0,0.0,0.0,0.0,0.0,0.0,0.0,0.0,0.0,0.0,0.0,0.0,-11.1221,-11.1221,-11.1221,-11.0817,-11.0414,-10.9973,-10.7587,-10.5605,-10.41,-10.4394,-10.4504,-10.4614,-10.5422,-10.5605,-10.5275,-10.6082,-10.6192,-10.5789,-10.5789,-10.6009,-10.6486,-10.689,-10.7,-10.711,-10.7881,-10.8506,-10.8868,-10.9443,-11.0094,-11.0922,-11.1396,-11.1522,-11.1406,-11.0983,-11.0598,-10.9906,-10.8713,-10.7982,-10.7521,-10.6597,-10.6713,-10.7021,-10.6521,-10.6405,-10.6405,-10.6405,-10.6405,-10.6405,-10.6405,-10.6405,-10.6405,-10.6405,-10.6405,-10.6405,-10.6405,-10.6405,-10.6405,-10.6405,-10.6405,-10.6405,-10.6405,-10.6405,-10.6405,-10.6405,-10.6405,-10.6405,-10.6405,-10.602,-10.5482,-10.5097,-10.4713,-10.4289,-10.3905,-10.4713,-10.4905,-10.4482,-10.4482,-10.3982,0.0,-8.6444,-9.0298,-9.5584,-10.0209,0.0,-10.3696,-10.421,-10.5018,-10.6009,0.0,0.0,0.0,0.0,0.0,0.0,0.0,0.0,0.0,0.0,0.0,0.0,0.0,0.0,0.0,0.0,0.0,0.0,0.0,0.0,0.0,0.0,-11.1001,-11.1001,-11.0891,-11.0817,-11.0817,-11.0083,-10.9679,-10.9496,-10.6413,-10.3696,-10.1494,-10.2889,-10.3586,-10.3696,-10.4504,-10.4504,-10.399,-10.5495,-10.5789,-10.5128,-10.5311,-10.5311,-10.5422,-10.6119,-10.5899,-10.5495,-10.689,-10.8149,-10.8893,-10.8893,-11.0107,-11.1522,-11.1522,-11.1522,-11.1291,-11.0598,-11.0214,-10.9675,-10.829,-10.7713,-10.729,-10.6597,-10.6405,-10.6405,-10.6405,-10.6405,-10.6405,-10.6405,-10.6405,-10.6405,-10.6405,-10.6405,-10.6405,-10.6405,-10.6405,-10.6405,-10.6405,-10.6405,-10.6405,-10.6405,-10.6405,-10.6405,-10.6405,-10.6405,-10.6405,-10.6405,-10.6405,-10.6405,-10.6405,-10.6405,-10.6097,-10.529,-10.529,-10.4982,-10.4289,-10.4789,-10.5097,-10.5097,-10.4789,-10.4289,0.0,0.0,-9.3308,0.0,-9.9805,-10.2008,0.0,0.0,-10.3403,0.0,0.0,0.0,0.0,0.0,0.0,0.0,0.0,0.0,0.0,0.0,0.0,0.0,0.0,0.0,0.0,0.0,0.0,0.0,0.0,0.0,0.0,-11.0487,-11.0193,-11.0193,-10.9496,-10.9092,-10.9092,-10.9019,-10.8578,-10.7881,-10.5275,-10.3182,-10.1494,-10.1677,-10.2191,-10.2889,-10.3696,-10.399,-10.399,-10.4908,-10.5201,-10.5201,-10.5899,-10.6192,-10.6192,-10.6376,-10.6302,-10.6302,-10.6486,-10.7628,-10.8893,-10.8893,-11.0107,-11.1522,-11.1522,-11.1522,-11.1522,-11.1406,-11.0214,-10.8983,-10.879,-10.7713,-10.6521,-10.6405,-10.6405,-10.6405,-10.6405,-10.6405,-10.6405,-10.6405,-10.6405,-10.6405,-10.6405,-10.6405,-10.6405,-10.6405,-10.6405,-10.6405,-10.6405,-10.6405,-10.6405,-10.6405,-10.6405,-10.6405,-10.6405,-10.6405,-10.6405,-10.6405,-10.6405,-10.6405,-10.6405,-10.6405,-10.629,-10.6213,-10.6213,-10.6213,-10.6097,-10.5405,-10.5097,-10.5097,-10.3597,-10.2904,-8.4315,-8.9674,-9.4556,0.0,-9.9989,-10.1677,-10.2522,0.0,0.0,0.0,0.0,0.0,0.0,0.0,0.0,0.0,0.0,0.0,0.0,0.0,0.0,0.0,0.0,0.0,0.0,0.0,0.0,0.0,0.0,0.0,-11.1221,-11.001,-10.9496,-10.9973,-10.9202,-10.8799,-10.8799,-10.8395,-10.7477,-10.6192,-10.4614,-10.3293,-10.2191,-10.1677,-10.1677,-10.2081,-10.2889,-10.3219,-10.3293,-10.41,-10.4724,-10.5128,-10.5495,-10.6009,-10.6376,-10.6376,-10.6376,-10.6376,-10.6376,-10.7209,-10.8199,-10.8199,-10.9019,-11.0123,-11.0563,-11.0826,-11.0798,-11.082,-10.9906,-10.879,-10.829,-10.729,-10.6405,-10.6405,-10.6405,-10.6405,-10.6405,-10.6405,-10.6405,-10.6405,-10.6405,-10.6405,-10.6405,-10.6405,-10.6405,-10.6405,-10.6405,-10.6405,-10.6405,-10.6405,-10.6405,-10.6405,-10.6405,-10.6405,-10.6405,-10.6405,-10.6405,-10.6405,-10.6405,-10.6405,-10.6405,-10.6405,-10.6405,-10.6405,-10.6405,-10.6405,-10.6405,-10.5482,-10.5097,-10.5097,-10.3405,-10.2597,-8.5894,0.0,-9.3272,-9.6722,-9.9402,-10.1384,0.0,0.0,0.0,0.0,0.0,0.0,0.0,0.0,0.0,0.0,0.0,0.0,0.0,0.0,0.0,0.0,0.0,0.0,0.0,0.0,0.0,0.0,0.0,0.0,-11.0597,-10.9276,-10.8799,-10.9386,-10.8578,-10.8211,-10.8211,-10.7587,-10.6596,-10.5128,-10.4284,-10.3513,-10.2705,-10.2081,-10.1788,-10.1788,-10.2412,-10.2705,-10.2815,-10.3806,-10.4614,-10.5128,-10.5311,-10.5789,-10.6376,-10.6376,-10.6376,-10.6376,-10.6376,-10.6931,-10.7591,-10.7591,-10.8199,-10.9019,-10.9695,-10.9862,-10.99,-10.9896,-10.9277,-10.8482,-10.7905,-10.7098,-10.6405,-10.6405,-10.6405,-10.6405,-10.6405,-10.6405,-10.6405,-10.6405,-10.6405,-10.6405,-10.6405,-10.6405,-10.6405,-10.6405,-10.6405,-10.6405,-10.6405,-10.6405,-10.6405,-10.6405,-10.6405,-10.6405,-10.6405,-10.6405,-10.6405,-10.6405,-10.6405,-10.6405,-10.6405,-10.6405,-10.6405,-10.6405,-10.6405,-10.6405,-10.6405,-10.529,-10.4789,-10.4789,-10.3289,-10.2597,-8.1636,-8.4939,0.0,-9.2391,-9.6906,0.0,0.0,0.0,0.0,0.0,0.0,0.0,0.0,0.0,0.0,0.0,0.0,0.0,0.0,0.0,0.0,0.0,0.0,0.0,0.0,0.0,0.0,0.0,0.0,0.0,-10.8909,-10.8101,-10.7661,-10.7697,-10.689,-10.6486,-10.6486,-10.6486,-10.6009,-10.5128,-10.4284,-10.3513,-10.2705,-10.2705,-10.2595,-10.2595,-10.2705,-10.2705,-10.2815,-10.4394,-10.5091,-10.5201,-10.6009,-10.6376,-10.6376,-10.6376,-10.6376,-10.6376,-10.6376,-10.6931,-10.7591,-10.7591,-10.8199,-10.8893,-10.8994,-10.901,-10.8994,-10.9008,-10.8384,-10.779,-10.7713,-10.7098,-10.6405,-10.6405,-10.6405,-10.6405,-10.6405,-10.6405,-10.6405,-10.6405,-10.6405,-10.6405,-10.6405,-10.6405,-10.6405,-10.6405,-10.6405,-10.6405,-10.6405,-10.6405,-10.6405,-10.6405,-10.6405,-10.6405,-10.6405,-10.6405,-10.6405,-10.6405,-10.6405,-10.6405,-10.6405,-10.6405,-10.6405,-10.6405,-10.6405,-10.6405,-10.6405,-10.4789,-10.3982,-10.3905,-10.302,-10.2597,-8.2223,-8.4572,0.0,-9.195,-9.518,-9.7566,0.0,0.0,0.0,0.0,0.0,0.0,0.0,0.0,0.0,0.0,0.0,0.0,0.0,0.0,0.0,0.0,0.0,0.0,0.0,0.0,0.0,0.0,0.0,0.0,-10.8799,-10.7514,-10.7073,-10.7587,-10.678,-10.6376,-10.6376,-10.6376,-10.6009,-10.5128,-10.4798,-10.421,-10.3513,-10.3513,-10.3513,-10.3513,-10.4027,-10.421,-10.421,-10.432,-10.4981,-10.5899,-10.5715,-10.5899,-10.6376,-10.6376,-10.6376,-10.6376,-10.6376,-10.659,-10.677,-10.677,-10.6973,-10.7402,-10.7917,-10.7736,-10.7279,-10.7313,-10.712,-10.6672,-10.6175,-10.6183,-10.6405,-10.6405,-10.6405,-10.6405,-10.6405,-10.6405,-10.6405,-10.6405,-10.6405,-10.6405,-10.6405,-10.6405,-10.6405,-10.6405,-10.6405,-10.6405,-10.6405,-10.6405,-10.6405,-10.6405,-10.6405,-10.6405,-10.6405,-10.6405,-10.6405,-10.6405,-10.6405,-10.6405,-10.6405,-10.6405,-10.6405,-10.6405,-10.6405,-10.6405,-10.6405,-10.5213,-10.4713,-10.4713,-10.3789,-10.3405,-8.1746,-8.3544,-8.6151,0.0,0.0,-9.4997,0.0,0.0,0.0,0.0,0.0,0.0,0.0,0.0,0.0,0.0,0.0,0.0,0.0,0.0,0.0,0.0,0.0,0.0,0.0,0.0,0.0,0.0,0.0,0.0,-10.7991,-10.7,-10.6596,-10.7183,-10.667,-10.6376,-10.6376,-10.6376,-10.6082,-10.5495,-10.5201,-10.4798,-10.432,-10.432,-10.432,-10.432,-10.5201,-10.5422,-10.5128,-10.4798,-10.5385,-10.6302,-10.5789,-10.5899,-10.6376,-10.6376,-10.6376,-10.6376,-10.6376,-10.6376,-10.6376,-10.6376,-10.6376,-10.6434,-10.6719,-10.6362,-10.6019,-10.5999,-10.6013,-10.588,-10.5706,-10.5991,-10.6405,-10.6405,-10.6405,-10.6405,-10.6405,-10.6405,-10.6405,-10.6405,-10.6405,-10.6405,-10.6405,-10.6405,-10.6405,-10.6405,-10.6405,-10.6405,-10.6405,-10.6405,-10.6405,-10.6405,-10.6405,-10.6405,-10.6405,-10.6405,-10.6405,-10.6405,-10.6405,-10.6405,-10.6405,-10.6405,-10.6405,-10.6405,-10.6405,-10.6405,-10.6405,-10.5482,-10.5097,-10.5097,-10.4597,-10.4482,0.0,0.0,0.0,-8.9271,0.0,0.0,0.0,0.0,0.0,0.0,0.0,0.0,0.0,0.0,0.0,0.0,0.0,0.0,0.0,0.0,0.0,0.0,0.0,0.0,0.0,0.0,0.0,0.0,0.0,-10.6376,-10.6376,-10.6376,-10.6376,-10.6376,-10.6376,-10.6376,-10.6376,-10.6376,-10.6376,-10.6376,-10.5495,-10.5128,-10.5128,-10.5128,-10.5128,-10.5201,-10.6009,-10.5899,-10.5201,-10.6082,-10.6376,-10.6376,-10.6376,-10.6376,-10.6376,-10.6376,-10.6376,-10.6376,-10.6376,-10.6376,-10.6376,-10.6376,-10.6376,-10.6192,-10.5422,-10.512,-10.5201,-10.5182,-10.5197,-10.5407,-10.6199,-10.6405,-10.6405,-10.6405,-10.6405,-10.6405,-10.6405,-10.6405,-10.6405,-10.6405,-10.6405,-10.6405,-10.6405,-10.6405,-10.6405,-10.6405,-10.6405,-10.6405,-10.6405,-10.6405,-10.6405,-10.6405,-10.6405,-10.6405,-10.6405,-10.6405,-10.6405,-10.6405,-10.6405,-10.6405,-10.6405,-10.6405,-10.6405,-10.6405,-10.6405,-10.6405,-10.6405,-10.5597,-10.5097,-10.5097,-10.5097,-10.5597,-8.0681,0.0,0.0,0.0,0.0,0.0,0.0,0.0,0.0,0.0,0.0,0.0,0.0,0.0,0.0,0.0,0.0,0.0,0.0,0.0,0.0,0.0,0.0,0.0,0.0,0.0,0.0,0.0,-10.6376,-10.6376,-10.6376,-10.6376,-10.6376,-10.6376,-10.6376,-10.6376,-10.6376,-10.6376,-10.6082,-10.5495,-10.5899,-10.5715,-10.5128,-10.5789,-10.6009,-10.6082,-10.6302,-10.6302,-10.6082,-10.6302,-10.6376,-10.6376,-10.6376,-10.6376,-10.6376,-10.6376,-10.6376,-10.6376,-10.6376,-10.6376,-10.6376,-10.6376,-10.6009,-10.5422,-10.5201,-10.4713,-10.4347,-10.4297,-10.4713,-10.5407,-10.6199,-10.6405,-10.6405,-10.6405,-10.6405,-10.6405,-10.6405,-10.6405,-10.6405,-10.6405,-10.6405,-10.6405,-10.6405,-10.6405,-10.6405,-10.6405,-10.6405,-10.6405,-10.6405,-10.6405,-10.6405,-10.6405,-10.6405,-10.6405,-10.6405,-10.6405,-10.6405,-10.6405,-10.6405,-10.6405,-10.6405,-10.6405,-10.6405,-10.6405,-10.6405,-10.6405,-10.6405,-10.6213,-10.602,-10.602,-10.602,-10.6213,-8.2186,-8.3177,-8.4939,-8.7105,0.0,0.0,-9.2024,-9.3235,0.0,0.0,0.0,0.0,0.0,0.0,0.0,0.0,0.0,0.0,0.0,0.0,0.0,0.0,0.0,0.0,0.0,0.0,0.0,0.0,-10.6376,-10.6376,-10.6376,-10.6376,-10.6376,-10.6376,-10.6376,-10.6376,-10.6376,-10.6376,-10.6119,-10.5605,-10.6192,-10.6119,-10.5715,-10.6192,-10.6376,-10.6376,-10.6376,-10.6376,-10.6376,-10.6376,-10.6376,-10.6376,-10.6376,-10.6376,-10.6376,-10.6376,-10.6376,-10.6376,-10.6376,-10.6376,-10.6302,-10.6009,-10.5826,-10.5484,-10.4782,-10.4467,-10.4376,-10.4392,-10.5023,-10.5779,-10.6322,-10.6405,-10.6405,-10.6405,-10.6405,-10.6405,-10.6405,-10.6405,-10.6405,-10.6405,-10.6405,-10.6405,-10.6405,-10.6405,-10.6405,-10.6405,-10.6405,-10.6405,-10.6405,-10.6405,-10.6405,-10.6405,-10.6405,-10.6405,-10.6405,-10.6405,-10.6405,-10.6405,-10.6405,-10.6405,-10.6405,-10.6405,-10.6405,-10.6405,-10.6405,-10.6405,-10.6405,-10.6405,-10.6405,-10.6405,-10.6405,-10.6405,-8.4205,-8.5049,-8.7142,-9.0629,-8.9711,0.0,-9.3786,-9.3859,0.0,0.0,0.0,0.0,0.0,0.0,0.0,0.0,0.0,0.0,0.0,0.0,0.0,0.0,0.0,0.0,0.0,0.0,-10.6376,-10.6376,-10.6376,-10.6376,-10.6376,-10.6376,-10.6376,-10.6376,-10.6376,-10.6376,-10.6376,-10.6376,-10.6376,-10.6376,-10.6376,-10.6376,-10.6376,-10.6376,-10.6376,-10.6376,-10.6376,-10.6376,-10.6376,-10.6376,-10.6376,-10.6376,-10.6376,-10.6376,-10.6376,-10.6376,-10.6376,-10.6376,-10.6376,-10.6376,-10.6266,-10.5551,-10.5716,-10.6026,-10.4459,-10.4584,-10.5231,-10.5268,-10.5825,-10.6405,-10.6405,-10.6405,-10.6405,-10.6405,-10.6405,-10.6405,-10.6405,-10.6405,-10.6405,-10.6405,-10.6405,-10.6405,-10.6405,-10.6405,-10.6405,-10.6405,-10.6405,-10.6405,-10.6405,-10.6405,-10.6405,-10.6405,-10.6405,-10.6405,-10.6405,-10.6405,-10.6405,-10.6405,-10.6405,-10.6405,-10.6405,-10.6405,-10.6405,-10.6405,-10.6405,-10.6405,-10.6405,-10.6405,-10.6405,-10.6405,-10.6405,-10.6405,-8.6407,-8.7949,-8.9528,-8.905,-9.14,0.0,-9.1106,-9.14,-9.2427,0.0,0.0,0.0,0.0,0.0,0.0,0.0,0.0,0.0,0.0,0.0,0.0,0.0,0.0,0.0,0.0,0.0,-10.6376,-10.6376,-10.6376,-10.6376,-10.6376,-10.6376,-10.6376,-10.6376,-10.6376,-10.6376,-10.6376,-10.6376,-10.6376,-10.6376,-10.6376,-10.6376,-10.6376,-10.6376,-10.6376,-10.6376,-10.6376,-10.6376,-10.6376,-10.6376,-10.6376,-10.6376,-10.6376,-10.6376,-10.6376,-10.6376,-10.6376,-10.6376,-10.6376,-10.6376,-10.6434,-10.6205,-10.5768,-10.5425,-10.4988,-10.508,-10.532,-10.5985,-10.6322,-10.6405,-10.6405,-10.6405,-10.6405,-10.6405,-10.6405,-10.6405,-10.6405,-10.6405,-10.6405,-10.6405,-10.6405,-10.6405,-10.6405,-10.6405,-10.6405,-10.6405,-10.6405,-10.6405,-10.6405,-10.6405,-10.6405,-10.6405,-10.6405,-10.6405,-10.6405,-10.6405,-10.6405,-10.6405,-10.6405,-10.6405,-10.6405,-10.6405,-10.6405,-10.6405,-10.6405,-10.6405,-10.6405,-10.6405,-10.6405,-10.6405,-10.6405,-10.6405,-8.9638,-9.0592,-9.206,-9.2831,-9.3345,0.0,0.0,-9.2391,-9.173,0.0,0.0,0.0,0.0,0.0,0.0,0.0,0.0,0.0,0.0,0.0,0.0,0.0,0.0,0.0,0.0,0.0,-10.5605,-10.5201,-10.5899,-10.6192,-10.5789,-10.6192,-10.6376,-10.6376,-10.6376,-10.6376,-10.6376,-10.6376,-10.6376,-10.6376,-10.6376,-10.6376,-10.6376,-10.6376,-10.6376,-10.6376,-10.6376,-10.6376,-10.6376,-10.6376,-10.6376,-10.6376,-10.6376,-10.6376,-10.6376,-10.6376,-10.6376,-10.6376,-10.6376,-10.6082,-10.5772,-10.5804,-10.5492,-10.5213,-10.5214,-10.5472,-10.5901,-10.6284,-10.6405,-10.6405,-10.6405,-10.6405,-10.6405,-10.6405,-10.6405,-10.6405,-10.6405,-10.6405,-10.6405,-10.6405,-10.6405,-10.6405,-10.6405,-10.6405,-10.6405,-10.6405,-10.6405,-10.6405,-10.6405,-10.6405,-10.6405,-10.6405,-10.6405,-10.6405,-10.6405,-10.6405,-10.6405,-10.6405,-10.6405,-10.6405,-10.6405,-10.6405,-10.6405,-10.6405,-10.6405,-10.6405,-10.6405,-10.6405,-10.6405,-10.6405,-10.6405,-10.6405,-9.3786,-9.4299,-9.5621,-9.7419,-9.5988,-9.463,0.0,0.0,0.0,0.0,0.0,0.0,0.0,0.0,0.0,0.0,0.0,0.0,0.0,0.0,0.0,0.0,0.0,0.0,0.0,0.0,-10.432,-10.388,-10.4981,-10.5495,-10.5128,-10.5789,-10.6192,-10.6376,-10.6192,-10.6192,-10.6376,-10.6376,-10.6376,-10.6376,-10.6376,-10.6376,-10.6376,-10.6376,-10.6376,-10.6376,-10.6376,-10.6376,-10.6376,-10.6376,-10.6376,-10.6376,-10.6376,-10.6376,-10.6376,-10.6376,-10.6376,-10.6376,-10.6192,-10.5715,-10.5073,-10.5173,-10.5306,-10.5425,-10.5178,-10.5771,-10.6405,-10.6405,-10.6405,-10.6405,-10.6405,-10.6405,-10.6405,-10.6405,-10.6405,-10.6405,-10.6405,-10.6405,-10.6405,-10.6405,-10.6405,-10.6405,-10.6405,-10.6405,-10.6405,-10.6405,-10.6405,-10.6405,-10.6405,-10.6405,-10.6405,-10.6405,-10.6405,-10.6405,-10.6405,-10.6405,-10.6405,-10.6405,-10.6405,-10.6405,-10.6405,-10.6405,-10.6405,-10.6405,-10.6405,-10.6405,-10.6405,-10.6405,-10.6405,-10.6405,-10.6405,-10.6405,-9.9402,-10.098,-10.1898,0.0,-10.0209,0.0,0.0,0.0,-9.5254,0.0,0.0,0.0,0.0,0.0,0.0,0.0,0.0,0.0,0.0,0.0,0.0,0.0,0.0,0.0,0.0,0.0,0.0,-10.3806,-10.3403,-10.3696,-10.5018,-10.5201,-10.5605,-10.6376,-10.5715,-10.5605,-10.6376,-10.6376,-10.6376,-10.6376,-10.6376,-10.6376,-10.6376,-10.6376,-10.6376,-10.6376,-10.6376,-10.6376,-10.6376,-10.6376,-10.6376,-10.6376,-10.6376,-10.6376,-10.6376,-10.6376,-10.6376,-10.6302,-10.5495,-10.5201,-10.5126,-10.5201,-10.5665,-10.6068,-10.5407,-10.5771,-10.6405,-10.6405,-10.6405,-10.6405,-10.6405,-10.6405,-10.6405,-10.6405,-10.6405,-10.6405,-10.6405,-10.6405,-10.6405,-10.6405,-10.6405,-10.6405,-10.6405,-10.6405,-10.6405,-10.6405,-10.6405,-10.6405,-10.6405,-10.6405,-10.6405,-10.6405,-10.6405,-10.6405,-10.6405,-10.6405,-10.6405,-10.6405,-10.6405,-10.6405,-10.6405,-10.6405,-10.6405,-10.6405,-10.6405,-10.6405,-10.6405,-10.6405,-10.6405,-10.6405,-10.6405,-10.6405,-10.0283,-10.1017,0.0,0.0,0.0,0.0,-9.6575,0.0,-9.4483,0.0,0.0,0.0,0.0,0.0,0.0,0.0,0.0,0.0,0.0,0.0,0.0,0.0,0.0,0.0,0.0,0.0,0.0,0.0,0.0,-10.2081,-10.2301,-10.3623,-10.4614,-10.4908,-10.4614,-10.4798,-10.5605,-10.5605,-10.5899,-10.6376,-10.6376,-10.6376,-10.6376,-10.6376,-10.6376,-10.6376,-10.6376,-10.6376,-10.6376,-10.6376,-10.6082,-10.5605,-10.5605,-10.6009,-10.6376,-10.6376,-10.6376,-10.6302,-10.6009,-10.5201,-10.4309,-10.3895,-10.4571,-10.5601,-10.5319,-10.5771,-10.6405,-10.6405,-10.6405,-10.6405,-10.6405,-10.6405,-10.6405,-10.6405,-10.6405,-10.6405,-10.6405,-10.6405,-10.6405,-10.6405,-10.6405,-10.6405,-10.6405,-10.6405,-10.6405,-10.6405,-10.6405,-10.6405,-10.6405,-10.6405,-10.6405,-10.6405,-10.6405,-10.6405,-10.6405,-10.6405,-10.6405,-10.6405,-10.6405,-10.6405,-10.6405,-10.6405,-10.6405,-10.6405,-10.6405,-10.6405,-10.6405,-10.6405,-10.6405,-10.6405,-10.6405,-10.6405,-10.1714,0.0,0.0,0.0,0.0,0.0,0.0,0.0,0.0,0.0,0.0,0.0,0.0,0.0,-9.1473,-9.1583,0.0,0.0,0.0,0.0,0.0,0.0,0.0,0.0,0.0,0.0,0.0,0.0,-9.8961,-9.9989,-10.0283,-10.2008,-10.3182,-10.388,-10.3696,-10.399,-10.4798,-10.4798,-10.5201,-10.6009,-10.6009,-10.6009,-10.6009,-10.6009,-10.5899,-10.5678,-10.5678,-10.5789,-10.6009,-10.5789,-10.5495,-10.5128,-10.4908,-10.5201,-10.5678,-10.6009,-10.6192,-10.6376,-10.6119,-10.5073,-10.3665,-10.2648,-10.3678,-10.5167,-10.4935,-10.5591,-10.6405,-10.6405,-10.6405,-10.6405,-10.6405,-10.6405,-10.6405,-10.6405,-10.6405,-10.6405,-10.6405,-10.6405,-10.6405,-10.6405,-10.6405,-10.6405,-10.6405,-10.6405,-10.6405,-10.6405,-10.6405,-10.6405,-10.6405,-10.6405,-10.6405,-10.6405,-10.6405,-10.6405,-10.6405,-10.6405,-10.6405,-10.6405,-10.6405,-10.6405,-10.6405,-10.6405,-10.6405,-10.6405,-10.6405,-10.6405,-10.6405,-10.6405,-10.6405,-10.6521,-10.6405,-10.6405,0.0,0.0,0.0,-10.1494,0.0,0.0,0.0,0.0,-9.9622,0.0,0.0,0.0,0.0,-9.7016,-9.5951,-9.441,-9.4189,0.0,0.0,0.0,0.0,0.0,0.0,0.0,0.0,0.0,0.0,-9.6612,-9.6061,-9.7016,-10.0099,-10.0393,-10.1494,-10.3806,-10.3109,-10.3109,-10.388,-10.3917,-10.432,-10.5128,-10.5128,-10.5128,-10.5128,-10.5128,-10.4724,-10.399,-10.399,-10.4394,-10.5128,-10.4284,-10.4394,-10.5018,-10.421,-10.399,-10.41,-10.4908,-10.5715,-10.6302,-10.5422,-10.4598,-10.3575,-10.2112,-10.3223,-10.5116,-10.4323,-10.5091,-10.6405,-10.6405,-10.6405,-10.6405,-10.6405,-10.6405,-10.6405,-10.6405,-10.6405,-10.6405,-10.6405,-10.6405,-10.6405,-10.6405,-10.6405,-10.6405,-10.6405,-10.6405,-10.6405,-10.6405,-10.6405,-10.6405,-10.6405,-10.6405,-10.6405,-10.6405,-10.6405,-10.6405,-10.6405,-10.6405,-10.6405,-10.6405,-10.6405,-10.6405,-10.6405,-10.6405,-10.6405,-10.6405,-10.6405,-10.6405,-10.6405,-10.6405,-10.6521,-10.679,-10.6521,-10.6521,0.0,0.0,-10.5201,-10.1898,0.0,0.0,0.0,0.0,0.0,0.0,0.0,0.0,-9.9842,-9.8411,-9.7126,-9.6061,-9.5437,-9.4263,0.0,0.0,0.0,0.0,0.0,0.0,0.0,0.0,0.0,-9.4997,-9.485,-9.5401,0.0,-9.9145,-10.0393,-10.0723,-10.1494,-10.2301,-10.3109,-10.3109,-10.3513,-10.432,-10.432,-10.432,-10.432,-10.432,-10.421,-10.388,-10.388,-10.41,-10.4284,-10.399,-10.3696,-10.3513,-10.3219,-10.3109,-10.3219,-10.399,-10.4504,-10.4687,-10.4394,-10.3794,-10.2891,-10.1911,-10.2388,-10.3464,-10.321,-10.4318,-10.5601,-10.5601,-10.5601,-10.5601,-10.5601,-10.5601,-10.5695,-10.6322,-10.6405,-10.6405,-10.6405,-10.6405,-10.6405,-10.6405,-10.6405,-10.6405,-10.6405,-10.6405,-10.6405,-10.6405,-10.6405,-10.6405,-10.6405,-10.6405,-10.6405,-10.6405,-10.6405,-10.6405,-10.6405,-10.6405,-10.6405,-10.6405,-10.6405,-10.6405,-10.6405,-10.6405,-10.6405,-10.6405,-10.6405,-10.6405,-10.6405,-10.6405,-10.6521,-10.679,-10.6713,-10.679,-10.3773,-10.4422,0.0,-10.2807,-10.2595,0.0,-9.9438,0.0,0.0,0.0,0.0,0.0,-10.388,-10.1494,-9.9328,-9.8521,-9.6759,-9.4263,0.0,-8.883,0.0,0.0,0.0,0.0,0.0,0.0,-9.2244,-9.3308,-9.3161,-9.3602,0.0,0.0,-9.8888,-9.9512,-10.0503,-10.1494,-10.2301,-10.2301,-10.2705,-10.3513,-10.3513,-10.3513,-10.3513,-10.3513,-10.3293,-10.2999,-10.2999,-10.3182,-10.3476,-10.3182,-10.2889,-10.2705,-10.2412,-10.2301,-10.2412,-10.3182,-10.3696,-10.3806,-10.3182,-10.2705,-10.2081,-10.098,-10.1202,-10.1918,-10.222,-10.3223,-10.4394,-10.4698,-10.4812,-10.4812,-10.4812,-10.4783,-10.4899,-10.5825,-10.5969,-10.602,-10.629,-10.6405,-10.6405,-10.6405,-10.6405,-10.6405,-10.6405,-10.6405,-10.6405,-10.6405,-10.6405,-10.6405,-10.6405,-10.6405,-10.6405,-10.6405,-10.6405,-10.6405,-10.6405,-10.6405,-10.6405,-10.6405,-10.6405,-10.6405,-10.6405,-10.6405,-10.6713,-10.729,-10.6713,-10.6713,-10.729,-10.6713,-10.6597,-10.6867,-10.6905,-10.71]}]]